GFSGL_con_3kmhel_003.txt.gz
Helicity
99 96 77 52 47 26 40 61 96 66 113 157 153 170 224 157 212 183 58 50 94 58 28 16 9 -1 -2 -5 24 45 45 11 16 18 54 66 109 83 65 66 71 79 71
132 150 148 126 117 134 148 192 185 132 203 217 235 249 280 232 196 287 87 76 82 60 38 31 17 4 57 18 13 16 26 52 33 32 44 46 56 58 74 79 86 54 59
80 108 124 133 186 232 266 291 259 265 308 397 369 497 423 292 172 156 184 104 69 48 40 39 30 11 24 1 8 27 42 54 69 37 38 62 49 59 67 91 116 112 94
84 78 107 158 191 261 337 393 369 348 431 519 617 670 489 432 206 147 187 139 73 57 68 48 50 54 56 52 41 46 53 59 15 45 74 76 78 98 75 100 102 102 109
125 75 110 173 180 257 358 458 403 395 462 582 671 676 498 445 317 202 131 220 91 83 74 71 53 58 64 80 93 76 44 82 70 59 86 79 119 87 97 103 99 96 116
165 117 165 254 277 342 422 420 311 279 309 415 569 531 531 346 327 313 229 213 109 102 89 82 80 85 101 143 123 131 125 94 83 113 104 112 112 112 103 91 94 108 117
201 169 224 341 394 437 333 290 224 209 275 373 490 487 465 350 345 242 264 209 129 102 122 103 104 90 142 99 98 110 141 104 118 130 133 134 124 113 115 105 109 115 105
212 269 297 388 333 279 228 164 99 64 131 246 308 379 384 258 262 240 251 207 146 97 115 90 95 83 92 115 128 161 121 103 118 149 138 108 107 128 138 121 110 101 82
243 248 254 240 206 161 98 54 23 43 92 280 287 427 268 182 201 229 188 181 125 90 83 111 125 136 138 145 180 142 123 118 92 141 190 185 136 102 87 84 67 89 100
238 186 162 111 117 105 47 30 51 88 114 250 212 230 132 107 179 181 159 130 82 93 142 125 121 120 206 198 155 123 129 107 93 108 143 131 91 84 70 88 70 80 89
188 161 124 98 74 39 50 78 130 166 214 243 140 89 69 88 115 136 122 82 44 102 121 139 114 186 209 162 152 154 146 168 146 126 104 88 81 89 80 133 186 171 118
176 127 103 58 31 46 93 143 162 176 170 141 103 71 61 68 101 134 109 73 68 136 155 149 189 270 190 175 154 191 166 141 108 92 84 87 79 60 78 146 142 122 123
147 119 95 71 96 126 157 187 216 131 108 95 89 70 66 67 113 135 118 101 107 143 194 198 281 210 197 141 123 140 113 87 74 75 71 58 60 81 91 79 85 88 83
178 100 114 146 187 224 212 177 154 120 93 89 101 100 73 97 181 93 114 126 118 150 211 161 190 183 167 181 174 114 80 65 81 78 54 50 70 65 67 70 61 58 55
112 104 131 196 233 256 244 187 111 134 126 106 89 72 91 98 126 139 71 53 91 107 123 133 107 75 61 108 125 93 64 49 62 66 68 73 61 57 59 62 55 46 42
122 149 189 209 228 232 200 220 282 215 176 172 166 203 145 179 218 300 307 258 236 212 139 83 81 99 98 96 115 125 120 104 76 82 77 62 62 56 59 50 40 36 33
126 143 139 140 136 135 111 109 112 166 198 216 194 181 177 167 203 241 255 245 207 170 89 73 105 98 106 112 112 108 104 108 142 74 60 60 55 54 50 39 33 26 22
136 98 94 27 69 97 120 92 99 98 118 131 214 191 197 177 186 196 205 188 145 98 75 85 97 103 94 97 95 97 92 87 74 68 64 53 48 44 35 30 27 22 18
92 94 81 82 85 143 129 113 80 68 81 239 106 155 191 220 224 205 141 90 76 92 88 103 92 81 82 96 95 81 81 60 68 62 50 45 39 29 24 27 22 17 10
149 164 114 168 188 152 137 117 110 105 123 225 133 101 141 159 143 119 109 99 91 82 103 111 113 92 78 89 86 83 61 47 45 45 41 38 29 25 21 19 18 14 7
136 172 219 213 138 146 126 113 96 98 56 61 112 231 213 97 78 105 118 99 83 96 118 108 92 95 69 79 72 59 46 44 46 41 36 32 31 24 20 20 19 15 9
119 92 83 103 177 179 137 110 101 91 69 58 163 244 268 143 83 141 152 128 109 90 102 113 66 79 76 81 85 68 41 45 43 38 33 28 26 22 28 20 24 19 15
85 117 169 131 97 163 85 106 80 59 40 122 138 169 145 106 98 136 140 116 122 128 107 83 76 53 81 92 63 49 38 44 51 40 28 29 28 33 24 28 29 26 18
148 94 91 88 124 90 70 63 87 114 81 138 153 176 129 138 109 123 123 110 148 119 119 113 66 50 96 98 52 36 38 47 48 28 34 26 29 33 26 27 37 15 15
80 116 113 119 62 56 51 54 52 63 146 126 109 72 90 94 172 140 134 90 88 98 103 84 57 56 62 56 37 92 84 78 33 22 16 14 19 25 31 27 39 11 17
-24 74 76 84 82 87 92 93 94 93 88 69 55 70 105 94 87 84 88 75 68 68 54 85 66 57 64 57 44 136 80 35 17 23 16 20 20 32 51 24 37 20 16

GFSGL_con_3kmhel_006.txt.gz
Helicity
145 120 118 102 86 54 49 116 126 129 237 222 199 226 222 223 246 219 101 163 122 197 93 51 68 54 34 14 44 43 64 72 70 59 55 54 60 65 78 86 92 108 115
178 140 123 115 108 107 121 181 226 241 286 237 280 282 287 308 302 269 156 156 200 142 194 131 80 60 53 18 5 26 43 41 68 59 64 62 72 71 75 88 131 135 127
183 165 162 119 125 147 169 221 283 331 396 328 356 349 374 414 427 371 269 184 212 179 190 198 94 68 69 64 49 47 45 52 87 62 38 71 94 71 62 85 90 115 148
174 166 154 157 180 204 216 213 273 356 415 378 403 407 437 477 443 439 357 249 206 154 214 211 147 103 115 95 75 55 45 78 104 84 45 55 69 70 84 74 63 98 120
181 165 151 166 183 191 203 227 274 339 398 366 390 400 445 442 489 490 409 296 213 138 214 274 159 128 124 107 123 89 104 142 169 147 121 101 81 77 112 81 74 90 103
181 207 168 160 192 213 218 242 274 304 331 348 367 412 459 483 448 360 321 302 205 157 167 249 159 168 111 97 86 123 147 172 169 214 157 144 92 108 118 101 120 111 103
214 261 211 212 254 272 268 284 325 337 334 313 335 370 361 328 355 346 329 336 230 185 212 271 175 115 110 134 111 110 129 152 185 187 147 125 129 114 104 103 116 144 123
306 282 251 286 356 325 295 319 351 336 296 257 214 236 303 356 437 351 365 355 253 207 193 253 177 111 118 151 124 134 136 154 150 157 172 140 142 123 148 150 125 124 101
288 325 291 318 459 396 394 384 310 263 182 104 163 294 281 305 358 288 233 206 152 178 165 168 139 132 125 106 133 112 111 106 86 116 135 182 200 154 127 162 130 130 90
282 344 412 502 519 461 373 300 207 114 59 99 225 368 252 308 265 229 174 146 152 160 106 101 116 113 135 113 120 112 119 93 104 120 141 144 139 117 105 140 140 162 121
307 348 430 442 408 312 226 169 105 92 136 236 314 262 140 136 164 144 139 128 128 86 79 111 132 118 155 190 130 132 149 140 126 139 133 109 105 121 128 108 160 151 146
355 353 389 325 275 199 118 96 142 190 268 254 222 196 134 97 79 124 133 94 68 63 35 114 213 232 185 127 128 172 151 122 126 126 113 93 93 88 83 99 100 121 156
308 290 289 212 153 201 244 194 185 195 184 178 145 141 108 81 146 124 111 100 67 85 100 159 130 139 127 120 103 98 98 101 109 108 102 89 65 53 65 75 93 86 82
318 274 235 176 156 166 186 167 149 157 178 139 157 126 119 152 130 131 104 108 122 151 180 141 111 112 107 141 148 114 84 47 53 83 72 70 83 88 87 91 85 64 68
257 221 191 195 179 206 320 225 181 212 141 146 121 106 110 111 86 82 96 98 95 72 122 133 111 92 73 101 111 101 108 86 69 62 106 91 86 78 82 80 77 76 81
149 119 125 185 203 274 293 286 370 224 197 185 159 138 126 122 137 150 163 151 142 135 111 104 95 71 97 151 171 158 141 112 142 184 151 104 75 78 79 75 82 72 61
96 117 137 160 174 218 207 211 224 227 221 204 196 202 124 120 207 264 276 257 218 186 144 106 66 90 159 168 169 154 147 171 158 117 89 84 78 73 66 61 56 52 50
68 84 99 72 111 109 103 86 114 132 160 152 225 187 221 217 194 169 165 184 159 131 107 75 86 140 150 139 128 119 138 150 144 130 123 94 68 66 51 47 45 45 60
70 20 21 85 153 88 66 24 99 138 104 166 139 178 187 201 172 150 130 124 101 87 91 50 139 142 136 131 125 143 139 111 102 79 75 61 57 48 40 43 40 31 37
105 59 68 196 182 97 110 138 82 185 260 176 136 148 129 124 121 111 104 101 92 87 107 126 194 199 173 132 120 138 116 85 65 71 65 60 44 40 34 34 34 47 55
114 106 110 245 172 167 151 100 87 89 127 126 132 167 96 71 86 65 63 49 51 61 86 126 191 165 148 105 99 93 72 61 56 65 66 48 40 40 39 34 32 42 39
99 107 181 181 189 172 125 122 154 160 190 148 199 228 173 77 42 141 152 158 171 129 125 143 130 107 103 149 179 150 109 54 54 67 72 44 35 34 35 35 46 43 32
59 107 131 159 177 158 165 125 93 84 126 154 173 152 123 85 162 198 192 219 157 144 122 146 164 102 74 144 143 86 61 57 106 102 56 33 34 43 41 44 48 38 27
133 204 85 76 194 127 65 61 69 96 157 155 173 166 140 160 157 220 161 151 113 104 139 175 171 106 135 154 129 72 72 104 121 97 48 30 32 31 38 56 35 19 66
209 201 161 184 114 78 41 35 35 61 145 99 147 137 124 122 87 85 108 136 118 115 120 183 143 109 74 85 111 148 131 145 91 28 13 19 6 7 48 46 32 34 36
54 108 102 72 71 63 40 24 65 78 63 50 126 106 108 154 123 88 51 56 69 60 94 87 55 76 83 104 129 143 98 70 43 39 21 16 24 50 46 41 37 41 30

GFSGL_con_3kmhel_009.txt.gz
Helicity
271 237 143 87 74 55 25 34 104 132 228 262 264 247 243 251 229 227 207 217 130 84 75 93 101 135 121 65 69 92 89 86 90 58 60 31 24 23 25 36 50 74 84
297 238 159 86 73 75 61 54 105 198 253 327 336 294 296 278 312 336 289 268 188 129 90 105 104 191 154 85 74 70 80 94 93 64 60 69 60 74 65 51 68 85 89
299 238 160 78 73 102 102 89 137 195 286 405 450 453 432 393 374 375 346 299 252 149 125 101 117 175 170 103 106 76 72 75 85 95 93 116 105 104 104 99 99 79 66
288 228 163 106 111 138 141 149 190 255 329 393 469 497 489 432 405 422 390 315 257 177 142 142 137 158 169 147 129 119 91 79 81 109 113 119 130 109 107 146 114 96 64
304 251 164 124 108 113 126 149 195 298 370 430 517 521 531 479 429 478 455 400 301 194 143 165 154 155 197 169 148 123 124 87 107 139 144 153 175 155 90 98 84 58 71
294 263 175 112 113 108 157 174 228 241 341 435 460 474 470 413 371 432 426 388 294 191 167 149 146 159 200 212 133 111 125 142 130 166 198 178 150 137 118 103 83 90 66
282 289 223 148 139 164 214 207 235 263 329 366 414 415 353 372 352 351 355 329 305 229 175 140 169 198 179 157 126 112 75 95 128 163 159 147 146 144 130 116 116 130 135
338 273 292 210 163 223 278 276 293 334 363 405 378 357 325 328 293 238 245 321 290 237 245 227 211 137 142 123 129 124 101 87 100 149 170 112 150 135 159 151 138 134 148
438 311 342 316 255 269 337 303 378 417 434 374 352 324 339 271 238 197 213 222 242 240 248 217 159 141 100 107 116 91 73 78 81 95 118 105 86 98 130 178 142 162 133
476 358 364 380 328 408 468 477 502 405 263 328 303 238 217 220 199 131 137 186 171 165 144 137 135 111 80 134 130 123 109 103 127 131 127 95 93 95 81 181 173 171 143
510 450 451 465 524 631 651 547 433 298 274 234 179 210 254 163 152 165 136 165 137 131 131 87 45 36 99 115 117 135 140 131 113 119 101 101 103 113 152 156 132 100 115
521 490 530 638 684 665 522 326 280 246 268 349 284 245 175 155 186 130 119 121 121 137 120 99 48 120 141 121 128 134 113 115 108 90 92 106 149 150 130 85 37 59 106
643 575 623 611 525 501 355 347 277 261 261 246 257 222 170 136 155 115 98 100 144 147 122 101 120 133 139 131 101 83 98 97 71 58 76 108 109 90 60 44 50 82 80
804 618 521 450 406 343 264 199 209 212 185 192 196 182 140 127 121 109 107 121 128 125 168 167 129 110 106 95 108 84 82 75 70 53 79 78 76 83 67 63 71 62 76
663 523 454 387 324 312 295 259 229 229 155 157 128 129 135 125 110 119 109 100 127 149 163 172 148 113 103 91 86 85 68 76 85 89 90 120 103 74 62 63 76 86 93
428 379 272 248 250 273 311 381 413 253 227 208 151 134 100 86 90 86 59 93 111 127 134 125 95 81 90 102 111 97 113 114 127 146 132 125 94 72 67 74 76 75 72
219 177 194 231 237 262 264 260 271 287 268 268 219 170 116 115 119 141 166 178 151 157 103 83 81 73 96 120 107 111 135 165 214 221 186 133 100 81 73 64 54 58 59
151 150 191 209 203 192 185 186 212 180 199 227 250 176 168 178 182 210 224 232 172 125 105 97 90 121 126 126 130 132 145 168 160 129 99 88 95 97 68 48 43 59 69
135 132 136 147 155 155 178 171 159 208 193 185 193 186 147 156 174 186 182 140 118 96 103 95 93 152 194 214 187 158 137 134 109 87 87 86 77 75 57 41 42 43 58
98 104 113 116 99 124 162 141 167 136 164 133 106 90 86 123 122 103 88 100 104 112 141 136 176 245 228 196 157 125 124 114 97 82 74 55 54 57 47 46 50 50 76
136 185 154 112 118 91 126 89 138 181 143 108 102 121 76 104 143 80 50 29 69 87 124 155 200 183 129 106 100 108 99 73 63 80 97 86 62 40 41 41 43 49 98
105 124 116 157 197 177 144 131 155 143 173 128 132 149 132 124 119 81 22 -4 31 96 125 143 150 189 152 138 144 147 115 91 75 100 133 110 64 31 40 37 34 70 79
139 160 202 202 185 183 224 212 196 147 184 212 216 163 113 77 96 92 94 119 163 192 159 172 170 163 148 122 141 122 97 108 139 129 126 92 53 32 36 41 47 78 79
196 179 159 172 194 215 182 160 178 130 130 132 130 130 93 107 132 128 176 172 159 141 140 138 169 201 172 162 174 161 117 138 134 102 70 52 36 14 13 28 50 45 62
217 189 143 207 213 143 126 136 136 146 145 104 112 96 73 113 167 137 113 98 87 116 120 120 135 147 162 169 151 126 122 145 109 74 53 45 35 21 34 49 46 41 75
103 105 93 108 170 146 165 79 94 84 92 104 141 109 140 185 198 149 112 78 63 64 67 68 83 91 136 156 178 138 101 97 78 63 59 52 39 39 40 36 31 51 62

GFSGL_con_3kmhel_012.txt.gz
Helicity
297 217 202 140 123 100 28 20 40 31 65 115 166 151 171 199 197 195 196 183 181 141 77 50 30 54 101 145 131 145 105 103 108 62 53 57 61 61 35 62 66 43 47
308 217 172 140 135 115 50 1 9 78 92 148 193 203 192 212 228 233 235 215 215 194 141 94 61 66 65 126 144 143 154 113 153 103 77 74 67 62 62 70 59 74 80
300 233 153 146 132 99 88 45 24 47 128 190 231 263 285 285 282 264 274 271 235 211 197 142 71 92 54 111 136 116 132 147 133 149 83 74 70 92 81 86 82 73 79
315 253 175 149 154 102 83 71 51 68 129 217 307 331 347 363 347 341 351 296 273 228 213 189 122 118 120 93 121 107 121 150 131 136 129 89 91 77 91 110 101 98 73
318 293 233 148 168 145 94 83 84 78 145 226 305 322 357 393 410 418 398 353 294 256 222 188 150 120 148 116 160 88 90 125 138 127 114 121 94 98 98 109 130 108 89
311 253 262 180 179 153 120 107 117 164 194 280 295 346 407 388 389 450 427 408 310 276 228 175 145 122 116 124 146 97 98 133 146 164 130 112 98 118 122 132 126 125 102
327 256 217 205 200 181 158 165 156 200 287 293 330 357 324 352 355 392 386 335 311 263 207 178 163 158 159 134 114 81 63 66 126 150 112 106 127 130 127 121 131 141 144
364 286 229 201 203 219 205 195 222 232 282 277 282 279 279 263 346 274 317 265 207 170 135 157 143 170 169 108 119 101 85 81 103 105 117 110 141 121 150 144 138 140 166
392 368 299 222 229 247 248 242 260 266 284 253 256 313 250 277 252 313 256 192 148 114 87 98 133 137 122 90 108 79 62 63 66 67 84 89 94 88 99 147 143 177 148
364 396 405 359 279 289 268 290 302 310 296 280 247 189 220 297 303 204 147 157 132 116 109 106 103 109 102 108 129 79 77 73 99 140 143 140 118 112 108 156 179 155 141
329 359 454 466 370 306 341 370 366 322 260 254 266 283 240 228 178 136 170 146 135 121 110 104 108 87 79 77 104 131 105 110 131 135 122 111 116 133 150 165 143 135 120
312 397 440 499 496 450 462 502 329 283 253 293 373 247 191 168 174 91 72 86 118 108 92 78 68 56 74 116 138 88 120 159 151 138 116 88 122 152 143 121 96 67 54
431 415 434 499 575 556 567 451 358 344 346 363 325 297 244 156 113 83 63 136 122 112 92 90 97 99 125 101 96 119 139 137 132 126 85 73 100 97 97 90 73 66 68
498 509 580 600 635 575 509 441 425 427 370 331 251 244 170 140 89 82 114 127 137 145 126 148 145 122 116 124 141 126 119 129 115 101 88 76 90 107 100 88 69 57 75
615 552 580 623 624 673 718 529 414 385 309 225 168 155 119 93 62 116 130 114 109 116 187 176 162 157 140 126 104 97 104 99 91 94 94 98 115 105 86 65 70 82 85
561 576 570 655 657 649 528 461 492 366 123 124 104 88 100 113 111 117 120 135 147 180 167 157 142 126 114 104 97 87 81 88 107 112 109 112 97 81 53 59 87 85 79
383 434 469 479 313 275 231 297 248 365 256 210 136 162 108 74 93 108 116 136 151 164 133 131 115 126 112 82 83 96 86 77 110 122 115 99 76 71 80 81 72 71 74
353 366 402 415 438 350 240 231 176 180 226 253 305 217 135 118 151 165 217 255 193 118 132 104 97 113 94 119 131 130 124 130 135 131 127 112 101 103 89 72 64 69 77
251 233 180 175 178 166 158 182 156 200 244 297 306 302 284 270 212 197 193 171 164 127 103 114 126 118 138 153 163 147 117 97 97 110 112 122 103 97 73 64 56 56 73
155 123 113 111 137 181 194 163 185 149 143 136 189 192 175 210 156 108 115 122 119 112 129 121 146 159 205 197 172 145 111 68 55 73 86 92 87 81 64 50 56 67 85
162 140 141 150 145 132 133 138 168 183 158 133 92 87 79 114 72 90 85 77 82 97 111 131 172 196 167 162 151 126 92 84 87 70 74 93 93 75 53 53 55 66 76
180 207 175 105 96 142 177 233 247 185 110 129 106 93 93 109 114 91 42 55 30 24 54 110 155 158 153 151 147 105 75 92 74 85 108 107 90 64 58 55 51 70 70
117 66 182 165 207 199 215 156 77 93 120 161 157 157 110 74 61 41 58 54 38 14 35 127 161 146 135 126 104 110 84 79 56 91 120 97 67 49 46 44 46 54 75
90 113 162 183 197 205 158 127 25 95 121 143 162 158 112 57 34 52 41 69 103 91 96 141 159 178 179 170 153 97 78 92 87 93 105 83 58 41 39 40 39 60 85
155 159 153 157 182 140 115 86 87 98 136 162 148 129 77 67 81 95 93 100 103 109 114 127 145 159 165 150 108 91 92 124 118 97 86 73 60 46 49 53 49 65 83
84 132 159 172 142 148 118 116 117 89 85 81 97 74 112 112 123 135 137 120 127 120 99 90 116 137 123 103 111 129 89 67 75 75 88 79 67 57 65 44 36 68 67

GFSGL_con_3kmhel_015.txt.gz
Helicity
388 357 336 274 214 224 141 92 70 8 -31 2 39 93 112 127 130 138 119 138 142 140 133 133 96 97 90 127 102 93 114 116 75 44 63 49 55 57 43 43 43 52 54
414 359 350 302 234 195 124 81 73 31 26 32 37 65 119 132 153 164 157 152 152 145 145 156 139 128 88 92 123 98 96 118 108 57 69 60 66 63 52 46 27 31 40
401 340 291 265 259 208 119 85 68 47 36 41 45 78 118 142 168 181 188 197 186 162 174 176 162 174 114 119 136 135 104 92 100 99 78 81 58 67 77 67 53 35 51
361 328 277 255 256 227 125 92 64 78 80 86 115 119 151 199 200 216 260 246 229 183 186 177 189 196 154 120 138 136 133 112 95 87 68 86 102 101 81 61 42 74 89
343 289 263 232 214 190 111 94 85 90 94 133 175 169 186 234 256 255 289 313 291 253 191 172 142 146 152 144 149 130 138 135 112 96 92 92 95 98 87 72 77 109 90
286 277 302 263 215 197 132 98 114 134 140 172 185 230 256 285 290 308 351 378 332 338 266 188 106 84 105 100 125 151 126 148 115 120 83 104 110 100 101 85 124 148 107
295 267 270 274 229 208 175 139 122 154 207 195 218 264 271 289 255 310 395 330 283 291 217 205 90 75 66 79 89 101 82 108 112 126 121 112 111 114 117 124 139 159 154
289 271 286 304 249 257 215 167 152 196 226 248 241 235 231 220 313 316 343 332 98 192 193 140 143 112 70 95 85 96 82 81 93 106 100 87 97 110 142 156 148 138 156
281 269 292 292 273 280 277 225 171 200 233 256 247 220 193 208 274 257 236 128 211 184 105 148 154 109 84 110 97 102 83 88 111 79 67 76 107 127 153 180 145 166 154
299 289 329 329 302 304 311 280 246 210 207 272 210 186 194 225 277 232 309 227 238 148 142 133 145 88 100 119 124 138 119 97 99 96 107 134 145 132 140 151 178 166 166
298 344 345 351 366 366 341 336 346 296 275 220 199 191 187 207 249 247 258 243 175 141 140 152 91 74 67 85 107 136 100 112 100 124 143 148 136 123 137 161 135 147 150
285 260 290 353 389 412 403 393 356 319 246 217 250 268 217 225 212 184 145 166 170 208 147 102 93 90 88 82 104 110 143 155 159 163 167 137 89 92 108 117 108 100 104
293 319 393 400 416 453 507 444 371 316 233 236 351 321 302 245 206 139 119 191 223 167 110 89 125 128 125 126 134 138 173 173 169 155 121 97 89 100 96 108 115 113 100
175 322 427 451 425 548 571 543 449 388 315 338 367 356 314 227 197 128 227 196 178 170 172 170 166 171 164 163 166 161 153 143 139 122 99 100 97 103 121 128 114 96 94
235 288 375 474 604 584 643 482 419 494 379 450 405 286 234 180 135 211 210 157 161 164 232 220 182 169 152 152 152 131 124 132 125 117 111 110 95 106 97 112 99 85 91
116 401 476 601 762 780 936 906 881 638 329 210 146 73 136 83 142 167 145 159 197 249 203 148 135 129 128 126 116 125 116 113 108 111 111 107 101 86 84 86 88 86 87
311 205 513 750 890 800 551 632 732 681 458 235 84 154 196 80 116 142 163 210 184 204 144 126 114 111 103 101 108 113 103 100 109 111 113 95 87 86 90 82 86 90 86
420 485 439 597 718 667 535 458 291 335 299 30 288 279 199 132 143 175 207 244 177 130 134 112 89 106 102 88 83 101 110 120 109 106 100 80 82 82 84 81 83 82 84
191 264 282 166 593 424 351 165 202 295 478 298 271 256 148 176 202 177 194 210 144 117 107 93 101 114 89 77 85 113 138 118 88 88 73 81 91 91 79 73 74 75 78
141 56 259 209 144 200 251 323 225 134 172 180 123 92 135 217 225 170 148 139 126 104 100 95 98 100 95 128 157 148 125 97 84 67 57 67 88 112 103 83 80 74 81
6 42 93 94 99 89 138 139 142 157 98 61 32 50 107 201 152 127 109 88 93 95 95 86 87 111 134 153 177 148 127 101 73 60 62 63 105 117 97 78 78 72 76
79 80 76 68 103 100 90 107 87 41 42 108 220 331 290 207 153 113 106 91 71 82 82 88 106 115 135 164 171 158 121 96 73 79 89 95 115 110 92 76 74 74 73
56 59 77 81 62 57 92 97 88 123 140 153 132 140 96 68 84 71 65 58 98 105 83 82 107 122 118 137 137 132 107 66 70 101 108 117 115 97 78 71 71 68 69
57 47 54 76 76 133 135 192 186 177 163 55 66 72 86 67 75 60 82 100 102 88 95 99 107 112 124 123 122 146 144 68 79 95 110 101 86 86 70 60 66 64 62
209 148 105 63 53 52 83 102 75 78 87 65 53 70 84 115 108 90 97 94 82 84 86 97 106 119 122 127 132 149 98 79 90 106 100 101 87 74 61 63 72 63 62
96 94 93 76 81 100 111 132 104 97 72 57 42 66 122 134 113 104 78 88 89 98 85 85 74 83 117 116 98 119 99 75 92 93 108 106 93 80 66 62 61 62 55

GFSGL_con_3kmhel_021.txt.gz
Helicity
216 198 197 183 164 142 138 139 130 123 96 56 10 -24 -43 -41 -33 -5 6 29 57 71 85 102 109 121 113 106 96 90 80 76 89 73 47 36 24 47 65 59 47 46 48
307 250 232 224 202 192 189 175 166 165 129 105 53 9 -37 -29 -26 -7 20 41 61 76 92 106 117 134 139 157 115 96 72 59 88 80 94 67 45 41 52 62 61 57 65
243 270 224 193 204 222 221 196 170 158 140 96 74 39 -9 -14 -11 -18 16 51 67 76 98 117 128 202 104 117 132 129 103 87 72 78 53 73 63 64 63 60 56 73 72
181 240 251 264 260 253 251 193 189 188 168 116 110 85 31 9 2 9 20 45 56 75 89 106 131 110 122 147 155 157 142 124 99 99 43 43 81 75 66 82 80 88 102
192 215 239 249 234 231 236 213 206 184 185 159 132 111 82 36 6 18 52 62 68 68 70 141 153 134 141 151 148 181 192 206 189 148 98 26 52 82 68 73 63 86 83
230 236 235 215 235 259 218 191 170 172 168 148 119 135 121 72 31 68 104 95 100 74 102 138 140 168 168 177 170 196 209 247 230 200 133 75 55 82 79 73 84 73 62
221 197 189 213 220 244 255 238 210 195 184 176 135 146 108 94 111 120 135 93 106 104 127 158 158 177 176 161 151 161 170 197 160 157 155 105 66 76 102 105 97 79 88
173 218 242 277 256 246 260 241 228 216 197 205 169 159 143 110 143 158 178 124 123 100 119 141 160 163 183 206 166 181 159 183 177 135 106 84 93 135 129 101 105 111 123
194 233 281 323 308 278 266 254 262 254 208 164 164 170 167 124 166 208 249 131 123 140 143 141 139 146 184 223 241 201 207 241 200 139 157 178 175 147 131 122 96 115 109
216 223 194 246 274 260 269 229 225 258 284 237 196 198 148 105 145 213 244 154 151 199 193 153 160 154 236 200 223 199 250 254 211 206 188 185 168 147 118 92 109 110 106
123 128 167 223 234 207 235 235 217 195 174 246 290 261 228 167 143 241 265 200 211 255 228 228 219 193 199 212 201 173 193 194 198 189 200 184 123 114 110 101 113 109 113
86 90 139 162 155 115 163 193 205 217 175 181 204 236 251 239 254 285 271 220 293 296 269 276 231 196 185 197 223 174 231 214 194 180 178 148 135 137 143 120 121 109 111
111 100 89 102 142 127 142 172 196 207 230 261 250 255 169 234 256 353 272 266 405 372 350 278 193 146 181 231 269 216 191 183 181 185 159 146 144 155 156 132 114 107 93
56 72 70 82 121 113 96 137 213 231 220 238 210 274 335 260 376 469 381 369 594 598 387 302 251 264 234 252 307 202 151 165 166 147 153 162 171 151 128 112 90 93 87
100 78 48 36 60 84 123 182 205 214 300 338 303 382 341 421 531 347 405 578 661 521 425 312 323 154 198 306 253 178 186 207 178 155 174 168 151 133 111 102 92 96 76
91 74 67 53 56 60 91 175 324 357 245 275 328 384 452 519 521 511 575 460 371 332 172 219 239 280 174 210 198 193 196 178 152 160 168 152 130 113 98 99 93 79 68
52 40 53 53 89 124 124 153 155 274 393 267 388 551 612 585 601 473 502 461 377 344 145 267 300 272 218 179 192 186 179 146 156 168 155 123 104 100 111 95 81 72 67
92 68 95 96 138 245 257 202 219 312 229 477 734 719 645 452 500 569 483 372 273 275 400 297 239 220 209 164 208 185 152 170 163 163 130 112 105 93 96 83 72 71 64
173 155 137 147 147 113 107 129 222 316 347 733 1125 1162 818 698 551 407 272 350 238 224 303 138 176 155 151 207 166 137 155 152 152 148 131 125 98 87 84 77 76 69 69
164 138 85 74 81 98 151 202 52 200 470 494 837 1255 771 622 371 231 137 190 149 245 169 88 108 111 182 168 149 145 149 163 157 152 152 124 91 75 74 73 67 59 60
198 154 103 65 58 34 -31 27 23 138 136 124 -36 -106 53 86 29 -35 26 128 173 205 77 54 122 149 150 162 156 152 142 138 143 157 160 119 97 79 69 63 63 67 64
95 128 127 108 93 72 44 18 34 -88 -27 6 58 -21 95 108 122 195 125 94 116 89 57 131 184 137 128 135 141 141 132 153 176 172 158 115 73 67 69 63 64 75 65
67 40 60 61 40 27 11 13 43 18 22 14 -12 -23 -13 63 118 126 69 140 117 150 129 134 133 128 115 126 131 121 126 161 169 160 159 93 58 55 62 61 67 75 64
155 111 79 71 95 83 89 86 49 17 -4 -29 -64 -17 31 46 111 91 137 162 182 121 115 117 85 88 118 125 120 119 139 167 160 128 88 77 58 72 62 67 72 73 63
200 215 218 215 177 158 116 86 70 83 82 100 103 144 130 231 251 286 209 115 89 80 108 113 112 100 90 87 100 110 173 191 118 140 118 102 59 57 62 73 76 70 62
133 117 126 153 183 191 208 200 207 150 137 128 177 188 175 164 179 118 48 5 23 101 122 113 92 81 89 93 101 151 173 155 166 165 146 103 71 74 83 78 72 58 59

GFSGL_con_3kmhel_024.txt.gz
Helicity
127 170 164 135 104 79 71 93 89 63 70 54 67 24 16 -7 -20 -27 -36 -17 8 26 51 89 106 99 89 80 82 66 60 50 81 90 69 118 80 60 94 76 64 54 69
135 159 180 175 172 131 124 108 111 105 92 92 87 61 32 12 2 5 -21 -11 18 44 67 78 102 123 119 80 79 101 89 99 80 119 121 123 107 101 78 98 74 54 67
84 94 84 99 110 134 154 96 85 98 118 82 78 92 78 51 38 22 -18 -15 1 21 46 71 81 94 90 97 87 112 100 91 111 92 109 107 100 118 116 105 107 90 96
62 56 94 129 160 152 165 163 136 136 125 116 129 122 103 76 53 32 1 -1 11 15 43 64 113 154 106 117 131 108 143 139 117 116 123 105 135 90 82 84 119 91 81
70 52 78 100 127 139 159 161 127 135 149 156 151 119 120 92 59 58 36 25 33 26 43 60 109 168 114 139 143 136 162 159 158 154 147 158 140 101 99 60 79 108 117
56 62 85 66 94 118 146 166 126 123 154 156 175 178 164 117 95 117 92 83 86 86 97 95 123 196 158 182 184 206 188 178 180 183 156 155 143 124 84 68 75 91 93
58 81 82 113 98 118 126 155 154 154 156 148 181 204 198 154 142 168 162 114 117 133 124 120 147 163 164 173 190 194 238 213 156 176 151 150 150 141 73 127 86 93 73
114 96 76 87 135 128 142 156 167 167 182 200 205 204 209 194 186 216 190 105 112 121 126 130 175 166 176 173 205 202 224 211 180 184 149 93 109 122 130 98 97 100 81
111 123 123 87 103 109 137 168 178 167 175 209 211 218 212 181 205 237 269 148 72 132 151 131 161 187 215 236 200 188 189 208 207 188 246 208 191 241 162 95 86 92 70
104 83 83 105 134 166 178 167 190 193 173 163 178 194 210 189 218 296 328 166 137 179 188 202 216 220 258 308 199 182 191 225 188 209 195 177 171 186 163 104 95 85 83
73 75 103 128 123 141 169 182 190 180 137 163 164 181 158 189 174 323 387 289 248 233 235 215 248 265 337 315 209 200 198 189 209 177 181 176 188 180 165 126 111 96 88
79 85 99 104 98 92 122 137 152 151 158 175 165 143 161 158 168 271 324 292 267 292 305 329 348 352 340 314 242 207 191 168 174 174 173 189 181 169 150 151 126 99 119
41 45 55 61 61 71 120 120 114 149 134 161 170 167 162 192 190 297 351 376 242 275 244 294 453 344 341 318 254 214 207 180 184 200 189 156 156 150 247 159 127 117 101
70 74 90 79 110 109 113 97 109 137 156 121 166 190 153 176 209 344 358 334 232 343 508 726 578 452 435 451 413 210 252 114 185 169 143 146 211 253 181 140 102 76 62
152 124 96 73 69 69 62 69 80 88 88 109 124 145 180 210 260 312 399 476 482 566 1017 945 636 618 641 577 400 289 326 217 192 214 143 214 220 179 152 143 109 93 68
194 143 133 104 75 58 53 60 134 134 218 210 147 142 149 182 254 419 467 451 602 706 812 825 706 675 591 469 293 265 381 279 196 155 213 247 180 171 148 140 105 89 64
194 162 144 119 115 116 103 94 82 139 136 89 114 153 180 267 516 596 510 595 645 725 661 820 876 663 448 401 381 417 336 238 159 171 188 182 165 162 151 128 99 80 63
123 131 96 96 80 84 102 131 133 106 102 108 111 177 182 375 602 596 669 685 777 660 707 788 744 564 454 422 372 183 156 154 162 175 167 165 167 147 126 99 91 67 64
130 116 91 86 96 95 134 155 196 179 177 162 162 206 261 273 502 788 979 741 881 919 819 620 507 494 370 404 252 225 155 139 182 170 160 158 155 122 110 87 75 103 97
167 196 146 172 186 210 237 273 231 154 94 92 51 100 124 108 266 298 680 861 945 874 647 488 347 345 348 298 303 159 206 226 175 160 149 155 135 112 96 82 75 89 76
221 216 214 216 233 225 212 212 149 143 73 72 126 41 -70 14 164 239 252 89 350 262 218 190 218 255 237 242 240 216 188 171 154 154 140 136 132 108 98 83 77 74 74
154 203 215 189 155 161 165 155 146 119 81 41 32 85 73 61 17 127 172 120 79 111 120 182 203 161 196 166 153 175 128 155 147 129 140 125 125 102 103 74 87 81 80
136 126 119 137 128 112 157 177 142 101 76 43 27 44 14 -24 38 17 16 65 91 135 135 147 136 114 103 97 115 97 126 127 118 121 128 128 119 93 87 78 76 83 84
154 161 173 171 186 163 175 182 150 98 52 34 33 47 44 35 19 5 16 56 52 71 67 58 16 53 116 110 111 117 114 106 117 121 125 131 105 129 87 71 71 73 82
174 196 212 206 212 188 146 135 123 116 118 115 79 50 53 36 37 42 25 43 69 85 113 116 127 127 86 97 91 86 121 198 142 151 131 119 91 115 74 67 66 82 76
120 124 126 134 171 175 211 215 202 188 126 130 186 244 150 101 149 190 238 227 209 171 155 152 95 58 72 70 59 160 256 285 233 186 117 94 100 93 73 62 73 80 85

GFSGL_con_3kmhel_027.txt.gz
Helicity
158 175 141 126 117 97 98 109 81 93 90 53 148 119 90 46 36 26 -20 -1 34 23 38 83 99 46 62 99 93 76 80 60 61 35 96 181 213 102 175 118 91 94 85
135 150 178 181 159 158 127 127 139 111 105 122 118 160 121 89 74 56 37 -0 58 50 65 90 134 92 100 72 113 122 97 100 85 112 61 198 156 166 109 140 79 36 52
80 88 106 135 163 194 201 166 157 135 117 115 117 146 158 139 123 108 74 42 64 83 78 93 125 151 151 120 119 136 117 130 140 103 110 125 121 153 167 125 98 79 42
59 36 70 101 129 155 191 203 193 179 139 133 147 152 155 155 161 169 148 110 103 107 122 122 142 173 178 176 171 130 137 161 150 130 121 110 126 131 157 104 145 110 70
129 120 93 93 38 60 118 176 173 160 170 157 171 188 188 153 141 153 119 94 93 113 123 146 134 176 205 182 167 182 173 203 159 186 143 106 116 130 208 143 109 90 138
114 194 172 119 120 96 79 141 180 154 184 197 210 251 251 227 191 203 189 151 102 70 94 147 176 203 223 226 185 184 219 244 186 151 170 161 148 209 149 109 102 97 123
85 180 193 149 120 124 101 108 178 171 157 210 233 251 278 279 260 315 312 178 137 145 153 181 197 185 271 294 212 154 223 230 200 183 143 161 216 243 209 179 121 109 115
98 163 208 155 166 174 133 138 178 162 163 196 216 235 257 310 322 314 403 283 181 137 151 181 212 228 318 295 228 206 219 276 238 217 210 148 132 232 294 154 123 118 109
105 154 199 182 180 177 153 142 181 194 172 190 209 230 263 250 311 305 336 300 233 184 182 195 189 222 330 427 312 282 253 275 278 247 206 201 188 261 181 175 136 117 116
128 124 198 194 157 160 123 130 141 137 134 134 144 198 232 242 249 302 337 269 258 260 236 253 259 258 319 467 384 342 349 324 300 285 249 222 208 218 262 189 128 144 134
81 91 155 158 182 153 134 127 127 126 111 122 115 154 162 177 202 293 377 300 263 309 304 288 351 432 507 535 513 427 434 404 327 313 251 200 164 129 190 179 132 132 113
128 108 130 131 131 120 134 152 142 137 129 107 149 163 192 169 181 214 327 337 290 290 325 332 306 395 519 570 552 464 423 405 353 321 300 212 179 141 193 192 159 146 136
116 111 108 120 109 99 131 152 157 157 124 136 158 157 206 196 182 180 288 317 284 282 254 304 297 461 490 475 464 500 457 419 368 366 315 238 194 175 173 252 183 146 159
106 93 94 104 117 118 128 131 130 125 127 124 133 146 135 171 172 186 229 269 254 277 229 220 372 450 520 673 659 524 409 450 357 366 288 248 210 243 393 422 254 155 136
125 114 102 87 97 99 92 97 102 91 82 85 95 77 76 99 102 129 163 242 272 349 352 385 415 592 782 870 750 595 466 417 379 372 314 296 311 319 400 339 161 123 104
179 132 115 99 81 79 89 77 53 47 94 76 39 39 88 104 46 132 170 318 402 446 414 516 587 845 934 935 873 717 573 638 472 376 355 404 268 361 324 184 165 139 128
293 259 200 193 189 187 149 140 119 128 110 84 162 173 93 51 63 -18 66 355 504 652 552 568 687 705 821 1022 1113 956 833 654 279 317 462 327 254 261 194 176 178 155 115
208 207 198 206 191 192 210 192 176 182 192 208 204 155 114 72 31 10 61 231 455 709 562 580 656 773 862 992 1072 1020 695 528 289 296 261 246 276 220 209 166 174 150 104
275 208 182 131 159 127 101 98 115 103 116 84 120 93 134 198 187 211 237 224 240 402 382 467 725 960 1002 1061 1016 909 575 296 236 322 261 236 163 200 210 156 124 125 125
167 249 161 125 83 75 60 44 69 93 145 146 147 163 167 157 199 172 154 174 159 286 300 227 246 713 1518 1786 938 481 319 255 471 237 239 179 230 214 158 158 126 126 136
123 109 135 65 74 74 139 205 209 188 168 150 141 136 104 71 42 -12 24 57 111 109 248 353 420 449 369 612 364 249 210 321 293 225 231 218 222 219 158 148 112 100 114
81 119 145 139 147 172 179 208 222 223 218 224 214 122 66 59 71 55 36 46 43 74 75 153 149 88 116 101 157 159 188 246 220 221 215 204 196 154 148 128 117 107 90
147 173 208 225 193 168 191 195 203 190 141 131 136 117 64 57 56 33 25 26 14 15 26 52 72 74 72 126 171 176 200 208 192 137 158 166 164 134 114 119 96 105 94
295 293 292 280 278 242 287 261 205 173 151 140 145 98 110 76 49 49 26 16 -3 7 28 30 53 109 167 175 141 61 53 83 89 111 173 161 120 139 109 105 92 82 91
194 170 176 175 173 190 210 194 158 146 143 134 136 120 125 127 136 71 37 22 30 38 55 62 29 38 34 36 29 5 32 137 128 113 122 107 109 140 85 95 93 85 81
131 124 112 88 77 98 120 117 100 113 128 147 162 152 146 136 183 195 165 182 150 127 104 62 89 86 46 87 71 128 143 162 155 186 126 106 105 111 121 98 95 81 70

GFSGL_con_3kmhel_030.txt.gz
Helicity
136 140 131 109 108 104 63 55 41 29 48 -9 159 219 191 152 114 74 56 32 43 68 69 83 115 75 66 107 121 100 104 90 58 67 147 245 212 223 196 183 166 150 118
137 112 112 119 118 113 107 94 97 78 59 68 117 203 238 195 151 121 98 54 68 100 118 129 180 119 78 58 159 164 119 113 128 79 119 234 257 199 220 185 131 87 103
95 88 83 94 104 106 118 122 127 132 114 120 111 199 221 196 180 151 122 78 27 57 99 134 171 198 137 95 149 210 210 177 179 165 109 147 211 236 198 153 120 98 17
124 93 76 73 77 78 96 115 137 167 174 171 174 199 245 266 215 200 173 133 97 59 100 123 148 191 212 178 145 172 233 259 205 210 153 100 170 212 281 221 136 118 105
130 159 140 115 94 96 98 90 102 129 169 190 191 201 242 253 259 247 237 212 163 129 106 173 192 220 237 258 240 224 213 278 287 252 216 177 137 171 306 244 256 197 135
181 210 224 205 152 127 116 125 133 143 127 143 187 206 248 273 292 317 311 290 250 183 141 124 197 228 251 280 261 224 260 296 302 338 284 237 172 137 216 276 261 208 207
170 203 213 262 276 253 170 148 155 157 140 144 165 202 246 306 344 392 376 314 293 265 221 198 188 240 292 304 292 261 207 259 283 291 280 272 258 213 252 315 318 302 231
95 107 181 259 349 367 276 182 143 176 195 168 174 199 205 263 330 396 430 339 330 319 289 250 235 210 272 364 374 332 259 274 251 287 250 212 237 303 311 334 317 240 218
75 50 116 244 322 402 364 290 184 152 179 190 169 170 206 231 283 334 392 342 322 352 388 338 298 264 248 348 433 428 377 308 318 266 267 277 273 211 301 373 322 253 218
101 113 166 181 259 327 386 321 240 173 145 159 143 159 161 170 194 268 375 309 276 309 332 355 374 385 336 374 451 456 428 405 373 379 350 397 378 310 270 280 248 191 174
150 153 164 180 200 261 296 281 237 190 146 143 133 140 114 125 142 203 290 281 309 266 271 325 372 389 458 506 483 476 499 511 427 373 377 391 401 390 379 292 231 207 164
145 167 173 139 178 196 227 243 206 171 142 125 127 114 121 133 138 171 273 283 220 252 224 254 295 332 382 492 537 487 572 600 533 465 474 447 439 381 355 366 262 202 178
157 189 172 141 164 144 168 187 186 172 161 159 166 163 169 154 129 117 193 250 222 226 230 228 337 270 297 367 452 464 571 565 582 528 483 495 473 349 337 350 243 189 220
179 167 143 138 134 125 143 138 133 144 155 156 162 159 133 103 92 113 173 274 273 258 198 178 207 207 295 360 469 553 599 629 690 779 626 607 450 430 487 373 341 269 245
217 180 148 118 111 90 93 114 110 81 98 105 100 99 110 132 229 235 162 178 159 240 324 273 246 274 276 335 482 637 756 763 865 855 911 677 616 602 591 574 377 399 217
120 131 107 89 91 80 79 74 69 132 189 115 103 122 127 138 91 25 16 39 119 186 301 300 375 430 481 476 480 538 660 729 846 839 859 847 878 968 753 427 549 458 295
268 258 211 208 287 136 56 109 93 207 151 115 66 44 -13 -58 -35 -47 -48 -29 -13 128 317 378 401 424 483 511 586 666 681 700 765 944 988 928 896 747 484 348 428 370 251
198 288 283 311 369 386 390 346 322 291 262 238 152 82 136 153 101 82 86 62 99 156 217 265 301 341 409 465 597 647 709 704 902 1151 1325 1149 771 256 313 321 360 249 203
310 319 227 251 290 231 232 215 214 202 153 123 118 81 166 228 156 146 174 148 148 167 194 193 253 259 259 257 304 484 682 724 875 1345 1414 1152 376 164 257 278 269 238 251
261 343 358 244 230 245 213 220 184 146 146 93 39 74 79 64 128 159 146 129 141 142 151 164 181 212 175 124 150 150 295 779 1081 1358 1303 391 135 207 225 235 249 243 233
243 322 290 267 250 268 271 278 279 254 212 209 149 64 79 122 114 104 94 99 91 89 86 59 33 53 13 -24 107 307 322 468 545 398 141 74 120 218 260 229 202 237 252
273 300 237 185 178 179 169 175 182 176 182 195 211 154 218 177 142 124 93 72 51 51 61 57 59 43 48 64 49 88 110 -5 101 85 117 164 200 226 244 220 184 171 184
205 187 258 255 215 141 134 165 191 214 224 237 209 161 137 128 149 158 112 101 66 45 35 33 36 31 37 50 65 65 85 137 133 169 203 237 212 199 193 197 199 169 162
66 141 159 202 228 221 224 263 250 296 263 196 184 163 155 164 163 136 108 98 71 50 21 8 30 29 63 72 96 104 120 139 151 162 165 109 133 156 182 162 183 169 163
146 108 157 210 207 215 221 243 236 221 186 152 134 123 124 141 150 129 88 86 98 116 119 85 63 39 91 135 120 80 39 12 23 -2 68 117 172 159 147 162 155 130 137
264 172 147 119 107 137 154 154 158 145 142 139 140 142 149 162 158 151 132 130 124 125 190 228 257 197 71 36 13 2 49 55 107 128 155 169 167 106 129 150 117 136 138

GFSGL_con_3kmhel_033.txt.gz
Helicity
169 129 79 47 75 91 56 21 -12 -1 21 71 160 209 258 234 189 137 90 43 36 31 60 87 45 16 7 32 55 115 103 120 114 101 126 147 239 235 206 179 166 165 128
186 107 48 33 46 99 104 53 38 3 43 30 114 172 204 227 214 204 146 94 67 73 97 115 97 76 56 61 98 123 158 149 152 126 171 205 227 232 236 198 182 167 154
186 116 79 51 52 61 92 100 42 56 23 47 71 181 251 247 240 197 186 165 111 94 119 154 153 135 100 92 117 124 127 155 178 174 167 212 234 263 246 182 151 110 108
185 156 123 96 81 83 74 71 79 61 76 64 86 163 250 333 297 267 218 183 155 119 120 138 182 237 197 160 138 158 179 195 239 248 228 258 235 207 264 230 172 109 58
170 147 149 146 139 117 112 93 94 93 80 83 96 106 192 264 349 369 329 283 232 178 143 184 220 220 261 255 211 187 213 248 268 286 279 254 227 278 258 248 228 162 92
202 196 164 158 145 148 135 134 120 106 105 119 148 168 179 229 280 358 369 332 307 275 229 193 205 257 268 292 277 223 222 233 281 308 291 277 244 226 263 290 260 260 190
243 223 205 186 182 180 161 149 142 122 117 117 137 157 207 225 260 317 356 314 300 327 307 268 240 227 277 285 295 316 267 212 220 323 355 347 309 261 236 303 275 294 317
292 283 242 270 266 243 244 229 172 139 136 139 128 142 159 211 234 270 308 301 283 275 299 313 312 281 279 327 330 336 329 299 225 254 309 311 324 245 257 249 286 328 341
231 271 296 342 326 318 329 341 307 235 168 128 106 112 124 146 203 237 265 246 258 316 329 329 349 331 331 358 365 367 356 377 358 317 292 288 286 284 302 408 447 525 456
192 230 279 295 314 362 394 407 422 380 302 211 149 127 101 86 145 228 272 247 221 243 261 300 344 381 396 443 422 433 435 483 480 412 364 344 348 342 434 438 457 485 527
179 203 217 244 275 316 352 391 432 414 349 258 178 123 107 99 149 196 235 250 254 236 246 259 270 298 303 366 432 433 490 469 472 507 450 400 442 460 428 474 522 488 508
138 167 159 197 214 276 318 314 342 356 320 271 206 163 133 116 134 182 211 227 193 224 249 258 265 274 309 308 383 382 387 479 532 560 551 556 562 587 584 561 514 447 382
164 106 189 230 233 236 224 283 304 307 278 258 199 152 142 154 171 138 174 177 164 192 174 177 185 232 267 285 325 383 401 460 526 552 633 609 663 665 561 575 548 542 458
92 80 192 226 204 197 208 226 247 256 229 210 192 146 132 149 155 209 211 173 130 152 150 181 218 265 262 284 303 276 359 432 545 597 626 627 643 712 697 621 610 599 550
109 110 166 212 190 186 175 175 172 209 166 157 135 142 129 193 226 207 205 204 151 110 112 121 139 183 234 293 368 378 378 390 424 460 516 597 819 940 927 788 674 698 677
113 122 166 177 164 150 111 233 412 310 295 291 267 242 304 229 166 152 94 48 29 30 97 155 183 211 250 290 311 351 418 459 472 488 396 511 704 925 913 872 764 840 718
147 121 101 165 151 182 174 249 346 452 444 301 260 245 224 105 22 -0 -14 -15 38 15 39 73 106 151 188 234 234 274 299 376 413 451 392 391 543 654 1029 1236 1154 951 961
211 264 257 291 287 357 334 315 331 302 310 296 220 114 78 11 8 63 32 -23 83 107 106 127 153 184 188 184 177 171 194 257 269 356 538 380 480 590 934 1007 1617 877 647
245 304 281 272 303 266 340 375 317 303 265 214 178 204 184 111 91 120 128 108 137 148 147 158 172 186 194 239 227 181 203 225 190 144 172 113 501 1028 1203 1187 849 921 315
280 330 338 391 442 504 564 539 539 450 392 324 301 240 208 168 184 182 177 155 146 142 143 152 136 131 140 123 137 126 67 19 -69 -29 119 218 178 536 479 560 798 287 148
342 351 337 365 404 419 473 498 478 478 413 296 234 217 159 162 185 196 188 154 129 133 126 114 113 111 121 133 109 86 70 61 59 -13 29 108 148 -47 18 -57 63 173 112
433 449 374 323 322 345 353 367 374 358 329 289 239 241 269 206 203 194 201 205 186 147 142 98 101 87 83 87 89 62 42 54 43 -27 69 -54 -201 45 172 175 115 76 72
387 392 388 367 314 282 267 249 257 275 286 289 273 251 254 259 255 264 227 217 198 171 130 108 72 67 41 42 41 34 35 42 52 81 137 166 160 157 154 173 12 56 142
281 325 359 330 270 223 192 198 235 265 246 247 250 246 245 240 237 211 191 170 142 132 109 119 124 141 85 63 53 43 36 49 41 60 106 118 169 98 21 31 79 129 162
260 245 213 226 215 219 214 215 219 208 190 184 190 195 192 192 189 178 160 167 173 180 148 125 154 173 190 219 192 133 76 82 56 48 54 52 61 42 90 130 183 178 158
337 287 219 194 215 196 180 150 127 108 95 100 108 134 160 177 186 187 184 188 180 181 192 205 214 268 256 236 222 183 136 93 24 -5 37 77 121 167 186 191 163 152 157

GFSGL_con_3kmhel_039.txt.gz
Helicity
267 197 147 103 75 52 22 7 7 17 16 14 23 34 46 60 68 59 27 4 -6 -30 -35 -20 -13 -23 -24 -21 3 17 45 91 102 35 51 51 110 132 123 153 148 165 132
286 243 161 118 84 44 38 27 25 20 25 23 14 18 24 27 60 84 74 49 36 7 -9 -29 -30 -42 -29 -26 -16 5 15 33 74 66 29 67 100 110 125 177 151 143 164
282 195 136 95 87 41 37 44 43 41 18 18 -1 4 7 16 45 79 99 110 111 78 40 10 -3 -32 -28 -32 -11 6 28 40 57 73 24 12 45 111 117 160 175 168 164
264 185 134 89 74 84 65 44 52 61 54 28 16 21 25 33 33 45 75 104 124 122 109 94 58 26 25 17 18 39 41 46 74 83 102 94 75 98 157 167 182 203 171
212 165 117 162 116 74 55 55 73 73 65 76 43 28 40 49 52 77 87 96 101 113 122 123 108 113 126 112 64 50 70 71 84 94 88 133 162 224 273 259 237 209 204
187 160 157 176 89 87 78 77 87 100 87 86 86 79 94 88 103 147 151 129 129 120 117 135 154 148 138 162 182 172 181 161 150 173 138 150 153 249 239 296 315 314 260
103 97 124 123 128 127 114 91 93 97 103 113 98 98 104 112 134 198 232 176 171 179 172 152 135 137 166 163 150 164 167 237 233 199 193 222 222 271 268 289 336 331 341
164 115 99 103 116 117 117 110 89 83 89 98 91 85 88 100 101 150 219 210 165 182 202 199 188 171 190 213 180 150 132 145 163 194 192 203 242 230 301 339 310 252 211
176 155 149 137 126 118 108 104 104 102 84 87 96 94 88 83 146 149 141 111 120 133 148 187 203 189 193 218 222 196 199 193 195 201 242 217 194 256 309 321 355 410 349
106 152 157 170 153 129 120 90 69 49 47 92 45 70 84 65 103 125 165 162 84 95 105 129 160 173 192 246 279 274 239 219 245 275 288 227 195 191 272 331 320 435 429
136 167 190 161 187 162 168 176 185 175 155 159 122 146 146 151 133 128 121 119 106 106 104 104 135 162 184 232 283 266 257 229 207 226 241 307 361 368 317 353 369 456 478
157 161 183 199 181 218 220 189 217 228 204 189 189 181 190 198 185 181 157 137 92 107 98 116 119 115 145 164 209 223 228 261 271 241 237 253 297 384 476 497 508 534 554
149 145 177 206 236 225 239 236 267 217 210 194 191 188 191 218 211 196 209 180 122 148 143 132 139 136 123 129 122 146 178 183 200 205 236 266 294 313 334 392 461 528 599
198 146 118 156 192 198 208 199 202 173 172 146 154 163 172 192 170 179 192 187 149 174 108 89 113 115 103 103 122 120 144 164 179 184 205 229 241 263 271 327 397 388 461
263 261 215 151 141 210 281 245 192 171 166 172 157 134 140 123 135 199 171 151 145 158 150 118 100 108 112 119 104 87 91 117 156 173 211 219 205 213 203 210 236 268 362
173 175 173 151 157 197 231 249 341 280 252 236 178 146 171 195 206 198 190 179 154 134 138 126 114 119 134 148 154 145 148 172 170 174 183 201 201 198 181 182 192 193 244
101 163 193 184 189 205 220 266 310 362 424 432 320 284 246 155 166 172 199 198 182 141 140 139 144 153 130 123 126 126 120 138 135 163 191 202 210 194 205 213 204 185 191
93 134 159 194 188 201 203 222 226 232 254 294 396 334 358 292 244 223 219 172 172 173 158 156 143 121 115 115 129 119 123 141 184 190 202 220 198 158 147 123 107 80 67
133 133 164 166 194 199 245 300 312 310 311 286 252 282 243 239 206 184 190 150 156 179 165 153 138 129 117 106 104 104 113 154 164 157 173 174 145 122 95 114 88 53 -25
198 201 163 134 145 214 268 321 363 372 352 331 295 272 240 220 219 212 214 206 197 188 178 179 152 132 132 118 117 153 171 173 152 150 135 129 131 118 121 96 83 101 101
165 194 201 221 239 226 236 313 360 369 367 381 355 323 264 222 225 233 230 233 223 213 213 200 175 176 168 190 192 184 187 178 170 145 142 139 112 106 81 66 21 -9 29
210 223 234 241 279 333 387 454 430 412 382 321 300 333 309 281 278 274 269 246 211 183 169 160 162 165 171 178 188 200 197 165 156 134 119 117 115 101 74 65 14 -9 -6
232 213 204 223 309 399 482 517 512 469 424 392 353 331 320 304 290 275 243 208 177 177 178 171 180 190 172 163 160 153 160 158 143 124 101 96 119 106 97 79 53 21 62
258 249 230 270 339 414 503 574 477 437 375 341 334 338 342 323 295 274 241 226 221 212 202 190 193 213 200 189 193 212 202 209 182 133 114 134 151 131 82 109 97 75 69
354 379 378 338 383 474 545 484 429 444 437 399 365 336 300 272 259 250 239 228 215 210 222 217 217 231 235 194 167 162 191 231 222 155 122 124 144 174 132 114 125 95 95
559 599 603 585 548 471 456 420 411 369 329 301 283 255 225 231 230 242 245 251 231 198 181 162 170 182 201 175 197 209 166 195 204 182 97 65 120 144 163 161 154 121 110

GFSGL_con_3kmhel_042.txt.gz
Helicity
218 219 187 191 169 168 80 49 34 1 -4 -13 -21 -12 7 18 30 25 -7 -22 -25 -27 -36 -18 3 -12 -5 -1 4 19 42 60 75 24 39 26 25 53 73 119 121 139 119
228 247 223 216 224 177 128 61 33 25 17 15 3 -16 -11 6 25 34 17 -8 -3 -12 -5 -14 7 -26 -16 -18 -10 20 31 48 58 58 9 22 42 25 39 62 99 112 147
234 237 213 211 221 199 147 114 70 28 13 14 8 0 -7 -8 4 17 27 26 18 14 11 9 19 -3 -2 -17 -10 -11 -2 7 43 59 25 -16 -8 27 34 65 82 121 149
247 240 225 199 209 224 211 198 80 45 17 21 14 19 4 -11 -11 -7 3 18 36 36 36 32 20 13 18 1 0 22 24 23 25 33 27 24 28 44 74 90 85 144 131
253 240 186 221 224 226 203 142 113 57 40 57 46 30 20 -5 -26 -15 -3 8 19 24 30 43 50 60 72 58 14 8 16 8 4 7 32 42 56 78 118 101 117 116 128
253 220 227 223 228 193 182 141 114 62 57 57 48 53 52 32 21 37 29 17 22 28 28 28 39 45 57 88 108 108 83 77 60 64 72 106 133 158 150 171 157 152 141
250 187 192 206 187 164 151 157 52 59 91 59 46 51 54 67 74 93 111 70 42 55 67 56 32 27 52 42 35 77 87 131 160 144 122 158 149 213 210 216 232 241 231
202 155 144 154 139 134 137 106 90 35 63 64 56 55 55 57 71 100 124 111 81 99 107 106 102 84 99 105 76 39 45 89 132 155 182 184 190 183 228 251 229 229 221
184 153 136 146 120 122 113 90 88 86 95 70 75 76 77 47 81 105 113 85 81 85 87 96 99 77 83 128 118 86 54 65 133 190 236 222 200 187 180 176 235 291 310
160 152 153 162 154 150 135 126 129 126 102 115 65 70 85 81 99 104 140 119 45 29 50 67 104 119 134 147 177 157 125 129 141 146 165 168 163 143 175 209 210 294 416
141 128 142 160 160 149 136 132 134 123 107 110 117 109 62 62 66 102 124 109 56 37 64 101 139 146 128 152 192 162 161 146 142 156 163 197 211 202 223 237 298 372 349
137 155 126 146 150 145 133 144 141 148 147 143 135 128 131 126 130 134 155 176 128 109 105 116 121 109 104 109 142 140 128 142 154 143 159 165 160 136 191 249 272 349 421
118 71 115 119 138 152 162 146 148 149 145 151 159 145 132 143 139 143 161 186 152 176 155 141 142 128 127 136 102 115 130 151 140 165 160 128 124 137 160 188 192 206 235
131 115 131 139 161 172 181 169 135 148 151 145 140 138 130 124 124 124 129 148 127 154 87 107 139 133 127 111 122 107 98 121 127 120 125 125 140 147 158 170 178 177 196
172 145 139 160 169 236 271 244 190 198 186 179 152 142 146 115 98 103 135 156 142 129 152 144 124 119 107 108 88 79 116 118 120 130 130 125 120 130 137 133 145 167 178
160 153 137 126 127 154 188 229 282 210 204 196 129 177 209 200 166 162 167 173 170 159 171 156 151 140 130 113 108 115 119 145 135 115 106 113 109 118 123 134 160 154 130
154 162 147 133 152 169 189 228 268 355 399 396 354 317 246 189 201 170 157 187 181 173 171 176 163 132 118 118 123 124 119 105 102 103 106 108 117 125 152 157 148 126 103
134 140 111 122 161 193 194 204 226 244 308 379 458 353 290 247 241 225 196 242 258 258 203 181 156 153 150 138 121 113 108 99 93 95 92 101 134 143 147 134 111 102 84
145 128 129 137 156 174 204 233 255 289 297 248 236 320 312 306 316 325 273 227 228 223 196 186 166 157 155 147 130 109 94 99 97 94 104 115 139 146 127 130 116 83 84
155 205 195 170 173 197 181 214 251 272 276 240 246 246 252 263 266 290 232 185 189 205 205 206 189 183 172 155 142 131 120 108 110 123 134 150 159 133 128 124 110 97 111
169 181 228 233 201 160 173 186 226 276 330 359 356 295 257 275 256 265 221 196 201 204 197 208 212 184 165 165 162 161 153 154 163 177 177 181 162 139 124 113 109 125 99
147 175 190 201 203 187 190 221 259 291 295 324 347 383 383 330 250 232 256 239 238 237 234 223 206 194 181 177 174 175 180 186 186 191 180 172 166 150 133 131 129 158 103
129 113 145 170 206 227 272 285 300 309 339 344 357 347 328 294 256 268 263 262 258 248 237 220 211 192 185 174 159 149 168 183 181 165 173 170 169 149 134 136 141 152 120
181 166 173 172 209 291 298 322 333 377 384 407 421 387 338 315 306 304 293 285 270 245 213 193 182 199 185 174 168 159 150 145 111 119 113 112 121 125 110 104 130 148 133
261 260 286 312 317 365 427 438 472 495 538 527 518 389 321 331 309 302 279 244 214 188 185 171 180 212 222 230 232 231 190 162 119 87 93 111 114 115 102 96 134 131 132
380 356 391 425 451 457 490 497 500 480 505 422 400 349 385 380 333 275 239 218 205 206 207 208 215 209 194 166 189 211 209 218 182 211 110 133 125 113 99 82 108 167 190

GFSGL_con_3kmhel_045.txt.gz
Helicity
50 60 57 27 5 35 3 30 35 51 7 -2 5 -4 -17 -13 -14 -29 -36 -37 -45 -38 -29 -14 8 11 19 18 17 28 42 50 69 49 35 8 20 36 35 49 50 69 86
114 108 110 106 98 89 103 74 71 75 54 6 11 11 -2 -6 -10 -25 -48 -48 -42 -42 -36 -29 -6 -10 6 8 8 27 34 32 44 56 14 12 16 0 19 37 50 61 69
151 118 105 108 94 94 103 99 95 87 53 14 4 4 14 3 -2 -18 -33 -47 -49 -40 -37 -30 -14 -28 -17 -22 -15 -12 -17 -22 -9 -8 -7 -42 -27 -46 -24 7 40 65 101
116 106 131 135 130 105 113 115 102 101 64 23 20 4 7 -7 -17 -20 -28 -29 -35 -45 -39 -28 -17 -26 -20 -26 -34 -33 -45 -43 -41 -28 -21 -29 -18 -17 16 -2 -7 29 40
177 157 151 144 136 125 124 123 110 104 69 44 17 -3 -6 -24 -29 -8 -4 -7 -7 -11 -20 -25 -25 -25 -18 -11 -42 -47 -59 -67 -72 -58 -22 -13 22 34 35 -1 -3 -3 29
203 165 168 169 161 139 134 133 121 99 88 60 30 -2 -2 -19 -15 21 21 3 3 -3 -7 -10 -11 -20 -17 14 31 29 2 4 -2 -2 19 42 72 49 29 25 16 26 56
197 174 172 170 158 139 134 134 115 93 75 63 29 11 -4 -4 -2 24 45 3 -13 -17 -14 -20 -30 -37 -42 -40 -44 -1 11 49 71 52 49 77 71 76 59 69 75 84 100
181 170 162 157 143 128 120 113 103 76 68 64 26 23 0 -22 -15 2 0 -9 -26 -12 -13 -16 -28 -33 -46 -52 -70 -74 -59 -43 -11 33 98 130 117 76 82 81 83 100 142
176 167 172 155 113 102 92 84 73 63 52 40 29 1 9 6 30 47 19 -22 -23 -1 4 1 -4 -24 -40 -1 -25 -55 -44 -11 18 76 100 96 94 94 113 129 144 120 161
164 168 148 116 99 91 88 80 83 76 45 35 15 -21 -5 0 -4 43 50 -38 -35 -28 -24 -8 22 35 40 92 74 20 7 0 7 29 62 71 82 89 119 146 148 185 202
98 117 126 100 87 79 80 73 55 42 35 26 12 6 -20 -11 -10 28 63 8 -22 -38 -46 9 49 84 78 65 120 74 71 53 53 84 85 93 95 101 107 115 160 214 219
111 123 121 110 76 54 60 53 49 47 25 23 15 19 21 -23 7 38 96 104 34 18 31 78 89 104 108 112 114 83 71 71 102 107 103 99 105 134 116 116 130 186 265
70 108 96 72 44 52 37 27 25 34 35 43 54 50 54 55 44 67 100 143 108 110 107 101 103 134 146 117 93 100 121 152 157 123 117 103 95 83 86 84 91 123 118
103 88 76 49 43 32 35 40 41 41 49 44 36 37 54 51 60 69 82 106 106 128 63 74 130 144 129 137 133 126 144 120 153 92 86 117 78 56 63 93 107 120 125
114 116 88 88 74 66 64 94 82 72 73 68 77 75 70 75 79 86 95 96 108 110 141 133 136 133 124 121 124 125 140 145 98 94 100 84 75 72 88 104 104 101 101
188 154 139 128 114 127 164 194 261 249 190 201 139 100 133 192 183 181 171 149 131 165 173 172 169 178 186 187 171 143 115 101 114 106 96 83 83 91 90 98 102 95 120
283 208 227 174 102 78 117 130 154 228 255 302 245 199 202 161 208 232 264 283 256 219 201 209 220 217 193 163 124 112 118 129 123 110 99 89 87 91 94 88 95 105 127
164 169 158 85 51 82 98 108 119 128 166 238 321 276 275 251 251 252 215 222 228 251 215 222 227 202 164 145 137 141 145 136 120 112 101 93 93 93 95 97 125 146 120
189 136 104 113 115 111 117 128 157 187 223 269 299 376 364 401 388 334 283 247 225 243 242 262 234 208 200 185 171 155 141 135 126 116 105 105 103 100 105 126 132 141 127
221 267 182 132 115 123 136 149 174 194 216 243 249 264 270 274 280 319 301 302 296 265 231 209 203 197 183 178 179 182 177 178 160 131 116 114 106 109 119 138 146 157 155
233 222 236 195 189 198 202 193 192 228 262 282 295 286 268 241 293 322 311 292 278 260 232 229 233 211 184 186 194 192 182 171 160 140 121 116 117 125 146 153 168 178 163
177 189 165 155 148 189 214 227 267 300 302 290 248 265 259 252 254 261 283 276 272 260 250 243 215 192 194 195 193 187 172 159 142 129 124 131 146 158 167 169 164 168 167
150 132 149 140 145 156 187 203 264 292 278 236 211 214 193 204 217 246 254 257 242 238 243 247 246 248 219 193 169 148 146 143 132 126 125 134 145 162 181 172 144 156 177
119 83 108 127 110 142 198 251 307 331 308 319 289 247 246 236 225 242 225 214 233 261 277 280 284 274 233 197 176 158 166 162 119 104 95 112 126 146 173 170 166 115 117
77 106 107 126 160 180 245 296 393 374 376 389 387 370 321 296 276 267 293 288 278 277 298 270 231 202 202 208 211 207 176 149 111 101 97 115 148 158 161 172 152 121 77
91 134 132 184 177 235 301 349 386 406 445 433 409 388 362 376 387 403 373 327 312 297 246 228 208 208 195 199 214 222 205 212 196 202 147 158 159 167 155 144 144 117 82

GFSGL_con_3kmhel_048.txt.gz
Helicity
102 94 78 2 -12 13 -25 -26 -28 -13 -3 -5 -10 -16 0 4 9 6 -20 -30 -33 -26 -9 0 14 24 22 19 16 25 29 29 31 20 8 -4 21 8 6 27 54 62 74
113 114 80 83 58 47 -18 -35 -12 -24 -8 -5 -24 -10 -4 1 6 14 0 -28 -24 -33 -27 -14 -1 -4 4 11 13 13 10 6 13 15 -10 -11 0 5 15 14 22 22 37
96 103 78 60 58 64 39 15 23 -4 -3 4 -2 -6 -3 3 13 18 9 -19 -31 -34 -41 -38 -20 -18 -4 -7 -10 -9 -18 -26 -24 -11 -17 -34 -38 -39 -21 -12 -2 6 28
115 97 121 102 73 59 69 67 37 49 49 33 20 4 -9 -6 2 7 11 -7 -26 -38 -44 -41 -34 -31 -27 -30 -36 -36 -45 -41 -43 -18 -11 -19 -24 -32 -15 -8 -15 13 26
150 109 136 134 118 104 92 92 71 67 57 45 43 9 -8 -15 -17 9 11 4 -10 -21 -38 -46 -36 -25 -28 -33 -52 -60 -59 -51 -46 -33 -15 -12 10 13 6 -13 -10 0 46
161 152 157 137 151 142 133 122 106 75 70 63 56 37 7 -19 -11 8 8 -6 -2 -5 -10 -14 -15 -31 -35 -35 -40 -36 -42 -32 -17 -20 1 23 35 34 23 18 20 37 52
167 159 184 165 161 157 153 140 128 95 86 78 67 57 40 12 -8 19 41 -3 -17 -15 -11 -10 -6 -15 -17 -30 -32 -6 -1 22 58 59 61 61 42 49 28 50 59 57 89
148 159 181 180 167 180 171 157 145 109 110 105 83 69 51 24 18 22 37 7 -18 -19 -21 -20 -20 -18 -15 -15 -26 -24 -25 -29 4 42 67 40 34 27 76 87 86 79 97
129 120 155 186 151 153 158 161 138 119 121 99 82 69 48 11 36 48 41 -33 -32 -25 -27 -20 -13 -12 -20 -18 -17 -27 -42 -30 -17 39 52 30 33 62 71 72 101 79 65
105 112 123 152 152 154 171 173 155 134 113 100 71 58 28 -11 -9 17 33 -55 -46 -46 -55 -47 -30 3 -22 9 13 -35 -47 -53 21 34 85 100 42 43 90 130 106 123 158
33 56 97 125 162 141 124 133 130 106 97 82 60 50 19 -13 -55 -6 19 -35 -27 -14 -21 -30 -44 28 51 44 68 28 29 76 50 70 90 97 103 119 115 105 93 148 149
67 56 87 109 111 110 97 92 73 80 79 66 49 28 -3 -31 -52 -44 8 24 -20 -1 -3 -7 36 122 97 67 76 73 49 34 75 79 111 121 105 98 68 82 91 91 121
64 38 62 87 92 82 67 71 69 58 43 23 19 8 0 -15 -34 7 52 71 34 -1 1 96 154 149 123 112 119 118 152 141 134 138 120 103 115 93 82 73 46 40 50
27 31 54 69 86 105 73 53 42 25 6 0 -2 1 22 38 57 83 76 100 85 120 50 82 118 158 183 169 177 139 150 154 155 135 117 126 93 74 57 73 84 87 89
97 93 103 118 105 101 119 147 69 70 76 60 71 72 69 60 66 85 98 85 105 113 113 116 132 138 128 129 130 136 145 159 155 159 108 78 63 89 78 88 80 86 90
190 103 173 160 144 143 117 106 65 134 205 178 213 151 133 201 203 154 147 173 185 174 171 185 169 170 173 170 182 195 178 164 123 82 78 97 99 95 94 91 99 95 96
197 254 176 172 263 335 334 237 234 60 -27 100 207 236 237 161 186 198 211 226 184 208 208 223 234 243 232 212 199 175 147 126 150 97 105 104 100 94 96 102 104 100 106
454 458 83 134 74 66 83 71 52 58 73 53 120 212 221 157 173 200 220 264 268 270 276 258 247 239 211 182 178 170 173 201 173 156 134 110 108 115 121 128 140 133 110
339 144 106 109 180 173 2 17 90 74 58 94 134 249 263 267 261 230 160 182 214 261 241 239 240 244 227 232 203 182 173 154 133 120 116 132 153 137 126 121 120 112 109
240 283 246 169 87 101 117 229 152 162 149 114 184 259 258 253 297 283 302 328 322 311 280 257 247 239 226 173 146 154 140 134 139 144 140 140 130 121 117 106 105 109 132
245 248 259 314 436 394 171 82 159 185 242 274 313 356 328 351 337 312 281 250 251 265 275 241 208 196 176 165 142 119 134 151 146 143 132 117 102 109 99 102 107 117 121
294 271 271 253 164 208 247 241 188 185 226 276 321 337 332 303 281 251 246 233 238 252 232 207 188 160 147 149 156 170 186 191 182 167 146 120 102 103 105 106 99 103 109
183 206 210 194 163 137 150 184 201 195 215 249 282 301 280 289 268 240 244 214 213 186 161 147 172 171 175 194 193 192 200 187 161 135 124 123 118 117 114 101 98 100 116
127 113 169 179 152 133 128 157 207 237 223 228 272 285 273 255 245 249 249 230 202 182 141 147 202 241 244 244 238 219 204 190 158 141 120 107 116 122 114 110 102 114 119
99 214 100 123 136 145 114 129 171 182 187 205 221 241 260 258 257 239 213 186 157 156 161 179 217 230 264 282 268 243 204 173 137 146 114 126 148 150 157 142 145 131 128
130 89 129 97 121 237 190 178 203 225 245 264 275 286 288 282 252 241 215 199 224 259 252 238 257 257 275 262 262 243 202 188 155 148 138 142 147 154 167 156 162 140 131

GFSGL_con_3kmhel_051.txt.gz
Helicity
138 160 146 136 95 91 97 56 14 29 45 25 31 -13 -16 -6 3 6 -37 -16 8 -8 -2 5 6 11 26 24 21 25 22 19 23 16 2 -12 -6 39 38 49 43 71 91
118 159 149 169 143 105 37 57 87 13 39 42 20 35 -14 -0 14 19 3 -16 -2 -11 -10 -2 7 9 10 2 20 13 9 4 6 4 -7 -9 -10 -3 41 90 60 4 18
90 114 138 120 143 119 99 71 67 77 65 24 60 59 29 8 10 27 21 -4 -18 -15 -21 -17 -7 -7 -0 -3 -3 -2 -10 -15 -17 -4 4 -20 -32 -49 -33 44 103 102 88
82 64 106 131 134 124 128 97 86 80 72 61 70 72 48 13 8 8 29 20 -1 -22 -25 -19 -18 -18 -15 -16 -19 -17 -22 -23 -19 -15 -19 -25 -29 -40 -4 38 40 67 51
130 92 121 140 140 154 130 117 97 84 77 78 79 80 68 12 -0 15 18 36 22 -12 -28 -21 -21 -15 -23 -26 -38 -43 -44 -34 -33 -33 -28 -37 -24 -20 -13 -18 1 49 127
164 154 154 162 142 150 159 150 121 99 78 83 83 77 70 15 15 39 43 16 14 12 -7 -15 -27 -35 -20 -23 -31 -32 -54 -26 -11 -27 -29 4 5 -2 -5 -3 18 41 47
130 190 166 197 157 152 171 181 153 128 111 98 100 93 72 55 11 50 71 26 -0 12 -1 -7 -17 -24 -4 -13 -9 11 5 5 42 54 82 94 47 25 -13 47 69 70 69
119 196 183 215 181 179 167 178 180 175 139 130 118 116 105 84 58 47 69 61 7 -19 -12 -12 -6 -5 -2 -0 -15 -22 -4 -2 13 39 90 74 50 25 62 73 52 99 134
109 145 227 215 226 204 198 174 177 178 163 150 132 131 127 94 92 74 78 38 -5 -11 -7 -0 7 6 -9 -23 -11 14 14 16 -26 -13 46 47 54 38 32 74 109 100 104
55 120 179 207 211 228 237 220 200 186 180 171 151 144 137 113 104 99 109 8 -34 -42 -28 -28 -17 9 -4 -24 21 20 27 8 5 22 81 100 94 92 60 120 136 159 150
102 134 138 152 150 180 193 231 228 205 175 156 159 164 138 114 90 103 106 49 -39 -43 -21 -26 -47 18 57 30 53 35 28 100 59 84 122 126 126 125 136 144 119 114 130
131 127 109 99 62 88 125 172 163 149 144 165 147 161 120 92 60 63 80 56 -19 -24 14 -8 -12 -14 85 94 77 52 41 32 76 92 100 86 126 124 96 83 110 111 133
191 165 118 127 73 106 130 156 163 146 118 106 87 86 67 52 20 -4 8 7 -7 -26 -4 84 197 79 154 176 110 102 116 139 125 122 112 121 106 84 69 103 59 59 65
207 157 127 163 106 106 107 112 120 139 114 94 81 58 54 54 48 20 -1 19 -22 20 9 50 96 156 165 175 165 140 128 129 149 163 162 137 88 61 82 83 98 79 94
171 164 167 114 103 101 126 101 95 216 146 73 67 58 57 50 52 55 58 56 76 125 122 97 79 89 89 124 142 161 198 189 175 171 160 141 98 77 83 88 103 94 89
154 182 131 83 153 133 219 294 437 231 161 153 135 124 139 136 132 235 289 233 89 107 96 97 98 124 136 152 181 207 196 179 162 157 140 113 91 84 93 108 110 94 87
172 146 145 149 228 184 182 208 294 315 283 249 195 194 230 210 200 180 293 269 220 172 87 103 161 180 217 212 215 214 189 168 168 158 94 95 97 90 110 85 91 96 99
328 243 172 327 376 321 287 275 307 269 282 288 246 135 171 115 50 80 125 189 227 221 166 198 205 203 209 223 205 185 193 180 177 202 169 128 107 100 104 117 136 144 137
249 295 273 264 197 189 196 194 140 129 137 192 172 156 76 56 77 36 209 165 154 176 177 185 203 253 296 281 294 271 258 263 202 138 117 131 185 163 160 160 156 139 133
410 476 410 206 243 184 175 204 149 124 81 112 143 101 48 61 140 151 236 322 304 280 364 303 350 411 331 288 222 210 182 174 122 120 109 107 113 117 123 134 125 120 117
326 274 297 276 414 401 275 225 184 151 130 119 243 255 22 182 259 272 259 340 394 435 365 344 317 288 206 176 133 124 126 127 114 99 96 104 117 128 123 129 111 97 91
197 207 172 294 251 407 380 213 204 222 393 234 230 142 163 224 253 329 391 349 296 299 303 263 232 220 196 157 146 138 122 134 159 170 170 163 145 121 117 124 120 115 114
227 162 134 157 237 302 284 227 204 129 98 141 187 259 331 383 348 309 284 285 250 229 228 225 189 152 129 128 131 200 225 201 181 170 165 156 149 166 166 122 118 123 126
139 133 120 165 172 174 227 277 227 163 205 305 362 364 325 276 273 255 227 232 198 201 176 177 216 220 198 223 267 232 231 221 191 196 194 165 166 171 151 122 118 121 123
143 113 116 122 125 128 116 162 243 218 213 285 303 322 315 280 228 230 217 210 157 144 196 204 198 239 286 283 258 244 230 255 217 196 159 142 164 145 155 150 134 117 121
212 150 186 226 259 257 189 110 157 238 265 260 287 283 289 266 247 275 276 231 203 205 184 212 221 241 233 238 245 237 226 246 239 232 215 176 202 202 214 166 183 174 145

GFSGL_con_3kmhel_054.txt.gz
Helicity
172 163 163 146 118 79 129 -2 81 -29 40 85 90 81 50 24 10 8 -19 -26 17 15 -4 4 42 16 -24 6 27 23 24 15 26 9 -28 -69 -57 -19 47 92 123 122 121
198 181 169 168 136 110 78 110 54 113 104 82 137 94 67 52 26 24 7 -43 13 11 -3 -9 10 0 2 -9 -28 6 5 -2 1 19 -13 -21 -3 -13 36 93 179 212 177
165 152 161 156 149 101 92 113 112 106 129 108 115 114 105 59 37 38 41 0 -25 13 1 -9 -1 1 1 -1 -3 -8 -13 -17 -7 9 27 0 -2 -7 22 74 190 241 244
181 144 132 143 148 137 124 106 149 144 129 110 114 116 101 77 41 31 54 38 8 -21 -20 -8 -7 5 5 3 -7 -16 -21 -39 -39 -22 -7 4 4 19 11 -11 22 155 109
152 176 144 137 136 153 135 140 122 140 129 121 108 101 109 85 59 51 44 43 36 18 -21 -17 -14 3 4 -3 1 -20 -24 -24 -24 -19 -9 -28 -20 -21 -41 -17 10 131 78
164 218 166 134 148 130 125 147 147 122 122 117 97 93 111 101 72 68 75 38 44 43 10 -12 -11 -12 18 4 -12 -5 -37 -45 -17 -12 7 19 17 -18 59 26 79 110 125
157 174 182 181 156 148 148 133 142 134 134 114 101 90 90 107 87 64 90 81 44 37 41 26 3 -5 3 13 20 25 19 11 42 50 79 86 72 63 57 105 114 132 120
181 180 208 198 203 175 149 139 134 152 134 132 126 116 101 100 112 61 90 104 75 50 43 35 25 8 -20 8 31 31 42 48 37 45 97 89 63 84 136 120 93 117 145
171 147 250 260 259 239 198 164 172 165 139 121 126 128 130 123 135 113 112 96 81 63 45 -1 16 22 29 4 -10 13 23 40 29 93 115 127 137 126 125 153 114 139 149
89 147 167 266 273 276 245 203 176 177 177 158 136 141 155 156 164 166 159 102 97 92 46 19 13 27 30 26 24 16 25 31 12 -36 47 93 109 111 109 170 143 149 152
201 138 149 185 249 282 235 218 203 164 141 131 106 119 134 156 154 182 184 134 114 115 81 77 44 9 23 21 23 8 17 -6 90 111 102 120 111 95 125 172 158 164 145
215 155 160 173 226 260 249 207 192 172 148 141 132 126 133 133 136 165 187 171 147 128 95 75 37 -27 28 60 55 48 25 35 102 106 109 108 95 125 171 120 107 110 129
221 217 141 205 228 227 239 188 189 153 141 155 163 167 162 157 154 154 173 153 97 86 80 91 96 43 13 35 96 120 126 162 145 123 122 114 133 141 111 101 81 87 87
180 253 231 219 229 210 201 138 162 171 157 148 139 158 135 153 151 127 145 122 66 41 21 97 92 64 99 142 177 192 181 149 126 120 117 151 127 122 108 113 91 87 102
199 267 274 234 243 208 172 141 134 136 157 175 166 140 177 117 103 120 171 166 141 133 159 136 108 104 126 150 152 151 134 136 174 174 151 126 129 112 98 100 90 95 122
246 294 287 230 250 238 200 284 342 303 274 233 203 182 259 205 185 125 93 185 220 213 156 149 143 127 138 127 128 207 223 213 179 151 139 133 107 99 100 127 155 133 110
246 247 210 201 208 248 247 340 375 465 429 417 352 285 315 216 182 186 158 200 258 216 156 92 82 81 133 231 218 200 178 171 176 167 130 125 128 111 131 110 87 87 113
328 219 168 178 220 235 237 272 352 422 416 387 371 299 198 153 166 176 232 326 246 213 107 122 148 214 199 178 168 168 174 177 182 223 198 185 196 167 141 155 174 189 200
330 253 240 191 172 216 197 211 259 237 412 352 298 330 306 285 212 157 235 186 155 179 229 235 182 163 163 180 229 272 290 319 337 259 215 207 212 192 192 191 197 178 142
393 414 333 254 242 176 304 319 387 361 275 256 223 235 236 246 178 201 274 310 270 101 127 161 146 252 288 275 243 225 234 250 245 201 209 187 172 163 157 161 151 146 143
371 366 428 478 403 315 398 368 251 286 265 263 178 68 122 149 208 209 218 298 517 245 274 350 364 257 221 215 201 219 255 228 177 171 135 114 115 122 129 150 158 174 157
275 315 398 529 435 505 565 498 354 295 225 304 269 256 318 355 366 360 409 428 618 756 584 340 290 325 298 279 284 280 238 214 219 202 178 161 159 138 133 169 122 133 137
122 97 253 357 371 297 323 326 286 258 331 431 267 217 310 419 432 463 450 443 471 473 403 343 345 325 348 395 366 380 411 354 271 194 182 172 163 188 198 178 146 106 129
158 126 137 153 204 272 240 230 188 207 243 341 435 492 507 507 387 326 240 264 284 359 412 452 447 481 517 424 301 238 252 237 213 193 188 172 182 180 157 113 113 103 78
187 174 266 175 136 113 414 217 192 265 341 392 403 339 278 273 223 217 230 262 262 315 297 312 313 335 347 268 248 246 270 282 242 215 155 142 201 231 253 254 212 178 155
412 326 260 231 250 178 122 158 275 305 302 320 327 357 346 346 348 319 309 214 201 244 197 131 102 146 199 245 278 267 256 274 263 244 236 205 232 242 193 191 191 182 182

GFSGL_con_3kmhel_057.txt.gz
Helicity
139 105 85 76 85 88 32 -33 52 27 73 106 140 117 64 47 29 19 5 -16 2 4 -1 11 29 34 19 9 5 8 7 -3 5 14 -16 -24 -30 -21 13 94 117 178 225
173 140 115 122 120 50 104 38 -7 50 74 113 127 101 71 46 51 43 15 -11 -23 -11 6 10 15 10 11 -10 -16 9 6 11 -5 15 -15 -23 -31 -14 3 23 88 135 194
209 158 133 114 108 78 57 109 68 35 -17 103 145 160 130 84 56 46 37 -4 -15 -33 -5 -3 10 11 17 10 -13 -19 -16 -16 -15 -9 -3 -28 -4 10 18 -16 39 71 125
234 189 158 119 109 99 106 84 129 83 77 49 124 135 188 166 123 74 56 27 6 -12 -21 -19 -17 -1 11 6 -2 -6 -18 -30 -38 -28 -10 -3 -19 -21 -13 -15 -45 34 -2
232 219 195 153 115 104 105 110 83 126 73 106 129 154 127 132 98 91 81 59 37 4 -15 -9 -15 -17 -6 -1 14 7 -5 -11 -17 -21 -20 -26 -10 2 -22 -18 -42 -65 92
239 230 200 181 152 124 116 116 114 113 144 105 75 110 142 104 86 91 82 70 70 64 26 -7 -9 -14 -11 5 7 10 9 6 6 11 -4 7 39 16 -3 -20 -40 108 85
226 232 209 186 173 164 152 138 124 105 122 172 122 103 111 121 105 89 85 57 48 56 59 40 7 -4 -21 -5 7 15 25 25 29 23 31 64 65 50 53 101 90 134 134
286 273 255 213 200 204 191 158 130 125 123 115 132 135 125 115 123 94 86 57 63 62 73 81 61 26 6 11 21 26 37 31 18 18 73 83 80 70 102 104 121 142 150
44 295 328 279 210 205 197 192 186 179 151 135 132 139 130 109 113 113 101 78 67 93 96 92 85 68 61 42 8 40 58 63 46 22 37 63 114 130 121 199 113 102 112
59 181 349 317 271 251 236 210 194 175 154 172 146 141 158 134 136 119 130 126 111 128 116 111 125 146 127 77 25 30 58 66 46 60 59 13 75 70 36 149 142 160 152
-112 14 367 355 319 284 249 236 219 205 186 165 152 146 135 139 127 131 142 138 131 158 151 127 118 109 90 59 63 68 90 72 75 56 27 78 71 42 84 132 157 175 170
79 158 238 361 292 287 305 285 235 228 205 176 166 144 139 135 136 148 153 163 136 169 164 155 156 122 89 48 19 19 17 59 114 99 104 60 47 60 69 97 100 111 136
100 141 222 306 311 267 296 282 277 246 209 194 185 165 144 143 145 157 184 173 144 203 179 170 164 102 79 57 14 38 49 126 128 148 130 112 107 106 103 81 69 86 93
123 100 192 238 309 281 285 278 287 253 213 178 189 178 150 143 139 142 173 177 131 136 179 219 222 167 115 89 87 81 126 168 194 180 149 119 123 105 76 110 106 99 111
69 78 123 226 308 304 332 339 290 252 262 224 190 166 159 166 174 189 228 257 235 181 188 180 194 185 163 140 128 109 118 137 150 148 150 132 102 102 112 122 119 100 112
91 82 102 208 286 314 358 447 569 435 263 127 133 154 164 162 126 139 156 253 224 231 234 189 163 153 145 146 160 163 172 153 136 164 126 116 108 117 111 135 114 109 105
98 134 113 184 310 353 335 341 356 423 381 329 146 106 144 188 183 166 155 155 245 366 212 202 195 188 172 164 151 177 212 195 189 139 113 110 132 147 148 134 139 157 204
129 173 144 196 280 308 325 317 345 385 386 329 375 356 404 257 288 232 184 240 284 260 249 209 166 131 135 148 159 173 170 151 137 132 141 160 186 225 244 255 254 222 199
166 155 144 206 194 235 286 315 376 372 397 379 354 449 468 392 300 240 142 172 218 296 282 263 274 211 179 175 101 123 131 153 171 196 209 215 225 251 241 230 201 188 156
223 208 158 166 154 168 199 298 380 361 394 417 364 367 397 411 367 297 243 228 295 364 358 348 363 334 213 295 51 -81 19 92 175 200 199 208 233 215 195 212 216 180 166
247 219 270 285 235 207 219 306 346 407 427 427 377 345 288 306 320 308 286 332 407 455 415 394 373 337 276 348 574 482 88 98 142 171 204 194 166 146 124 145 177 178 164
250 301 320 364 426 543 448 460 602 756 593 474 351 305 278 281 322 346 349 333 338 309 342 401 442 395 395 400 363 324 256 260 334 292 263 247 205 189 172 174 165 140 135
295 230 346 398 461 487 470 570 482 508 354 87 228 274 262 262 235 313 373 397 413 500 562 559 579 561 500 499 466 484 461 358 259 222 213 232 273 239 202 181 135 100 100
318 330 318 469 423 435 438 477 500 532 542 590 294 357 249 246 242 253 330 372 450 528 576 569 484 457 436 385 336 329 306 260 246 176 174 245 342 352 256 216 180 139 116
447 394 304 267 305 335 450 501 525 432 474 470 462 481 367 322 293 318 331 410 415 497 501 471 437 454 388 335 344 315 331 331 241 235 224 297 331 276 237 226 220 234 213
202 235 244 271 305 257 278 327 284 278 333 376 373 377 386 390 425 429 352 327 380 421 444 380 328 353 360 343 289 258 335 346 355 361 285 302 285 264 250 273 307 294 247

GFSGL_con_3kmhel_060.txt.gz
Helicity
220 222 130 23 -22 -33 -66 -55 -41 -51 -25 13 33 74 40 19 12 1 -19 -19 -14 -14 -11 3 12 11 9 9 6 -11 -9 -21 -7 3 -10 -15 -9 -18 -16 -29 -5 83 148
291 257 175 145 48 -22 -62 -69 -67 -43 19 23 62 93 72 30 21 16 -9 -25 -27 -17 -7 -12 17 24 21 -8 -7 -8 -11 -23 -29 -19 -36 -42 -50 -38 -37 -18 -29 0 10
334 296 237 137 112 -2 -25 -56 -47 -53 59 77 89 80 88 53 33 21 15 -4 -14 -27 -31 -20 2 10 17 19 8 1 -7 -11 -15 -13 -10 -24 -40 -49 -51 -51 -25 -50 -79
308 314 274 224 148 102 70 16 -23 -25 -43 51 86 101 111 93 68 43 26 13 -8 -26 -46 -54 -26 -18 6 8 13 8 -3 -9 -16 -18 -16 -20 -35 -39 -4 15 -17 -38 -47
273 260 192 241 249 201 156 116 54 15 -17 53 99 79 77 81 69 67 47 36 13 -20 -43 -51 -48 -39 -11 3 30 10 8 5 -1 -10 -11 -13 -14 -14 -19 25 -2 -12 -35
242 234 249 179 270 235 212 181 164 74 40 58 124 106 130 109 90 104 91 33 19 9 -18 -38 -40 -38 -29 -17 -7 -1 7 17 23 29 19 15 20 33 45 20 11 24 62
185 153 209 261 182 219 230 196 153 124 109 9 78 114 84 124 141 124 105 65 8 11 17 -3 -32 -21 13 -27 -5 11 11 7 20 77 42 55 65 66 55 29 24 122 108
246 163 167 223 252 217 235 195 164 147 131 118 101 112 104 95 104 108 102 93 46 11 25 35 25 -2 23 52 49 38 36 31 28 51 61 87 84 72 120 43 97 96 111
203 297 190 205 275 339 233 205 188 168 146 136 129 116 108 84 101 90 105 103 56 13 28 20 27 29 50 65 63 45 50 35 23 1 17 25 20 29 54 121 53 84 92
94 218 180 163 132 265 267 249 207 190 144 129 120 141 135 124 139 116 119 110 63 67 65 49 36 61 91 103 94 98 75 67 85 76 59 42 28 23 -20 135 117 119 119
25 55 162 57 45 143 250 277 261 215 177 151 127 128 129 136 109 118 126 107 62 90 89 85 96 94 94 118 127 121 129 137 138 111 71 41 26 39 73 104 132 153 141
305 81 83 6 -30 56 193 257 261 259 218 190 183 157 152 147 131 134 143 155 97 112 115 129 118 117 132 127 136 111 102 161 139 87 68 53 79 74 69 64 91 106 109
123 214 104 -11 -34 110 205 222 325 291 259 222 199 169 154 158 155 134 159 169 124 150 128 141 141 132 119 106 68 77 112 92 80 88 87 99 147 107 75 75 80 89 91
-108 14 -39 -9 49 163 286 318 376 359 317 262 214 190 170 161 162 153 153 159 113 134 116 154 174 181 155 126 101 88 103 114 122 119 113 127 127 121 112 113 98 110 132
58 37 29 23 91 139 223 324 351 295 297 249 184 252 242 200 203 205 195 199 186 169 168 159 196 232 220 185 166 132 121 94 91 99 108 102 108 117 90 106 101 121 130
24 32 59 52 90 119 149 282 445 378 220 209 263 253 224 181 188 167 162 187 193 222 248 184 182 186 187 188 198 185 168 138 125 113 110 115 116 102 70 79 115 119 137
-23 10 36 80 84 110 154 231 296 375 387 370 281 209 178 182 143 117 118 153 213 353 196 185 180 190 172 186 218 192 151 131 144 138 129 138 108 83 80 94 119 154 171
-5 -11 9 46 61 70 157 180 256 314 341 337 380 298 213 148 106 95 167 300 252 194 171 175 171 180 229 226 194 165 175 207 192 144 90 64 73 87 119 135 163 217 235
-3 -24 -8 -12 10 46 152 210 252 283 308 333 438 368 335 231 180 181 225 212 209 166 181 213 236 248 245 275 272 278 314 362 400 311 156 12 103 110 118 155 216 224 220
19 59 65 31 32 78 186 236 270 262 278 327 336 340 378 371 256 249 208 157 188 196 235 267 312 331 329 329 340 328 288 233 263 395 468 369 218 111 122 167 187 196 191
62 83 116 94 111 117 162 174 196 210 225 249 242 310 375 378 356 360 271 263 241 241 272 307 335 353 350 389 371 304 238 235 278 372 487 511 314 314 182 132 185 197 171
175 171 162 147 165 146 231 282 339 363 350 428 425 408 474 583 499 359 271 272 336 370 399 475 513 472 428 369 318 309 356 387 364 346 412 392 271 178 150 154 187 190 165
185 185 271 307 327 339 355 388 423 460 448 474 448 438 403 425 354 305 262 253 257 404 474 488 434 385 370 361 387 379 356 308 240 189 180 186 244 216 206 207 203 181 122
389 421 432 406 505 493 510 573 658 612 552 523 480 437 433 368 304 256 296 343 351 353 385 412 418 410 397 392 397 344 329 306 252 249 251 231 230 265 232 212 191 138 126
457 440 492 504 567 649 658 615 644 627 786 739 628 606 626 563 619 589 514 357 369 392 427 444 445 453 461 433 383 314 283 252 217 176 202 210 220 226 247 247 216 200 191
329 505 511 384 427 391 605 954 815 644 578 629 723 804 758 721 582 566 487 539 543 500 502 482 426 416 367 393 305 279 356 391 322 208 238 229 238 231 204 209 223 222 226

GFSGL_con_3kmhel_063.txt.gz
Helicity
242 197 163 147 88 110 -31 -30 -27 -17 -23 -15 -8 5 24 19 16 12 -5 -18 -16 -25 -28 -24 -15 -19 -12 7 4 7 3 -3 -8 8 -9 -17 -16 -19 -23 -51 -30 -28 -19
298 255 195 182 170 159 -9 -30 -44 -37 -27 -28 -24 -21 5 45 23 21 10 -13 -13 -21 -20 -22 -2 -4 16 22 8 1 -9 -2 -5 -11 -25 -27 -41 -51 -55 -47 -38 -29 -64
297 276 237 167 181 149 141 148 64 -17 -39 -25 -22 -14 2 46 57 33 27 -3 -22 -17 -27 -20 -9 2 18 16 8 -2 0 -6 -11 -21 -32 -44 -52 -38 -40 -38 -32 -50 -60
232 249 226 223 175 154 161 160 170 138 17 -6 24 25 9 8 29 54 28 18 -7 -29 -36 -43 -34 -26 0 10 9 10 10 2 -1 -10 -19 -16 -19 -4 -1 -17 -37 -4 -6
151 149 199 195 194 167 139 147 189 184 147 141 124 115 84 73 15 22 29 16 10 -2 -22 -36 -47 -50 -30 -3 28 22 20 24 15 5 2 6 3 3 -2 45 12 8 6
92 110 154 203 200 187 185 163 139 154 165 185 156 133 123 98 43 41 48 27 7 6 -10 -17 -27 -52 -56 -37 -5 18 28 38 28 29 24 20 32 48 74 42 30 32 14
118 137 185 215 230 232 220 207 171 146 145 157 158 150 119 105 61 28 51 32 11 6 10 -14 -37 -45 -37 -57 -38 -31 17 21 35 63 41 53 67 96 87 60 49 53 62
121 128 133 175 220 232 215 223 205 180 172 157 143 168 165 143 96 58 51 44 9 2 2 -7 -17 -32 -21 -13 -2 8 83 71 68 94 99 77 105 108 124 84 67 67 79
87 60 62 161 229 243 245 222 204 192 168 156 146 148 166 153 147 126 132 95 42 2 3 47 24 -7 13 25 -13 -42 -30 -17 68 68 82 61 67 42 78 95 81 85 73
119 40 57 116 169 235 242 217 212 205 192 188 154 150 138 130 158 168 199 191 103 80 88 79 20 16 47 61 65 47 -14 16 83 87 105 91 53 40 58 113 111 98 108
12 -18 42 48 144 147 185 210 194 203 184 177 182 157 130 142 136 161 182 179 117 107 82 80 77 58 57 71 108 75 58 74 86 110 108 97 64 64 78 104 109 126 138
122 39 72 101 85 123 109 92 126 185 200 188 188 193 181 150 140 147 176 178 138 136 112 96 89 79 87 91 126 97 81 111 132 124 110 73 57 71 99 104 96 115 132
111 125 165 94 102 89 63 67 102 165 219 209 197 203 178 168 164 157 186 193 152 171 137 109 86 77 78 95 101 108 125 142 125 107 69 76 98 118 85 75 89 95 95
63 93 91 83 148 116 116 72 65 139 220 222 190 150 155 163 164 159 179 203 151 162 117 136 139 137 130 120 129 123 147 157 151 115 91 87 90 99 96 108 89 110 82
-69 48 83 19 58 177 111 78 80 132 209 259 243 242 241 217 228 259 257 260 227 175 164 131 116 138 111 122 140 137 157 163 147 135 114 86 86 105 94 114 109 100 91
-117 -18 37 73 69 201 117 72 189 189 179 199 213 220 207 194 206 196 224 240 239 251 231 181 166 146 136 135 140 138 176 172 156 153 125 106 110 124 126 131 116 103 98
-206 -156 -53 53 95 129 18 22 59 113 205 227 175 122 150 221 210 195 190 176 211 325 229 206 203 213 181 178 181 184 181 205 222 185 166 154 171 176 172 155 163 148 115
-123 -190 -93 -26 40 39 47 49 45 -43 27 87 158 172 125 177 211 201 205 296 236 223 215 207 207 202 207 218 203 208 215 200 185 168 161 172 202 200 236 223 210 244 191
30 -171 -100 -25 38 49 24 24 46 36 73 140 224 224 245 233 257 258 250 207 176 189 223 216 199 201 205 206 210 218 235 232 205 204 200 165 137 167 160 232 292 292 334
53 24 -49 1 13 43 56 55 46 131 134 168 211 180 257 319 281 257 288 242 199 169 187 187 191 211 204 211 222 205 217 227 239 278 285 251 202 201 201 250 347 343 270
37 93 163 88 8 36 52 68 61 141 204 201 192 216 239 233 183 202 260 236 235 200 193 193 201 235 246 230 246 256 265 267 295 315 264 223 228 217 242 259 291 273 303
78 54 135 122 52 78 85 110 114 174 214 232 272 241 173 185 229 294 313 318 322 323 300 339 345 331 358 334 296 295 260 225 203 205 194 216 237 267 277 268 244 224 220
54 101 115 139 90 113 148 173 182 232 277 309 313 315 277 301 369 423 474 484 460 418 337 363 375 394 352 349 332 249 173 182 192 192 220 218 236 257 231 214 195 180 163
114 320 188 198 281 287 323 319 356 351 316 374 367 394 445 486 539 547 537 582 604 487 476 489 495 461 452 452 380 354 304 252 281 279 234 204 208 205 207 240 182 182 216
202 267 310 319 318 370 436 508 553 592 603 665 688 726 720 701 684 644 655 604 614 633 639 647 651 625 599 556 529 391 342 338 305 302 253 258 259 240 232 233 215 193 192
217 230 386 427 414 353 467 574 599 660 730 763 833 831 847 868 856 765 642 643 629 678 741 820 916 966 832 754 739 705 552 432 364 353 309 265 240 233 230 227 209 222 223

GFSGL_con_3kmhel_066.txt.gz
Helicity
145 182 112 59 40 26 28 19 -23 -6 -20 -16 6 10 2 8 8 18 15 1 -1 -9 -8 -5 -5 -13 -6 1 -2 1 -2 -3 7 5 -11 -18 -21 -15 -21 -31 -23 4 -27
219 208 173 118 100 28 16 35 34 -9 -2 -20 -14 -16 -9 -7 -4 12 15 9 9 -2 -8 -8 -4 -9 -12 0 3 2 -1 -9 -2 -6 -15 -19 -30 -33 -37 -32 -8 -3 -19
187 184 192 178 144 96 66 95 30 23 -16 -31 36 -8 -17 -15 -10 10 29 10 12 2 -15 -14 -1 -3 4 10 16 16 8 6 1 0 -5 -7 -22 -32 -25 -3 3 -9 17
122 149 163 186 172 126 133 128 97 78 15 3 19 -9 38 3 -32 -26 13 28 9 3 -13 -20 -17 -13 6 11 14 18 15 10 11 8 5 -6 -8 -3 8 1 1 32 19
159 178 170 170 168 163 137 144 137 112 82 114 139 88 81 77 57 0 0 9 25 5 -17 -22 -23 -22 -23 -9 18 21 17 18 18 17 11 14 16 18 11 38 29 16 17
127 166 150 159 175 168 157 149 157 137 118 130 147 142 128 106 72 57 67 42 35 12 -18 -25 -21 -25 -25 -20 -25 2 25 24 19 40 34 27 28 41 47 51 43 13 -11
96 103 200 181 142 138 148 152 144 156 155 138 126 150 156 143 123 93 82 90 75 31 35 -15 -33 -32 -19 -37 -40 -47 -52 -37 55 65 42 55 46 69 69 63 53 43 39
121 72 126 220 142 135 126 144 147 150 167 170 147 148 157 163 157 119 117 125 116 82 59 33 -5 -7 14 -3 -40 -75 -77 -73 83 101 112 91 92 90 94 77 53 49 45
154 70 56 99 143 134 138 152 156 161 163 168 163 157 152 140 163 144 179 156 123 68 136 110 74 12 21 46 4 -59 -76 -70 65 29 43 54 89 96 112 84 59 48 41
241 122 71 65 106 138 145 150 159 178 154 153 158 173 169 136 153 156 175 161 137 129 134 147 103 70 87 99 88 66 -42 -26 35 25 32 36 58 68 88 82 65 73 70
169 174 163 102 91 86 113 145 148 184 172 142 117 129 145 170 147 155 161 163 144 136 126 126 141 113 88 118 137 110 60 71 59 54 48 49 61 75 82 96 99 116 99
43 89 132 141 116 76 93 132 166 203 215 188 151 108 115 135 146 152 159 163 132 146 142 135 130 122 99 88 127 88 72 124 111 86 81 63 67 77 74 77 104 126 125
95 64 53 108 110 59 66 82 103 155 168 178 175 163 129 115 133 144 173 166 136 169 142 134 130 109 99 99 93 110 116 124 121 119 112 87 92 90 90 103 91 83 98
51 43 12 68 87 30 42 64 85 152 171 157 181 170 152 142 144 149 166 176 121 131 114 127 133 149 130 123 128 119 141 153 160 150 129 112 102 96 93 94 87 93 129
-38 -21 -15 -9 20 41 32 47 89 105 136 179 209 183 174 158 175 194 194 200 183 146 151 128 115 140 121 96 105 119 127 164 179 172 152 122 105 98 92 85 86 122 166
-67 -41 -64 -54 -12 28 49 38 32 70 79 72 165 182 168 166 164 166 169 202 210 283 242 164 155 150 136 113 110 116 149 188 185 194 183 160 133 121 110 105 108 153 164
-9 -19 -17 -73 -37 -7 27 41 55 67 94 69 98 175 188 198 165 147 140 147 198 316 208 182 208 224 197 162 132 132 144 167 160 179 194 205 190 176 186 146 140 148 159
43 26 -4 -61 -64 -19 -15 4 68 98 141 97 78 123 115 162 199 198 174 244 223 249 196 178 180 224 214 198 174 172 166 167 177 184 191 209 210 228 204 181 161 132 139
134 109 44 -33 -86 -26 6 4 86 150 100 101 101 134 117 76 125 190 235 242 207 201 233 209 182 168 212 203 169 164 157 164 169 175 181 199 201 234 212 168 179 159 161
145 137 83 12 -98 -36 3 5 39 153 139 81 95 134 198 198 176 182 276 270 203 181 197 202 185 199 209 200 190 196 186 172 190 184 165 182 214 252 258 225 143 129 151
65 148 179 96 2 -8 9 16 29 96 108 111 70 71 159 185 92 130 197 233 242 208 192 195 212 194 176 184 194 180 180 184 195 216 249 247 251 230 191 153 176 170 193
53 58 151 183 103 51 34 91 21 100 116 114 57 54 131 151 72 138 148 154 175 211 234 242 262 235 195 205 212 202 200 202 232 265 264 249 187 166 133 167 219 213 238
78 69 85 125 131 141 108 101 65 91 120 104 98 105 145 169 229 277 327 355 371 380 403 426 383 404 347 315 291 243 259 269 251 239 207 164 143 153 139 163 219 306 305
62 59 54 61 85 120 111 140 88 100 120 140 115 155 222 372 421 424 434 426 434 449 466 487 532 491 412 431 457 487 500 412 309 265 265 407 162 182 199 251 255 252 248
63 76 57 62 65 94 145 159 169 243 312 263 301 390 425 525 549 549 521 522 553 575 616 646 685 564 556 571 539 538 559 571 470 507 392 290 366 240 250 267 280 290 262
98 97 111 113 161 193 212 240 287 369 366 411 455 523 572 635 641 671 676 669 708 709 712 694 636 627 681 723 662 685 720 721 690 611 615 675 673 596 384 378 378 335 298

GFSGL_con_3kmhel_069.txt.gz
Helicity
75 92 76 50 16 30 24 17 10 5 12 -2 -8 -21 -23 -9 -1 5 7 14 15 4 1 8 14 14 19 16 16 14 18 17 17 27 8 -3 -20 -14 -17 -19 -16 -17 -35
81 122 95 104 49 22 38 15 4 8 16 10 -7 0 -12 -22 -15 3 1 6 10 6 -1 0 8 13 11 13 11 18 19 17 19 16 18 6 -3 0 -19 -23 -14 -1 3
74 90 92 56 68 41 38 47 25 6 5 9 17 12 11 -21 -28 -17 -6 -7 -5 2 -2 -2 3 9 19 27 19 23 19 16 10 12 14 14 10 5 1 -8 -5 8 32
8 52 74 108 87 58 41 45 51 50 25 6 10 17 14 0 -36 -34 -27 -16 -7 -9 -9 -8 -5 12 17 23 32 35 36 36 22 19 22 23 17 20 6 2 15 19 16
35 29 33 64 114 124 103 74 55 53 61 42 16 7 16 18 26 34 41 -14 -22 -18 -19 -17 -12 -12 -7 16 34 36 48 46 45 37 30 29 26 28 23 22 25 40 33
80 59 54 50 59 76 98 121 95 75 65 78 56 33 -5 -6 -13 75 72 53 36 27 -15 -20 -25 -16 -17 -11 -13 -21 35 45 48 53 46 43 39 34 40 44 34 49 45
94 46 57 65 59 84 85 90 83 81 73 73 74 75 69 44 71 65 80 74 68 63 51 35 -35 -42 -4 -20 -10 -6 -26 -5 34 52 45 43 44 45 49 50 54 59 51
146 41 38 43 27 63 105 102 102 83 76 67 54 67 86 82 106 105 100 61 81 72 67 66 55 37 22 23 2 -32 -24 -7 52 75 62 48 52 60 65 62 72 57 50
267 120 92 49 40 73 146 120 92 74 69 67 59 55 59 66 96 119 142 77 57 68 84 83 81 67 67 75 44 -13 -34 -32 45 28 11 33 27 28 44 69 61 51 47
197 256 117 96 70 69 131 164 121 91 76 71 58 65 70 61 80 112 144 91 95 66 64 77 85 72 107 137 111 86 13 38 63 59 47 42 21 15 81 103 70 31 5
292 228 234 162 72 61 87 114 105 89 90 76 71 75 75 71 68 116 147 114 105 104 75 76 72 113 99 170 176 106 102 92 74 68 51 56 77 92 103 119 96 74 52
213 245 217 188 144 73 69 70 104 95 107 110 101 86 69 39 45 78 155 178 122 108 102 88 96 132 142 152 167 102 76 120 92 103 95 95 105 108 106 107 100 83 61
75 93 112 82 59 85 81 72 76 70 141 124 120 108 90 68 27 47 101 147 121 132 97 88 94 109 122 121 119 116 109 104 113 122 133 122 114 102 111 114 112 97 85
84 45 54 40 57 42 52 75 88 95 102 130 132 126 103 92 80 72 82 90 95 100 56 74 79 90 82 76 86 99 114 128 146 149 148 139 134 135 127 106 111 111 119
36 53 13 37 17 72 40 42 66 62 89 118 98 106 89 77 71 79 86 108 123 100 86 76 94 107 93 87 94 107 119 138 164 166 164 159 152 136 129 125 125 116 132
17 33 33 6 17 32 49 32 9 22 20 56 112 108 92 80 97 103 129 119 142 188 168 102 104 117 125 131 127 108 113 121 134 149 157 155 146 140 127 121 127 134 125
98 48 78 0 9 11 29 30 42 28 -3 32 65 101 98 88 52 143 162 152 170 242 143 144 144 141 150 149 107 100 99 88 91 105 118 136 142 128 134 134 138 134 143
184 148 86 84 42 40 50 57 51 42 45 39 16 48 53 69 85 114 185 245 154 169 125 132 176 189 180 181 155 131 143 129 134 104 112 131 138 136 137 146 159 133 113
126 148 118 64 68 86 110 71 85 50 12 40 21 20 56 78 76 110 193 179 114 93 149 150 156 179 188 175 174 167 132 142 142 127 114 114 139 187 189 168 156 153 168
94 157 161 128 77 76 105 101 80 32 23 20 25 31 49 104 108 129 180 166 71 84 117 124 134 158 181 183 198 202 181 161 151 157 166 177 166 191 199 192 199 269 285
54 74 93 123 128 128 121 144 148 48 19 13 35 40 102 122 97 144 146 161 168 107 131 162 165 153 162 158 179 212 198 212 184 180 187 191 202 212 198 235 248 233 190
46 60 88 107 122 169 173 180 160 137 72 44 15 35 31 129 107 84 119 175 157 144 144 183 203 202 204 202 201 202 194 191 198 217 219 250 269 265 257 265 224 226 263
50 59 64 69 82 89 96 110 157 187 180 141 69 32 40 70 92 92 171 239 242 270 296 263 246 372 381 372 366 321 221 203 229 250 249 248 246 244 224 224 234 237 283
82 67 89 79 76 82 90 90 83 127 183 122 44 45 59 72 154 188 242 244 248 272 285 286 316 270 293 318 318 324 331 326 336 258 244 251 234 230 222 200 158 175 274
75 55 33 42 55 107 95 98 77 91 118 95 85 94 142 220 243 249 275 319 341 348 328 311 316 302 318 347 381 410 457 466 413 407 395 414 438 441 427 376 316 338 314
80 90 50 14 3 42 70 76 61 53 53 108 202 267 294 322 251 279 313 380 437 471 469 483 492 454 465 483 486 595 662 735 675 646 580 577 609 607 579 585 692 721 619

GFSGL_con_3kmhel_072.txt.gz
Helicity
27 36 28 30 27 28 38 21 14 15 14 6 3 -11 -14 -15 -13 -7 4 1 -1 3 14 11 5 17 21 21 33 49 45 27 19 25 19 -7 -5 -11 -10 -13 -30 -43 3
32 36 36 39 33 28 33 42 20 15 10 5 17 -2 -16 -20 -17 -13 -9 -10 -7 1 1 6 8 -0 5 21 26 32 43 50 21 9 11 -1 -12 -1 -15 -20 -15 -3 21
25 27 31 44 47 33 31 27 41 20 9 8 9 14 -1 -12 -20 -14 -9 -10 -13 -8 -2 -1 5 12 15 21 32 40 37 35 30 1 12 10 13 -8 8 -26 9 28 41
50 22 25 32 41 33 35 37 31 37 25 16 15 12 15 3 -12 -20 -25 -16 -13 -13 -10 -8 1 10 19 28 35 44 51 58 46 40 35 40 42 51 35 12 26 36 51
239 90 28 44 49 47 32 41 33 35 36 29 29 24 14 9 2 -16 -18 -23 -22 -21 -24 -20 -16 -12 26 23 32 40 51 52 59 63 66 61 57 67 70 43 38 50 45
189 116 174 83 69 72 58 42 54 42 42 43 46 44 28 5 -7 37 1 -14 -21 -29 -33 -20 -23 1 -17 -5 1 -26 36 48 47 50 54 64 71 60 56 57 63 54 51
241 200 84 114 108 83 85 77 60 57 57 64 58 63 67 57 37 81 74 -18 -16 -35 -12 -12 2 1 42 -6 16 3 -18 -18 -5 20 28 47 46 60 60 64 63 62 52
287 285 248 97 89 127 101 83 69 75 84 85 71 76 90 86 88 82 89 45 -8 -39 -12 -6 19 22 68 62 29 17 27 21 51 44 27 2 12 29 21 35 73 71 61
218 274 231 283 153 96 60 53 70 91 99 108 95 79 88 85 111 119 131 53 3 -1 17 37 38 47 60 117 77 58 46 39 69 79 32 -2 -0 -17 3 -39 46 18 20
140 177 212 252 279 315 88 59 54 86 110 136 114 90 78 69 94 123 149 94 85 61 62 50 54 43 85 126 117 99 93 102 83 39 82 17 -7 21 26 80 80 56 24
132 159 181 261 398 214 119 42 54 63 93 107 111 106 89 76 67 114 146 112 115 115 102 101 84 131 118 114 170 112 115 118 99 79 54 55 59 76 91 135 124 90 48
74 54 130 166 171 179 119 87 116 72 78 94 107 99 86 73 75 94 147 143 112 115 102 91 95 126 160 158 180 107 84 136 86 56 62 74 78 87 90 117 162 148 89
30 102 12 125 120 192 234 197 164 161 86 83 108 95 88 101 81 69 130 140 112 105 87 79 92 117 99 113 110 129 137 102 75 97 118 123 123 100 115 123 162 179 144
47 25 79 20 119 124 138 127 155 161 114 77 100 105 89 94 98 80 93 111 116 127 80 52 64 90 111 93 84 91 126 148 166 151 148 142 134 128 125 119 100 100 107
67 71 50 65 37 46 57 76 96 74 130 142 134 82 83 79 83 104 105 106 91 93 104 99 79 85 94 94 104 108 124 153 186 177 171 152 132 123 116 115 101 94 91
158 78 70 79 44 40 30 88 18 15 51 124 69 38 98 112 132 157 113 92 114 116 100 113 84 71 86 99 112 127 132 136 138 136 138 135 133 132 119 113 105 97 96
153 163 87 91 92 73 52 45 66 36 -13 5 63 64 63 125 103 73 83 101 102 177 159 109 90 69 76 91 107 97 94 113 115 103 118 129 122 118 115 109 114 120 131
118 153 143 85 63 80 68 74 56 56 40 34 25 43 63 82 109 142 99 71 86 158 138 130 90 61 60 84 94 102 87 94 119 124 128 127 129 125 119 120 122 128 112
120 131 144 149 91 67 83 81 101 47 42 39 42 49 42 37 55 56 50 118 107 114 131 145 128 81 75 105 146 130 117 115 123 127 135 124 120 120 124 132 141 155 147
119 152 144 151 126 87 65 96 114 45 50 48 33 49 56 65 28 18 52 118 109 105 100 98 147 108 99 87 93 112 133 150 169 162 144 141 153 147 131 123 124 131 148
100 120 123 147 132 116 71 109 148 119 62 50 52 69 79 82 73 55 38 66 88 68 86 86 81 119 115 101 115 133 133 115 145 177 173 168 163 180 188 195 193 180 179
80 109 134 136 120 90 98 81 97 90 101 53 81 108 130 90 65 54 61 48 55 73 106 99 77 63 64 92 122 104 93 124 172 192 198 213 223 190 194 216 225 237 232
74 96 116 135 114 79 74 100 89 98 113 112 93 74 92 104 57 25 60 75 110 162 167 172 185 137 230 223 238 245 193 163 155 187 216 219 244 251 262 251 263 268 256
55 78 90 102 93 80 64 67 102 93 107 105 98 106 97 102 101 37 64 107 112 129 151 178 219 239 204 207 229 224 238 241 241 251 208 241 248 264 277 295 280 245 257
42 52 69 101 114 115 70 54 75 86 107 109 100 110 122 173 154 98 56 119 115 147 180 190 207 250 280 288 277 272 270 248 228 245 282 302 258 255 275 335 362 474 473
47 101 81 89 91 74 77 71 85 90 97 118 136 147 140 96 104 57 95 141 179 187 188 254 216 240 275 300 282 290 326 346 369 468 410 460 493 525 565 589 576 594 633

GFSGL_con_3kmhel_075.txt.gz
Helicity
36 27 19 12 14 19 26 26 22 26 49 11 33 14 9 12 27 -1 -20 9 -16 0 1 15 -19 21 64 33 -19 14 31 27 10 33 58 23 -11 -32 -8 -20 -30 -11 122
54 46 30 25 19 25 27 32 32 25 23 22 23 16 12 2 1 16 6 -2 -11 0 -1 2 1 -7 -10 8 61 58 64 81 47 14 3 -9 -36 -19 -6 -14 -5 17 35
59 46 46 43 34 23 34 26 44 42 27 16 32 23 13 1 -2 0 13 -4 -5 -6 -6 -7 -4 -5 0 -5 0 -3 -35 -16 -71 -69 -21 -9 -17 -4 -9 -1 37 32 42
248 113 62 50 48 34 29 47 34 50 47 33 24 35 29 8 -7 -8 -5 -7 -11 -6 -3 -5 -9 -8 -4 3 -11 18 16 41 57 45 20 5 11 21 42 13 29 48 54
428 337 192 102 36 67 58 55 54 53 52 53 46 35 15 27 22 17 -18 -15 -12 -18 -15 -10 -6 -6 -1 20 3 36 32 50 45 46 47 57 61 77 105 84 24 45 70
347 356 394 253 222 86 65 73 80 74 64 66 62 63 49 -33 -26 57 58 11 9 -16 -20 -19 -26 -20 26 19 12 -41 18 52 29 28 38 51 65 59 69 70 67 54 30
241 267 304 343 181 148 163 103 91 83 76 66 51 56 65 68 -30 24 95 10 -17 -4 1 -16 -27 -15 82 36 36 8 -27 -22 33 50 51 43 30 58 70 69 70 64 51
184 209 292 341 352 302 128 118 117 121 106 97 72 59 57 51 30 -23 93 114 97 -25 12 58 29 -27 -7 71 51 36 40 23 35 37 64 46 18 31 19 0 56 48 46
193 191 213 286 318 305 311 231 94 87 99 108 91 81 76 69 71 94 121 96 92 23 87 45 20 68 55 21 72 63 74 72 69 143 115 92 80 38 2 -33 43 8 34
70 125 137 174 231 240 250 235 268 136 93 85 87 99 104 80 82 106 123 98 85 129 123 104 87 92 127 161 123 125 84 109 110 63 113 76 55 60 62 103 81 74 46
109 108 92 99 148 183 102 126 126 198 93 84 72 91 97 106 92 117 135 126 105 95 122 129 125 137 105 129 181 148 121 144 112 78 46 32 74 118 129 139 145 122 105
78 89 115 117 108 95 129 118 122 135 131 131 48 58 80 75 90 102 143 138 113 107 83 105 111 118 177 174 167 108 97 136 99 67 48 88 134 135 109 108 212 289 226
78 72 82 92 89 54 96 131 127 147 102 30 42 46 59 82 77 61 143 162 131 144 107 110 122 108 85 163 170 158 143 122 118 129 128 134 158 167 138 127 110 210 220
81 89 73 77 98 85 62 67 89 166 105 30 26 108 68 65 84 79 92 169 159 158 126 118 89 98 131 153 186 157 163 158 166 182 199 194 201 178 182 181 148 127 136
145 96 82 87 74 80 75 59 86 95 190 173 225 199 180 112 120 148 140 205 124 122 109 70 91 118 128 134 143 152 164 142 122 148 187 202 199 184 177 181 157 152 165
107 140 145 140 146 146 144 110 45 6 10 104 115 128 84 65 75 74 35 120 93 146 101 71 78 101 107 106 120 118 114 126 126 139 114 125 153 178 183 185 157 142 151
29 72 117 157 151 134 124 164 133 107 -7 24 77 93 113 101 119 83 82 76 77 59 118 121 120 120 108 116 117 107 106 111 130 130 99 106 103 86 102 110 119 133 155
16 42 59 94 140 178 167 128 174 158 101 113 32 31 66 70 62 34 54 24 110 95 102 104 101 102 115 113 112 121 124 105 117 101 106 120 103 98 117 134 143 138 129
24 39 59 78 118 170 241 267 179 172 140 76 57 35 61 55 64 48 5 81 79 94 97 107 125 136 102 106 139 159 151 140 131 103 100 119 129 135 145 145 123 134 134
4 20 62 73 75 106 150 161 155 144 159 116 52 25 32 109 74 25 39 63 69 71 83 83 107 101 125 100 126 139 140 150 131 103 74 61 96 104 84 108 119 91 108
21 30 34 69 81 85 116 153 190 178 137 185 127 37 42 80 119 130 97 62 87 47 55 65 93 87 101 99 91 112 95 84 89 122 125 108 101 109 105 99 109 100 125
24 36 34 46 69 80 82 107 129 141 125 144 185 188 31 38 81 100 96 71 72 77 112 59 79 90 97 104 94 103 91 87 91 105 116 119 123 97 109 110 134 149 156
14 24 32 46 64 67 69 78 103 115 122 107 95 136 192 82 3 58 82 103 50 115 144 156 138 90 114 148 90 144 133 135 125 111 70 71 123 148 166 170 155 149 175
35 35 29 19 47 70 78 82 100 111 121 135 112 101 111 192 114 16 138 191 133 110 111 93 117 147 118 147 180 101 129 66 146 181 161 185 161 168 188 182 179 174 201
15 25 21 25 31 43 51 58 64 52 100 140 147 138 142 177 226 53 91 210 164 153 96 56 69 75 98 96 114 106 111 104 94 105 151 156 169 179 233 197 143 141 144
-1 27 32 22 30 29 29 42 39 39 62 87 114 131 113 127 165 247 284 87 94 73 38 36 70 36 77 124 142 150 142 93 66 98 125 194 246 271 267 327 359 319 353

GFSGL_con_3kmhel_078.txt.gz
Helicity
54 63 41 34 22 -4 34 36 17 57 24 105 39 -38 9 15 27 25 -11 1 9 12 -15 24 17 -6 2 66 61 93 49 61 17 38 43 32 -18 -11 20 54 39 -8 76
56 63 53 62 38 45 25 21 29 23 55 114 56 15 42 27 35 28 13 11 21 14 -8 -14 20 5 -13 -6 19 59 75 42 7 -21 -40 -41 -24 -9 88 50 64 56 21
198 67 64 69 67 46 68 38 39 46 20 33 60 67 47 7 -15 21 -2 -8 5 21 27 5 4 11 -5 -23 -10 5 21 34 17 -2 -20 -3 -7 -25 -14 57 79 100 95
398 241 202 89 87 64 78 75 53 58 54 27 28 68 21 9 6 14 27 -13 2 -0 -3 20 41 46 22 -1 -11 -19 -3 -9 8 5 -2 -12 -17 -16 29 103 70 41 41
133 264 233 241 109 141 105 79 64 79 71 74 50 29 70 18 -1 24 41 50 -1 -16 -5 -6 -6 39 62 62 55 -0 -1 -9 17 8 -4 9 28 60 80 63 62 52 62
209 260 300 195 96 108 79 79 82 69 71 81 83 69 19 42 -28 63 98 70 68 50 7 -24 -25 -22 4 58 68 40 -9 39 16 2 -4 2 -20 18 34 50 43 30 4
74 56 180 269 241 145 162 122 93 73 68 58 73 87 68 35 -16 -49 21 88 82 80 22 -8 -23 -25 14 87 78 59 16 8 51 11 -26 13 -3 -20 17 1 13 28 31
128 107 159 176 228 293 301 226 218 124 91 73 55 62 85 74 45 -18 -40 32 48 34 29 75 20 -10 -42 22 40 50 36 16 50 85 92 85 73 53 21 -8 -30 -6 9
140 180 206 219 217 215 202 241 211 181 152 81 58 47 65 70 70 66 96 53 37 35 63 43 66 109 94 -8 -39 11 78 86 91 103 117 125 123 88 76 88 83 90 32
82 113 135 137 167 184 192 191 169 189 160 115 79 53 30 33 66 95 147 148 103 90 77 81 53 52 91 115 133 102 39 107 139 115 133 65 64 105 93 145 145 135 133
82 73 73 75 130 148 155 145 111 118 156 106 86 74 54 46 41 53 125 168 147 119 116 110 128 137 84 80 129 152 142 167 132 120 77 57 108 151 175 192 206 205 182
98 81 75 64 61 67 82 85 120 151 109 108 104 75 61 60 38 35 46 105 111 123 110 115 113 104 158 167 145 107 83 138 144 117 91 101 121 135 152 180 232 289 309
85 83 87 74 62 68 65 62 60 89 112 122 102 86 87 64 60 75 43 51 73 162 131 115 109 136 116 125 118 153 180 147 144 147 140 151 169 162 148 114 94 156 221
114 97 65 67 82 92 86 68 72 70 72 65 92 109 100 122 115 84 72 137 103 76 66 111 143 126 96 85 123 132 194 232 246 245 227 207 184 175 163 155 145 163 166
120 107 103 89 79 97 129 134 124 101 89 88 65 77 104 167 186 52 119 117 83 104 61 87 100 106 98 93 101 155 219 232 258 255 232 208 176 143 140 129 107 97 132
92 100 96 80 84 85 86 87 164 170 152 181 121 102 49 11 60 63 83 78 24 -4 66 74 92 87 92 100 101 114 160 201 235 244 203 176 170 140 110 92 116 137 131
49 53 61 73 76 75 73 95 81 125 224 164 196 138 82 58 83 110 114 132 98 100 139 127 102 88 98 94 84 95 117 143 140 157 161 180 180 169 147 114 72 32 50
42 35 20 23 40 54 68 80 98 134 110 96 148 143 121 94 64 54 96 51 110 129 147 163 112 28 107 125 152 144 100 108 149 198 230 244 168 137 130 125 126 138 140
30 29 24 16 16 29 47 58 68 89 107 114 161 133 140 94 97 77 30 116 127 104 117 110 105 76 98 139 155 139 115 96 114 158 175 214 196 185 161 152 103 115 134
32 38 26 14 17 19 23 46 60 71 95 122 122 108 71 116 133 112 85 114 105 105 102 102 92 83 73 122 118 122 137 118 113 116 123 152 181 188 149 132 107 82 98
27 27 12 10 17 20 28 40 60 73 88 107 117 202 256 229 230 129 94 163 186 119 101 80 89 92 66 63 115 132 104 120 114 112 131 119 125 113 123 130 111 107 104
10 9 4 9 18 22 28 40 52 69 77 88 82 81 131 173 236 274 179 116 101 144 132 44 48 53 67 61 80 101 94 105 110 114 119 101 86 92 93 111 120 117 104
-11 6 18 25 33 41 39 44 43 46 55 67 77 71 69 106 140 163 274 195 42 109 76 87 37 23 100 137 94 74 82 76 106 129 140 127 64 52 63 93 112 125 126
-38 -22 15 46 48 33 21 23 36 29 30 53 72 84 64 67 76 120 114 148 240 90 156 124 119 83 63 68 56 52 71 46 75 115 169 147 127 117 119 114 110 144 124
-37 -19 8 30 49 55 27 4 9 10 22 53 51 33 44 83 81 94 116 218 174 166 136 124 108 121 73 53 41 41 33 51 40 74 121 103 85 115 150 155 172 165 175
-4 -33 -17 14 29 37 33 11 12 11 16 26 32 30 37 52 65 62 96 121 195 169 200 153 165 122 35 -5 27 51 59 57 69 86 80 87 122 138 176 201 233 255 234

GFSGL_con_3kmhel_081.txt.gz
Helicity
69 50 42 54 28 21 41 49 68 52 57 28 2 -13 -33 -2 4 25 13 -7 7 9 15 13 41 34 58 75 78 86 100 58 25 35 20 -3 -20 -14 -13 2 12 15 6
119 51 54 53 55 29 22 -30 66 67 27 -3 -8 9 -18 -13 -9 39 24 6 10 19 20 -4 13 16 6 29 50 69 69 56 22 -3 -31 -35 -29 -3 -7 -10 58 46 16
146 171 75 54 57 33 34 32 12 108 53 27 44 5 25 -4 -5 20 12 4 6 6 16 13 -11 -0 -5 -15 -16 1 9 35 18 -12 -32 -23 -2 26 14 -2 9 33 27
100 88 151 133 106 58 42 51 41 40 85 50 53 15 14 -12 -2 15 19 -1 -4 5 1 1 21 12 10 17 2 -15 -16 -9 -2 3 -4 9 24 35 27 48 60 55 39
224 103 135 161 162 97 135 48 67 65 70 29 12 18 7 6 7 4 28 13 -1 -9 -11 2 -0 -3 30 46 44 29 18 11 9 15 25 41 31 46 43 32 19 8 11
251 139 56 259 87 44 73 112 71 47 39 51 53 53 23 31 -4 -5 -12 9 8 -5 -13 -11 -7 -14 -11 6 57 78 86 86 54 42 34 21 12 22 15 -4 -7 -16 -25
90 138 219 136 190 129 228 -47 122 114 45 40 46 53 6 35 4 -20 -31 57 63 43 24 -5 -14 -6 -16 -15 -21 24 60 57 57 59 8 10 -6 -7 -28 -8 -18 23 59
68 125 90 83 72 132 108 71 90 161 164 103 43 26 10 12 5 -10 -57 -5 35 50 90 97 50 28 19 -21 -18 12 -0 -5 -3 10 43 55 59 51 50 5 -43 -66 25
121 165 197 146 90 146 137 125 102 91 116 125 104 75 41 10 11 2 10 17 11 3 36 64 88 95 82 -2 23 27 62 40 86 97 127 113 83 76 85 142 54 48 13
119 110 121 145 169 207 186 158 111 61 88 89 108 106 77 33 28 19 27 33 14 29 39 47 29 91 99 105 129 92 -4 28 168 153 123 40 43 35 35 151 135 120 121
79 81 80 84 99 106 110 110 114 103 59 64 69 75 64 55 38 22 24 67 54 81 70 67 88 53 54 81 135 135 30 106 148 175 142 132 139 158 169 199 208 198 150
67 54 57 57 64 62 72 75 86 98 119 98 66 64 83 80 46 42 31 41 55 76 57 61 64 59 59 62 110 118 89 150 153 125 123 125 147 163 187 191 181 183 180
82 94 79 71 74 75 75 87 97 92 72 81 75 65 106 149 114 41 61 61 71 61 52 37 72 77 44 98 74 53 72 106 104 111 132 158 197 211 187 208 196 202 178
95 99 110 119 128 97 90 89 87 101 114 95 90 76 45 45 129 90 24 26 61 64 57 15 -21 21 40 66 108 128 133 116 139 166 168 205 217 234 250 235 200 183 164
70 81 86 95 100 104 108 92 86 81 98 90 90 98 74 34 22 34 73 107 113 135 109 57 25 11 46 121 140 124 131 172 201 205 182 184 213 236 228 213 209 167 165
62 58 56 55 76 71 66 77 80 89 115 146 138 101 84 60 70 81 50 35 34 79 95 84 65 50 53 77 100 117 145 151 173 180 205 206 206 224 207 167 169 164 139
49 56 60 62 49 42 49 39 28 53 64 112 151 192 219 133 235 169 171 123 79 76 90 94 78 81 71 94 121 114 114 150 168 154 175 201 199 176 175 165 162 139 125
32 33 29 36 46 54 46 47 49 35 29 41 32 79 144 202 255 251 160 77 81 90 115 90 104 105 124 119 121 107 125 120 161 173 205 197 204 188 184 181 180 160 119
19 22 26 32 35 35 39 37 38 55 55 26 16 24 82 209 244 217 85 85 118 91 87 80 104 99 120 123 121 119 124 64 48 113 120 150 177 145 154 198 224 178 151
2 -5 -5 -0 12 23 23 26 32 38 55 57 43 40 53 112 145 201 234 222 194 135 132 113 84 99 121 130 100 103 128 147 119 118 80 91 130 241 187 169 182 160 162
-13 -24 -12 -16 -8 3 14 17 25 33 31 42 51 59 73 86 100 80 115 186 222 301 225 179 179 142 130 116 102 89 79 76 91 96 101 77 84 116 128 145 142 137 138
-0 5 -7 -15 -22 -15 6 27 29 34 36 33 35 45 64 103 93 100 88 118 190 235 289 295 210 162 133 131 109 95 74 72 56 31 -0 19 55 77 62 88 138 124 100
23 19 -1 11 9 -31 -26 8 31 31 40 51 52 47 57 74 87 90 120 106 81 145 218 227 316 288 140 93 152 105 86 76 65 38 14 22 42 55 93 136 108 136 152
52 31 30 30 6 -27 -11 8 41 50 50 50 54 62 65 77 51 80 100 112 117 90 134 162 164 152 227 190 139 100 76 52 54 43 18 24 47 51 74 46 -66 168 79
50 57 98 68 35 1 38 67 62 57 57 51 43 43 46 50 32 27 70 79 105 151 140 155 115 125 104 131 152 163 143 122 64 63 38 17 37 60 93 99 69 30 63
101 90 75 47 41 9 42 59 60 54 46 44 41 35 34 40 39 37 45 45 31 83 157 134 98 79 91 100 183 238 243 187 108 74 77 52 41 69 90 77 99 120 134

GFSGL_con_3kmhel_084.txt.gz
Helicity
90 74 50 48 51 12 9 7 -11 0 13 37 56 29 26 -9 -10 -6 12 12 6 9 13 17 45 42 50 53 61 61 75 50 43 54 59 22 -5 -15 -2 -1 -5 24 61
114 86 57 35 52 48 17 -2 29 48 29 48 24 24 -17 -9 -10 2 10 3 10 10 10 0 16 41 54 65 44 40 49 57 29 6 28 10 -16 -18 -31 1 13 32 46
196 159 90 78 56 31 25 14 41 41 26 29 40 -4 2 1 0 -6 0 7 10 7 5 -3 21 32 7 17 18 35 28 45 38 5 3 23 13 10 12 37 54 71 64
32 50 136 97 112 80 47 30 47 35 42 51 41 24 13 -3 -10 5 8 1 13 8 8 12 6 4 8 21 -3 2 15 11 16 7 0 -5 -9 29 56 44 54 40 39
92 79 32 114 72 125 119 95 52 58 11 51 53 37 25 13 1 7 15 12 19 23 16 7 0 3 2 7 29 41 43 29 24 19 24 31 36 52 59 55 30 10 20
105 155 138 15 25 43 94 51 43 27 58 10 33 33 46 46 17 6 19 28 23 26 24 10 4 12 9 1 -9 -3 1 50 56 70 69 58 48 50 49 67 32 17 -19
139 156 83 107 116 114 33 41 42 13 30 36 8 17 8 11 14 4 0 24 13 16 23 31 22 23 8 11 15 24 27 22 84 121 81 79 68 71 -11 -12 77 85 82
208 154 154 80 90 124 65 76 52 55 14 78 56 52 17 10 8 3 10 21 14 9 29 33 15 22 30 28 28 20 8 2 42 95 90 72 74 39 50 -11 28 88 77
198 239 230 182 148 106 92 -31 24 30 33 52 81 77 47 44 35 9 10 10 9 4 13 27 47 51 45 18 16 11 -2 -2 18 -19 53 76 84 83 105 141 107 120 68
116 111 131 176 196 157 88 51 51 44 27 44 75 33 56 55 63 65 25 14 13 31 19 13 4 32 41 41 62 65 28 33 77 63 90 6 37 31 69 138 138 131 143
82 76 77 79 89 107 138 130 127 155 124 128 47 39 60 54 72 83 73 36 26 20 34 33 28 -2 12 37 58 64 28 74 84 124 107 98 98 106 117 174 193 200 179
91 96 111 118 108 104 104 120 117 127 143 147 136 144 143 144 139 162 145 70 62 42 30 29 25 46 33 33 55 58 36 61 93 93 109 108 110 110 125 164 199 221 201
115 126 139 138 153 141 124 115 112 115 85 91 90 95 136 172 186 239 193 159 111 48 32 24 10 19 34 4 -17 8 49 81 98 106 99 102 125 130 117 162 183 185 172
103 132 132 135 147 149 136 127 124 118 103 81 72 57 53 65 93 107 127 206 173 122 96 42 21 26 10 -4 26 41 102 122 123 113 94 67 68 113 149 173 184 191 189
79 84 102 103 133 148 142 139 123 95 99 92 85 71 33 25 62 102 80 84 91 124 88 56 29 34 50 64 50 44 63 118 175 161 146 114 99 120 174 212 214 184 193
74 69 69 76 66 65 87 126 97 90 123 116 79 42 85 54 40 115 135 114 87 38 -5 16 43 43 63 99 103 85 80 82 114 135 153 134 116 120 139 149 172 195 201
76 81 71 56 49 43 31 16 59 87 21 28 55 76 85 57 161 167 160 154 123 34 23 19 31 36 47 50 69 70 76 82 89 126 142 132 123 120 138 160 162 183 176
80 93 69 63 55 44 35 38 19 -4 30 54 41 33 52 72 109 145 189 90 92 58 89 77 46 42 49 49 60 75 87 78 85 98 100 132 123 150 182 194 201 214 184
60 57 58 66 66 60 48 39 22 9 0 -12 -20 5 29 40 56 100 37 74 80 110 137 118 81 73 68 63 58 84 104 112 95 101 102 116 149 175 148 158 149 138 106
26 40 42 36 44 45 33 29 24 17 14 3 -14 -29 -36 -8 29 58 73 94 91 86 94 128 141 124 138 124 91 87 89 108 105 105 120 116 126 126 133 131 174 206 178
-3 1 32 35 39 35 18 8 9 12 7 14 20 10 16 6 12 30 41 67 83 103 109 132 144 159 188 194 157 114 104 101 112 108 98 85 85 87 46 102 137 144 144
-7 -6 1 -3 -15 -17 -21 -11 -2 -4 6 20 33 40 50 35 30 33 45 57 61 73 109 115 107 114 157 187 202 177 140 139 127 113 105 103 69 48 31 10 56 116 139
14 24 11 -1 -16 -25 -25 -52 -52 -26 3 36 53 60 58 57 66 67 68 77 86 92 83 104 114 74 96 133 155 170 170 186 183 184 139 111 102 98 65 76 83 76 72
30 29 21 27 34 28 5 -14 -48 -51 -15 43 66 71 73 75 66 72 74 72 75 67 97 101 86 125 149 149 170 181 130 117 139 169 169 117 119 102 95 86 90 94 103
67 61 59 58 62 59 32 0 -41 -30 -5 38 62 81 85 76 64 54 54 59 59 70 79 81 65 111 138 229 212 170 151 122 134 157 196 176 165 122 105 97 92 84 83
80 78 87 96 99 77 54 48 9 -5 -3 9 44 60 64 70 54 39 28 29 43 53 69 65 61 92 105 153 243 205 144 116 104 124 109 160 182 188 124 104 90 79 75

GFSGL_con_3kmhel_087.txt.gz
Helicity
124 91 57 52 51 48 40 37 20 17 1 8 17 11 27 30 21 8 -3 2 8 19 27 8 9 34 30 24 46 41 36 27 29 39 35 31 25 10 17 5 -3 27 57
160 129 91 53 40 35 39 24 31 21 32 46 31 26 22 16 16 15 -7 2 4 9 23 16 4 21 35 48 41 40 34 24 19 10 31 33 16 14 -10 -8 7 50 100
222 136 125 112 101 66 45 37 24 25 35 50 36 37 25 4 15 24 12 8 5 8 6 1 -1 4 20 42 34 30 33 33 43 26 13 33 24 37 34 35 58 89 107
115 111 123 98 76 74 71 85 69 48 31 41 55 42 30 25 21 12 9 8 17 19 11 -0 8 -0 11 41 28 22 26 32 49 25 18 19 17 26 26 19 45 95 78
74 38 93 53 54 50 6 51 122 67 28 9 15 39 48 41 27 16 17 11 11 16 23 23 14 14 9 31 46 33 43 31 50 47 17 25 29 52 64 66 77 67 40
70 69 80 79 34 71 61 35 43 44 53 -12 28 26 29 34 26 16 24 29 26 20 29 27 38 39 25 19 16 12 11 17 18 64 83 73 60 79 85 81 62 48 18
110 105 126 112 69 128 54 62 45 47 44 34 37 67 22 23 29 19 9 37 40 37 30 23 33 48 55 55 46 28 9 -3 40 69 8 11 22 97 106 44 -0 74 53
223 220 197 126 52 31 61 133 178 75 33 11 12 27 35 41 80 74 40 30 36 24 15 8 6 16 29 36 41 38 33 44 62 97 93 65 50 12 34 -39 15 65 64
235 230 203 159 115 102 90 84 74 124 127 65 12 1 8 30 44 62 48 37 33 22 26 27 27 18 13 3 24 20 21 14 30 5 -28 -25 -16 -17 -16 124 100 105 -27
130 111 124 171 144 115 78 72 42 8 -41 29 48 24 20 4 48 78 54 46 33 27 25 26 13 28 29 21 46 33 -1 5 45 52 56 23 -47 -49 -3 129 125 112 117
83 76 78 86 90 126 130 23 73 40 55 45 14 68 180 202 172 264 281 165 106 63 53 46 36 21 24 38 43 55 40 45 35 46 46 46 71 105 124 166 182 186 135
61 68 82 101 90 87 96 124 121 87 82 96 118 99 101 165 224 163 186 232 275 197 170 134 103 103 85 50 29 9 5 29 47 44 42 45 55 73 83 112 153 176 184
82 105 121 123 124 126 124 130 117 125 123 124 114 91 86 90 101 124 187 210 224 156 155 142 133 122 99 72 54 32 17 30 37 57 67 69 85 88 77 84 99 124 143
93 109 114 139 166 169 159 154 150 138 122 106 90 74 41 47 60 62 59 102 136 122 106 87 94 60 31 16 40 38 47 62 61 64 70 84 91 99 116 118 98 82 107
118 133 144 154 163 170 176 173 169 143 130 131 125 114 106 89 68 83 44 17 22 60 28 -12 -7 6 20 15 5 6 23 58 89 103 99 95 90 96 110 110 120 114 115
105 116 127 136 151 157 156 166 148 149 155 143 143 112 113 100 130 154 145 118 111 39 -53 -26 -11 -15 -11 16 40 54 65 84 107 118 125 139 131 120 108 109 125 139 138
76 80 83 94 92 98 106 114 144 122 59 53 55 56 55 64 99 116 119 113 95 28 19 14 -8 -24 -19 -2 9 27 42 53 75 93 88 89 84 122 124 119 102 108 135
56 70 67 75 85 90 90 86 80 93 115 106 57 35 23 31 39 29 19 37 7 -13 7 32 31 23 4 -1 12 26 26 37 47 72 93 72 68 90 104 113 125 144 140
52 54 50 53 49 52 51 50 41 38 41 50 57 54 36 32 43 1 -16 -63 -60 -28 17 25 29 32 35 45 56 68 88 80 88 99 100 100 96 95 96 104 105 117 130
35 43 37 27 27 25 8 -4 -13 -21 -29 -41 -32 -36 -54 -46 -40 -8 2 -9 -18 -15 -25 -33 26 65 75 81 65 76 110 135 127 121 134 142 126 122 114 112 111 107 107
8 11 19 16 10 3 -3 -3 -7 -9 -14 -28 -50 -71 -69 -77 -84 -80 -72 -45 -10 8 34 53 45 34 61 92 89 71 84 99 117 139 129 139 141 141 143 142 118 102 98
23 10 10 11 10 21 23 21 17 5 -9 -31 -49 -66 -66 -87 -81 -84 -70 -52 -37 -21 8 35 68 94 93 78 71 89 81 96 122 138 143 188 233 203 146 148 140 125 128
28 15 5 11 20 18 28 14 14 7 -5 -15 -38 -54 -51 -39 -10 16 23 35 18 11 24 29 35 56 87 117 126 123 153 216 213 199 175 150 151 194 203 183 175 152 140
37 29 22 28 38 35 30 31 32 23 10 -14 -63 -81 -67 -26 22 49 56 57 59 52 29 23 48 70 76 93 97 135 167 164 202 193 155 149 130 157 172 187 174 153 149
64 63 62 67 60 55 52 53 46 30 20 -17 -62 -85 -51 -5 22 28 31 29 35 50 63 58 34 42 73 108 128 158 162 172 208 263 256 196 171 182 160 164 157 134 148
96 96 89 92 90 93 95 83 68 45 43 24 9 -27 -46 -13 18 27 33 37 36 36 46 50 39 28 38 47 75 85 107 110 148 178 304 241 178 173 174 181 186 149 138

GFSGL_con_3kmhel_093.txt.gz
Helicity
46 56 68 28 41 54 42 41 44 34 26 12 9 18 3 8 21 17 16 21 17 21 23 26 37 50 47 40 33 28 33 36 41 38 35 33 24 5 -8 -17 -18 8 41
73 102 59 40 38 56 56 46 45 31 37 35 32 11 11 24 9 21 20 11 3 10 15 18 28 42 49 59 47 36 30 42 56 47 52 28 25 9 -14 -11 -4 20 60
155 181 145 92 48 53 65 59 44 48 34 34 37 22 23 29 36 19 19 9 4 -0 7 11 18 36 36 47 44 44 48 54 47 46 38 30 24 21 16 -0 3 47 47
149 183 177 158 80 73 83 92 71 60 47 43 40 42 43 50 51 48 40 28 16 11 7 5 13 17 17 29 35 31 44 65 73 59 43 38 28 25 14 -97 -24 35 45
126 170 144 195 176 150 108 111 116 103 85 72 59 64 60 49 53 58 45 42 31 25 17 20 12 12 26 20 30 31 32 33 53 45 38 32 27 29 -14 -15 -35 20 40
179 124 121 117 176 249 144 117 123 124 126 115 100 92 108 132 105 84 53 44 39 34 28 29 22 26 14 21 23 11 24 35 34 41 22 18 21 27 25 5 -13 1 -14
216 163 116 128 128 83 80 119 139 128 119 113 124 129 112 121 140 98 96 58 42 31 29 27 34 29 37 32 40 40 31 42 53 41 37 37 28 34 37 23 -2 -3 -39
218 166 125 98 77 69 95 151 153 84 68 74 106 114 137 154 181 103 71 77 67 59 52 44 44 38 36 48 49 44 41 44 48 68 68 41 38 40 45 47 41 12 -20
225 180 150 130 120 128 123 126 131 76 45 101 143 154 145 191 266 249 122 93 106 111 103 82 87 84 140 110 57 43 41 39 46 41 34 36 34 37 65 74 48 -16 -22
186 161 152 129 121 102 96 87 75 73 97 102 137 166 164 139 203 298 207 114 113 98 89 151 140 179 182 189 147 130 75 80 108 86 63 40 36 45 61 109 56 19 -1
94 106 121 128 124 144 127 107 94 65 70 87 89 136 128 128 136 177 201 79 55 62 69 70 84 127 152 110 68 66 54 49 39 48 45 50 46 42 47 67 79 85 56
91 106 108 108 97 82 89 92 112 109 125 133 125 111 103 90 112 127 101 117 136 21 60 76 78 104 114 113 60 43 50 53 42 42 47 51 50 54 55 50 47 52 66
54 60 57 66 73 80 88 98 110 137 127 156 132 116 99 108 93 86 100 94 81 67 73 107 109 81 87 63 76 73 46 59 63 66 61 62 61 59 58 44 30 30 41
59 69 73 74 84 93 87 93 106 127 128 127 135 140 142 143 133 141 148 142 123 94 103 74 67 35 22 27 60 64 83 87 93 76 70 70 66 64 65 58 49 55 51
54 63 71 82 97 107 132 142 129 154 164 145 148 148 144 139 149 146 135 129 129 114 116 76 89 84 78 72 78 78 81 89 94 90 79 69 67 69 67 86 90 87 82
38 49 67 74 92 116 121 123 177 185 186 199 195 185 118 141 150 161 151 140 132 116 61 72 72 84 88 95 94 93 85 93 92 108 100 90 84 76 69 84 90 96 91
64 67 76 80 99 106 113 124 123 115 119 140 162 161 170 172 185 167 157 133 46 54 89 84 81 65 56 63 62 78 89 102 97 91 110 119 114 119 122 115 107 114 114
83 104 90 109 128 141 151 155 155 156 157 144 114 116 123 125 113 115 121 53 67 64 68 66 63 57 45 47 51 45 41 39 43 57 70 81 81 82 98 115 109 111 128
70 85 99 116 127 130 127 131 137 145 147 138 114 75 85 84 13 -22 2 48 46 39 41 46 49 45 43 47 45 41 41 41 43 35 51 58 72 79 87 95 97 83 97
82 85 85 90 85 90 94 97 103 109 113 116 111 104 94 60 56 42 23 14 2 -0 5 5 10 8 13 12 6 1 -0 8 27 49 62 73 72 92 107 125 118 128 121
84 80 71 76 72 70 71 76 76 82 92 92 80 72 78 40 46 39 25 10 1 -4 -10 -15 -19 -31 -49 -44 -34 -31 -19 -10 -3 15 34 52 87 71 87 106 114 163 149
75 70 59 58 58 54 57 57 63 71 77 79 72 52 6 11 25 11 -8 -22 -32 -46 -56 -59 -68 -73 -80 -80 -85 -89 -69 -52 -39 -12 16 46 61 77 108 141 128 144 155
74 68 63 56 47 53 36 36 37 42 48 52 57 56 43 33 21 6 -9 -32 -55 -82 -93 -105 -109 -116 -118 -126 -113 -134 -154 -140 -75 4 20 31 48 79 101 114 115 176 194
92 74 69 63 54 39 34 29 28 27 32 33 38 42 42 32 22 19 2 -7 -22 -40 -67 -87 -94 -111 -121 -117 -103 -90 -70 -52 -30 -35 -29 4 40 64 91 115 146 153 156
147 95 64 57 53 42 42 23 17 15 21 33 41 44 40 37 26 25 27 10 -3 -18 -40 -56 -76 -61 -25 -4 -0 -1 1 14 9 2 55 28 26 38 74 107 119 118 126
194 151 131 99 74 58 47 35 31 41 50 50 42 35 32 26 27 19 25 24 7 -10 -23 -35 -37 -27 -3 13 19 42 87 98 115 129 145 116 106 97 95 106 105 150 147

GFSGL_con_3kmhel_096.txt.gz
Helicity
46 23 44 32 32 31 52 53 39 50 32 28 21 7 6 -2 1 5 17 36 20 20 31 27 28 44 56 59 49 49 58 64 46 39 64 37 42 3 3 -5 -78 -79 -17
30 -25 34 43 44 36 39 47 46 29 28 35 33 16 23 18 16 20 15 22 12 15 20 20 20 32 21 28 47 60 64 78 51 36 48 27 71 63 32 -20 -12 -31 25
59 55 45 76 50 45 38 48 53 40 34 27 27 34 25 20 23 22 12 17 18 16 12 9 15 16 17 39 53 45 34 46 55 32 47 68 82 57 57 -6 -61 -73 35
103 96 63 95 97 123 49 53 56 52 45 38 33 30 36 35 34 36 23 24 24 25 10 9 9 10 11 13 16 30 35 30 22 46 18 44 63 62 48 -81 -40 -5 15
40 3 62 64 47 71 100 67 86 80 82 50 46 51 51 56 48 40 37 33 30 21 20 19 18 17 23 17 15 23 34 27 23 15 17 22 27 38 43 3 -39 -24 -10
40 62 106 122 157 186 173 85 93 107 111 105 74 76 59 105 173 121 64 37 34 31 28 33 34 41 30 41 33 15 24 25 15 11 -1 7 16 23 25 18 -7 -20 -13
179 142 152 144 114 139 164 261 180 110 77 92 125 119 167 171 136 101 72 44 36 36 39 41 34 32 57 41 45 42 36 39 52 41 25 16 17 31 35 14 -4 -7 -10
211 192 159 139 111 74 56 38 95 97 115 98 81 94 104 127 203 149 97 71 57 59 56 59 51 84 142 123 50 33 31 28 49 61 54 33 31 31 50 42 42 32 60
269 191 156 118 110 76 62 62 64 74 103 88 76 111 106 132 246 285 176 108 129 102 138 180 159 144 119 135 82 50 36 38 49 55 59 35 33 24 46 73 66 29 14
238 232 173 128 123 97 98 109 99 105 116 86 95 81 135 129 184 270 275 151 118 121 64 68 96 121 129 108 92 80 73 70 89 71 55 50 40 45 71 112 64 59 21
160 193 168 148 127 114 103 121 113 115 102 97 94 109 136 138 108 147 225 151 172 189 149 119 98 104 102 74 36 51 69 84 51 36 32 40 42 38 39 107 81 65 18
109 132 137 132 107 95 104 124 133 126 122 97 79 83 96 87 131 93 110 111 102 118 136 76 48 74 87 80 58 70 60 61 33 43 55 62 77 83 76 94 108 73 53
68 66 69 83 95 95 95 91 79 88 91 83 50 57 80 98 100 55 49 61 78 99 64 61 38 68 74 87 48 89 37 25 71 71 72 73 75 79 73 39 32 38 43
42 40 36 38 65 80 74 77 75 77 80 88 93 90 84 86 95 99 100 106 91 85 86 55 48 8 -5 9 65 114 116 148 126 93 66 70 63 53 60 67 62 55 59
29 39 43 45 51 68 129 153 129 152 185 147 149 142 146 125 116 110 105 104 104 104 117 98 106 113 115 116 106 97 95 93 83 77 84 73 64 61 60 63 70 66 62
17 20 41 49 55 78 68 108 212 180 185 207 217 250 139 176 157 146 133 124 117 108 88 127 134 147 144 142 133 125 119 122 128 112 93 89 76 74 79 83 70 67 66
36 60 57 64 68 76 85 73 90 125 134 145 159 193 205 192 181 185 157 118 88 74 117 122 120 113 108 105 102 99 93 89 80 75 75 82 85 76 66 64 60 77 86
66 133 71 95 112 115 110 115 113 91 94 106 101 123 118 130 131 152 155 109 91 73 112 102 85 64 54 53 58 62 64 65 60 66 57 51 63 69 69 74 83 82 84
59 72 88 107 122 137 132 128 126 127 139 140 105 63 56 71 42 42 95 118 108 94 86 85 87 88 82 76 67 54 49 46 50 43 51 62 69 72 69 66 73 88 133
85 157 114 120 118 118 125 128 127 122 113 116 114 133 121 75 87 93 82 83 79 77 71 62 65 66 71 72 77 74 68 68 60 47 44 43 43 51 53 61 57 61 76
94 105 93 96 98 102 109 120 122 111 107 105 96 108 104 84 92 88 87 80 74 67 60 56 49 40 31 26 14 6 3 12 23 31 32 29 30 25 44 62 69 63 70
99 96 81 87 98 98 92 92 88 89 88 86 77 64 39 52 85 82 80 72 71 60 53 48 38 34 25 17 13 9 5 -4 -6 -2 2 5 10 19 32 37 28 28 53
104 89 81 85 91 115 101 82 77 74 72 72 74 70 54 69 66 65 63 59 52 41 35 16 6 -1 -1 -1 1 -12 -20 -25 -25 -18 -20 -6 8 14 32 41 37 37 56
129 104 89 83 80 74 69 76 74 89 92 64 56 59 60 61 59 55 39 47 39 27 15 4 -0 -14 -33 -44 -61 -86 -92 -63 -40 -58 -70 -44 -17 -0 6 10 19 16 44
184 161 116 95 102 68 70 53 55 55 49 41 38 38 43 47 48 47 44 36 33 33 28 22 8 14 -1 -6 -34 -27 4 -13 -39 -52 -3 -4 6 13 49 73 56 66 45
211 193 150 112 127 99 88 67 52 46 36 35 39 43 47 44 40 44 41 42 37 39 43 39 39 21 17 -7 -16 5 19 30 45 82 94 101 103 119 129 130 105 154 115

GFSGL_con_3kmhel_102.txt.gz
Helicity
131 138 47 47 37 38 37 30 44 54 30 1 32 -6 23 15 18 -4 -26 -1 18 -1 -13 -8 21 24 28 18 22 33 67 72 76 57 49 0 33 67 -8 93 78 45 83
211 204 151 149 54 41 69 82 64 43 21 32 23 19 22 8 4 9 -3 -2 21 17 10 18 19 12 29 28 19 16 72 80 59 58 79 97 54 12 -54 96 152 90 53
202 99 172 177 101 90 87 101 49 27 50 51 40 26 18 11 2 7 13 5 3 11 13 13 15 25 24 20 13 6 11 37 43 10 -28 7 2 67 42 0 17 14 52
137 69 53 77 113 102 140 110 103 115 78 38 36 35 9 21 21 16 23 29 2 9 10 16 5 10 18 26 18 17 30 8 7 10 -1 20 5 34 41 33 -9 11 36
104 87 18 22 77 55 52 114 134 88 107 97 70 62 87 73 91 69 41 37 8 17 29 26 20 48 19 34 34 27 27 16 17 -2 -34 -26 -42 -65 -56 -30 -44 -33 -46
51 57 37 79 57 47 35 24 33 68 152 162 118 107 127 77 116 99 77 74 56 59 37 40 27 64 57 14 16 19 33 38 34 51 42 18 3 -11 -2 -6 -10 -9 3
94 73 46 14 52 69 64 48 68 85 106 136 124 105 108 89 117 105 81 54 48 55 50 49 35 79 59 74 96 29 8 6 31 51 44 48 35 35 15 18 17 16 20
238 169 138 111 94 89 96 89 98 113 134 119 125 94 76 112 172 150 109 57 50 66 113 122 108 81 71 58 50 58 39 25 28 25 67 44 38 42 61 55 41 51 61
251 231 187 134 119 128 103 88 59 38 80 127 48 26 46 112 171 186 160 154 107 105 113 168 125 72 86 115 75 75 82 75 102 113 66 34 3 0 38 63 62 58 32
318 301 289 254 232 201 168 173 134 65 40 89 142 98 92 112 171 198 176 124 142 124 87 113 143 105 88 111 106 90 74 71 50 48 38 30 35 43 30 135 118 67 41
218 221 227 192 209 181 155 150 132 120 117 69 71 58 72 84 115 148 174 92 105 107 108 94 79 86 90 90 87 95 80 57 66 62 73 113 102 92 128 160 100 71 50
144 136 144 169 158 164 178 168 148 158 177 165 126 69 64 33 12 36 79 84 85 89 72 50 33 63 32 24 10 -15 32 74 63 94 96 100 124 134 112 75 73 79 76
134 120 115 162 156 147 161 150 127 109 125 100 70 76 134 37 17 23 71 143 113 85 69 60 69 64 45 50 20 7 22 43 42 43 55 66 93 71 86 94 103 113 89
95 90 97 105 137 164 134 161 154 128 107 93 82 79 84 50 63 70 74 89 106 105 94 92 87 75 81 67 120 105 82 127 132 164 140 121 126 116 118 119 78 55 38
92 77 55 55 62 90 110 127 104 115 118 103 139 162 167 145 103 93 76 87 93 101 130 137 146 163 195 227 206 240 222 191 155 153 171 141 129 117 106 77 92 89 76
45 37 29 35 29 37 66 68 137 102 88 111 126 174 125 90 47 60 78 80 83 112 106 116 131 152 152 159 146 167 143 116 111 113 117 119 114 115 96 107 114 103 89
42 77 65 28 12 50 55 60 74 93 125 121 135 156 152 128 103 105 99 117 110 141 160 162 165 175 188 186 162 150 137 117 93 75 93 88 104 83 74 89 98 90 74
56 87 74 70 66 100 92 61 72 78 33 70 64 89 114 108 109 97 118 126 104 144 186 212 195 163 156 146 137 127 105 90 85 81 87 88 82 82 71 72 72 68 57
74 64 75 73 96 123 122 97 87 102 141 91 49 55 42 53 88 112 166 203 223 222 194 181 176 170 139 125 110 100 94 89 80 82 91 91 94 91 89 84 75 78 71
56 55 73 49 97 93 94 98 88 106 119 125 54 48 55 83 97 82 114 171 191 205 168 163 133 124 109 104 100 92 95 100 99 94 87 88 85 76 69 67 60 57 54
79 80 49 42 46 64 46 66 70 101 87 88 154 221 124 96 131 135 130 106 168 171 137 142 110 93 103 102 106 112 112 104 99 92 84 78 67 49 43 38 33 30 33
99 114 111 45 31 71 31 54 63 87 88 108 178 133 92 90 113 114 120 93 97 96 120 99 110 110 119 104 90 87 90 88 93 93 80 62 50 42 37 33 33 35 37
114 108 198 119 71 73 84 75 69 86 73 103 124 121 58 66 85 140 127 101 124 101 114 98 108 123 117 96 94 84 98 117 102 73 72 60 48 44 51 47 37 36 28
130 103 157 182 106 89 89 80 62 79 80 92 101 111 100 92 100 114 139 109 121 100 106 100 100 97 91 94 100 112 120 97 72 78 66 44 34 42 48 47 45 28 32
156 100 108 151 170 114 72 86 74 71 107 124 135 112 84 83 96 98 100 94 97 88 82 74 75 69 79 103 73 145 116 92 72 53 43 41 28 8 20 40 31 36 19
139 86 163 274 222 193 116 123 96 80 103 121 88 93 123 134 134 119 115 117 110 97 100 99 68 72 84 84 165 119 69 66 66 56 49 47 36 39 34 33 27 69 63

GFSGL_con_3kmhel_105.txt.gz
Helicity
45 83 65 68 45 46 62 73 33 31 2 -8 -7 10 -6 -13 11 10 5 5 4 18 28 22 5 22 36 56 82 67 62 70 66 51 41 12 -22 -14 41 74 125 119 84
132 188 136 45 55 26 87 81 58 22 46 23 19 22 21 27 21 10 5 9 -1 7 1 9 10 5 13 28 47 77 54 73 64 37 51 36 56 48 51 5 15 10 24
242 241 165 97 60 101 78 65 55 75 34 19 39 29 25 25 12 21 19 3 9 14 14 12 7 16 10 22 25 17 17 14 45 30 31 37 -3 40 26 62 42 29 -7
288 251 186 134 131 150 108 54 74 101 98 57 31 43 61 85 64 54 40 34 26 21 16 11 13 22 12 17 21 18 18 24 13 1 -4 -15 -22 -33 -41 -57 -48 -35 -26
177 140 96 94 113 85 69 49 50 61 90 79 83 116 127 119 51 46 56 45 36 15 26 22 34 70 69 25 26 25 31 24 24 18 7 -7 -20 -34 -51 -47 -33 -21 -13
63 94 83 77 62 56 72 43 41 38 62 94 112 156 116 75 75 54 50 61 66 33 29 22 49 84 87 83 76 33 35 35 38 38 35 36 31 35 24 24 11 -6 -3
31 82 102 88 57 57 58 50 47 43 80 129 143 168 187 176 144 95 67 50 57 64 70 63 94 64 46 34 53 83 49 23 28 32 16 26 24 37 25 37 30 40 54
170 190 163 148 133 114 85 63 83 100 146 131 114 135 126 131 148 202 147 80 91 134 128 103 98 80 82 69 72 83 95 105 88 48 24 21 27 37 60 60 57 58 47
324 285 231 171 144 130 128 91 84 99 125 90 85 55 37 59 124 170 141 149 135 104 137 114 81 91 114 117 91 97 106 92 88 77 58 37 36 51 78 49 32 13 17
274 272 245 228 172 158 143 152 134 149 117 130 90 56 29 30 95 171 177 150 135 87 72 86 99 95 95 102 86 82 81 92 116 136 156 198 225 196 187 95 96 72 55
188 230 250 228 196 158 158 159 155 186 116 101 73 24 -11 20 68 153 203 150 121 98 83 75 66 69 49 24 27 19 8 35 87 88 91 115 136 137 179 196 206 164 109
125 171 200 183 169 140 145 154 156 180 172 106 69 64 56 51 59 97 86 112 110 92 79 56 47 59 51 36 43 40 37 55 44 56 104 146 155 165 154 118 103 110 118
115 135 146 149 148 164 174 159 149 145 156 134 114 86 73 61 62 80 73 96 113 64 78 90 96 88 100 124 156 148 160 149 99 98 105 116 113 102 86 103 97 106 85
73 90 93 100 121 163 152 148 157 160 156 150 152 150 108 105 59 73 74 80 105 105 117 117 127 150 183 186 193 198 138 118 91 80 80 83 88 91 99 103 69 87 47
54 55 69 75 77 107 128 106 74 84 93 103 116 129 149 103 70 67 72 71 66 97 149 149 145 147 170 175 147 129 117 98 99 97 100 107 113 78 90 86 69 42 37
50 46 40 42 37 50 57 71 119 60 50 62 47 50 94 75 27 25 59 76 97 129 140 153 144 162 189 194 197 166 145 138 117 127 130 116 99 83 67 57 55 42 35
56 56 39 36 40 62 67 67 60 78 77 72 71 80 81 54 44 76 104 112 104 143 188 182 164 169 166 169 157 139 143 117 104 130 120 104 95 92 69 69 60 52 46
67 73 98 69 66 67 90 56 76 94 106 94 93 101 107 111 130 148 155 164 168 217 218 220 213 175 166 155 143 139 158 136 127 123 114 89 78 68 64 64 51 43 44
83 78 81 78 109 102 137 113 99 106 112 96 83 62 57 86 127 143 182 239 252 264 235 229 179 155 142 138 134 143 132 116 101 85 89 71 72 58 59 61 58 72 65
97 53 90 86 92 99 119 124 120 108 143 111 77 13 25 68 108 130 154 196 225 253 216 187 154 131 125 120 120 122 125 111 97 89 79 69 59 45 50 53 48 40 35
155 108 85 89 94 92 102 83 81 89 110 95 92 64 33 54 65 83 78 156 183 179 163 149 120 127 128 115 115 119 111 95 91 78 63 49 42 40 31 27 24 21 6
134 149 154 110 100 95 87 62 53 62 83 144 177 147 74 53 75 121 126 104 115 129 105 114 148 130 112 87 79 95 116 117 93 66 58 56 52 50 49 43 40 36 33
211 182 119 80 136 108 102 88 70 72 76 116 140 135 101 69 79 133 152 148 124 106 97 112 131 128 112 103 133 109 101 90 60 42 49 49 54 59 54 41 48 47 47
144 158 149 198 109 155 137 110 102 91 90 93 137 115 89 40 60 121 155 150 140 128 111 103 101 105 104 116 115 104 90 61 41 42 44 36 55 64 58 53 49 38 42
116 140 186 205 178 199 164 129 130 101 92 104 121 123 91 86 95 138 140 131 132 126 89 78 81 78 94 139 118 101 74 62 48 45 40 47 48 39 36 37 33 44 31
50 105 152 183 212 337 208 138 174 124 99 86 103 133 139 142 133 143 136 143 118 102 114 113 89 92 160 136 110 85 76 53 50 62 54 51 56 56 48 41 29 60 59

GFSGL_con_3kmhel_108.txt.gz
Helicity
56 54 40 60 66 63 36 28 33 28 23 11 26 47 20 5 9 35 32 20 14 29 60 58 55 47 49 42 42 44 72 63 59 52 41 45 14 -14 43 78 47 62 42
60 89 67 59 77 78 48 30 25 19 34 20 5 4 13 27 31 20 21 18 16 4 24 24 35 38 48 42 40 41 48 70 59 15 52 62 35 48 65 30 40 36 9
90 156 62 -17 53 48 35 81 69 27 11 16 30 41 52 58 61 52 40 26 18 22 22 23 25 33 31 32 47 47 51 52 33 27 29 37 52 40 -6 -27 1 10 11
186 129 71 53 49 61 70 81 78 51 56 53 45 78 80 80 76 63 67 49 37 45 35 29 23 20 20 22 26 34 41 46 49 34 21 15 13 -1 -2 -27 -9 8 20
246 177 127 98 115 135 152 127 87 67 77 103 125 128 112 87 78 52 62 66 41 38 69 70 43 62 63 61 35 32 36 35 44 38 30 24 23 19 11 16 8 7 9
221 192 162 136 110 82 60 31 54 50 68 118 134 110 113 91 132 108 73 78 71 38 41 63 46 59 43 44 47 42 30 54 44 40 36 37 36 43 33 35 20 5 1
141 125 123 106 70 52 67 69 55 53 93 156 162 150 157 142 162 150 96 64 66 86 81 79 88 83 69 59 71 79 108 91 67 44 39 27 26 37 30 19 25 27 39
86 94 115 126 126 124 91 70 80 79 104 146 143 110 107 114 169 162 146 70 120 139 148 136 108 99 102 94 85 103 92 99 93 65 38 36 44 68 46 48 46 26 28
142 153 148 189 179 141 104 96 81 79 109 102 89 83 91 119 139 114 82 116 147 144 129 122 110 97 99 110 109 112 109 111 112 107 96 115 120 123 102 77 90 71 34
260 265 252 216 179 144 122 121 113 91 106 105 111 87 74 62 81 96 88 79 97 108 108 110 109 93 99 103 100 112 126 118 128 183 220 230 223 221 192 123 91 50 17
217 252 235 198 172 145 132 134 136 149 154 139 107 89 69 54 72 123 138 117 134 132 113 92 81 107 96 84 80 65 71 102 113 135 194 213 203 204 222 218 178 106 109
153 168 196 195 176 135 123 134 159 153 147 132 121 102 70 80 90 118 133 163 144 88 82 76 82 112 132 114 90 83 91 91 105 110 106 113 101 121 155 149 181 195 212
115 134 138 151 162 179 157 152 157 147 125 97 81 70 78 105 110 138 129 134 144 76 82 76 79 103 141 192 189 193 168 132 93 88 86 82 76 80 88 97 133 167 156
93 102 120 124 129 139 139 145 144 140 155 174 160 133 144 108 86 95 93 99 119 122 131 132 174 210 205 174 201 202 143 106 78 72 76 78 81 106 109 100 100 139 95
57 60 73 78 82 83 98 104 105 103 93 67 69 80 95 78 82 95 79 71 80 112 154 153 160 200 239 230 211 177 152 135 129 115 138 131 121 115 108 90 72 61 47
62 65 61 63 64 67 73 84 115 85 90 103 88 56 70 63 45 19 15 28 53 96 148 173 206 220 203 172 158 151 154 163 161 155 136 113 101 96 94 101 80 68 58
66 68 65 59 57 56 50 51 52 50 54 66 65 71 62 49 36 38 31 52 68 125 175 195 176 142 116 119 124 140 149 148 132 118 100 99 86 71 71 69 59 42 42
54 44 59 55 62 69 74 86 79 78 83 88 64 61 63 52 58 83 121 135 180 227 231 208 173 136 116 124 141 147 158 140 114 89 86 82 80 64 65 64 48 34 30
81 79 78 80 80 72 77 103 92 101 91 99 99 76 46 49 84 122 178 180 191 225 215 190 143 116 103 110 118 126 112 101 77 73 70 70 68 55 62 54 50 69 59
99 81 100 110 99 101 104 107 120 115 106 108 99 75 60 85 118 148 196 186 200 199 151 132 104 82 83 87 93 92 91 84 77 76 73 68 68 54 53 48 41 44 34
112 96 125 140 127 100 98 98 101 117 117 122 96 68 26 53 56 86 129 123 123 115 107 97 78 78 78 77 82 94 84 71 72 70 61 60 55 45 34 10 23 18 0
154 131 127 112 117 106 118 103 94 98 93 104 92 76 60 76 65 55 97 111 89 78 73 77 71 66 64 59 73 85 75 72 71 59 51 45 42 38 31 19 23 18 18
127 144 155 155 136 106 155 141 116 106 100 102 115 126 137 79 69 57 104 129 106 87 81 81 77 82 91 71 67 59 53 40 35 34 40 44 42 40 32 28 27 46 59
139 146 157 174 135 130 113 155 152 118 113 128 131 127 119 89 69 82 136 154 122 93 71 60 44 55 75 82 74 59 53 30 27 20 27 32 34 41 48 54 55 53 51
135 115 133 148 142 114 109 108 131 113 133 157 147 135 113 92 88 92 120 138 141 110 78 58 51 59 79 94 79 62 35 29 29 22 38 35 34 39 59 57 50 46 38
128 120 95 99 129 139 128 98 156 167 112 151 150 136 135 126 120 128 157 159 151 122 94 70 63 75 112 106 86 52 33 12 27 29 58 60 58 61 65 52 38 45 51

GFSGL_con_3kmhel_111.txt.gz
Helicity
80 72 54 47 51 41 41 43 40 34 32 24 23 40 32 14 17 28 43 45 51 65 69 51 56 72 72 66 56 48 50 59 51 57 63 62 53 42 35 24 24 10 49
122 89 64 61 75 44 30 29 43 45 43 28 23 23 16 26 18 22 40 34 19 31 49 47 34 46 54 70 70 56 45 78 88 59 77 73 46 53 37 35 22 29 17
145 132 119 102 111 15 42 45 46 42 41 53 51 46 53 47 36 48 42 39 31 30 38 40 45 51 51 57 62 68 69 84 78 67 36 45 45 44 28 16 9 10 28
161 167 124 92 67 -22 3 46 48 65 66 45 43 35 64 74 64 44 44 45 42 43 54 51 49 63 53 42 47 43 45 50 57 46 33 32 30 24 15 -6 -5 13 24
129 118 83 58 79 -50 -48 35 67 84 67 64 76 106 115 100 83 61 63 55 55 50 73 96 92 82 86 69 59 53 56 65 57 48 43 43 35 37 26 16 4 4 20
98 101 141 89 8 -18 13 78 87 76 70 53 87 108 113 103 97 74 61 54 61 49 64 71 63 97 84 75 53 23 44 66 65 67 58 40 47 41 38 30 22 -0 -3
131 134 155 80 81 96 65 70 60 35 58 85 96 120 114 95 107 98 77 83 93 78 95 108 95 97 86 74 81 78 111 114 87 64 65 51 43 48 37 42 47 39 30
50 83 75 100 120 120 96 78 79 69 80 99 102 121 104 105 119 97 76 102 177 95 125 125 88 116 108 90 95 101 109 112 103 74 52 58 56 46 18 18 28 15 32
32 42 5 107 126 128 107 84 82 92 107 99 98 101 99 111 133 112 118 125 128 121 137 134 118 125 140 129 104 105 122 147 136 155 140 138 149 193 177 66 80 60 64
56 -1 84 118 125 132 108 95 96 99 107 105 100 95 91 95 119 103 71 64 68 78 105 114 138 119 108 107 86 88 104 131 160 191 210 244 232 222 224 141 96 87 79
216 211 245 227 193 158 152 114 92 126 151 135 130 118 111 100 114 118 107 88 84 89 109 134 137 139 92 76 79 88 93 94 147 171 189 198 218 210 190 172 153 116 60
189 214 243 208 163 158 131 123 96 116 145 139 121 122 116 97 102 108 120 120 99 114 127 128 116 122 104 96 93 103 125 136 138 138 148 152 139 148 167 166 148 137 111
152 161 174 198 201 171 168 139 145 121 114 112 114 107 96 109 112 138 134 139 149 118 104 96 85 79 177 215 227 224 181 145 127 134 128 116 109 119 151 180 188 157 155
122 130 124 130 151 167 131 139 131 135 124 131 119 90 81 82 84 118 122 134 138 126 115 122 153 203 222 206 245 229 174 139 103 84 92 103 112 132 164 162 168 163 151
88 94 106 116 125 130 137 135 121 122 117 99 90 80 77 62 71 94 99 94 101 98 107 135 179 201 221 228 221 207 172 144 127 111 125 134 146 148 160 141 132 109 100
75 78 84 85 84 86 87 92 107 102 106 109 95 67 69 79 80 81 82 79 76 94 125 154 166 175 171 155 151 147 142 128 117 123 137 135 131 121 117 117 106 98 91
44 40 48 52 55 62 60 62 72 62 61 63 72 71 62 48 62 71 78 90 98 128 146 179 176 146 136 123 116 113 109 128 132 152 143 132 115 106 104 96 87 66 60
39 36 51 40 50 56 56 59 67 71 71 68 53 51 57 49 37 40 58 96 127 147 180 198 178 154 122 116 109 113 129 147 153 140 132 110 90 65 61 58 49 41 34
82 77 71 78 77 74 80 85 94 100 90 91 94 88 68 49 46 53 81 82 99 128 176 201 167 138 115 103 101 116 121 119 99 93 89 80 66 48 47 34 23 42 38
72 72 72 82 91 102 112 117 118 121 116 107 98 81 101 88 73 73 101 106 141 160 164 156 128 108 90 74 80 89 98 92 87 78 66 61 58 52 45 37 48 52 57
100 103 81 100 93 98 102 102 125 135 121 118 102 99 86 101 63 84 107 94 109 131 122 110 90 84 74 57 65 75 78 73 70 60 57 53 46 45 39 38 54 61 56
82 88 116 141 147 137 115 110 120 138 126 114 98 96 93 119 93 87 84 87 92 98 81 76 67 54 45 45 54 59 59 59 57 54 49 44 39 41 40 49 59 60 58
105 106 112 118 120 132 141 158 154 137 141 125 117 125 151 126 110 101 90 94 127 107 79 77 67 46 44 61 46 45 46 37 35 38 37 30 37 55 71 78 71 60 60
120 121 130 137 142 145 139 128 126 145 124 171 120 122 152 150 137 100 101 128 145 116 97 84 54 42 54 53 50 42 41 44 36 23 28 32 40 59 69 64 53 43 38
96 104 115 124 124 110 116 146 140 114 105 127 154 154 147 142 163 135 131 135 142 145 99 84 66 36 41 50 51 35 28 32 35 33 41 39 38 45 51 55 60 58 42
57 82 103 126 126 117 107 97 107 127 106 127 153 163 122 144 152 152 156 136 146 142 107 92 47 50 45 54 61 43 43 23 28 26 39 43 44 51 61 64 56 57 50

GFSGL_con_3kmhel_114.txt.gz
Helicity
50 67 67 49 41 39 39 44 48 40 38 34 28 13 22 31 39 54 57 48 40 60 67 56 38 63 65 72 75 76 80 81 56 57 57 54 54 65 50 47 36 31 26
86 69 68 82 70 62 59 71 61 43 42 34 42 42 51 49 29 29 36 51 47 30 28 48 44 70 54 53 71 73 69 69 66 35 40 37 41 50 38 21 30 12 5
135 117 95 93 103 91 87 84 65 66 44 41 45 48 40 13 25 32 29 29 36 30 30 46 47 69 62 62 63 63 60 58 67 58 40 46 44 38 30 27 16 8 25
180 165 125 127 120 116 94 63 74 51 54 50 50 54 50 59 64 66 58 51 36 35 34 35 40 52 61 62 54 43 48 56 50 55 52 41 36 38 30 28 27 27 35
145 171 194 176 123 105 65 17 49 39 38 31 48 53 69 74 73 62 62 53 46 41 59 62 69 88 105 98 68 62 65 80 83 56 56 54 45 34 31 28 23 24 25
129 227 235 160 81 55 77 71 6 47 47 63 64 60 47 59 83 77 67 64 63 51 49 72 88 100 79 103 88 51 35 53 67 85 86 68 53 46 43 32 29 25 26
124 134 139 124 108 36 19 21 20 81 76 71 73 85 72 57 80 82 63 66 80 95 89 97 98 71 102 53 62 57 87 97 86 64 65 64 52 59 38 40 39 29 38
132 126 105 132 139 41 -1 52 60 83 76 58 39 63 60 80 101 93 78 91 120 164 128 119 116 115 69 19 31 77 95 98 95 79 97 115 100 67 43 46 58 67 66
90 95 117 66 39 44 67 91 123 103 83 73 62 76 76 79 106 90 90 109 113 122 129 136 127 120 110 83 75 79 99 109 129 175 180 164 168 190 148 52 75 74 80
131 135 80 4 19 105 129 135 110 98 93 97 104 96 104 91 122 98 69 65 72 67 75 85 137 118 102 97 91 91 98 98 112 146 183 210 192 174 189 123 85 100 99
134 147 99 72 141 171 134 102 86 111 108 119 130 116 114 115 119 122 100 68 59 60 63 72 91 122 111 105 101 86 94 128 179 184 183 170 149 146 154 158 163 115 66
173 142 172 65 195 135 105 103 64 114 151 133 157 137 125 114 115 114 107 103 85 84 85 89 100 131 138 125 116 127 158 153 156 172 162 156 145 136 125 135 137 129 125
164 186 173 222 99 130 96 128 139 126 130 125 111 114 105 104 93 96 108 110 119 95 101 100 94 142 163 174 173 188 176 149 151 159 136 125 130 118 116 98 107 113 122
149 133 132 140 140 132 175 137 126 168 134 118 107 90 84 80 91 105 100 104 110 114 122 134 151 177 183 169 190 192 168 149 136 113 107 112 116 143 165 147 127 88 104
96 95 95 103 116 121 129 126 151 154 148 135 116 103 88 84 79 101 105 118 112 99 101 120 135 169 177 181 188 176 162 155 143 127 130 126 130 134 151 141 145 131 124
71 79 76 79 81 80 77 96 122 109 103 122 113 95 93 106 98 103 99 99 102 109 97 98 111 133 144 136 137 147 155 159 155 153 152 152 158 158 151 148 136 136 133
123 107 101 103 95 98 103 110 120 87 73 71 80 83 80 63 62 68 76 95 105 107 116 121 134 139 146 149 132 140 136 138 136 154 142 129 133 136 133 140 141 125 115
110 119 113 109 90 81 82 85 84 90 90 78 62 55 59 62 54 55 74 83 88 105 114 132 158 164 156 156 147 134 129 134 146 147 150 146 135 119 117 117 109 100 82
55 58 59 62 56 52 61 68 71 76 79 78 88 82 73 72 76 62 65 65 74 87 108 155 187 192 176 151 143 143 139 137 132 132 125 111 97 85 85 76 70 67 49
55 45 46 54 65 71 72 79 92 95 96 92 91 91 114 121 92 72 54 68 73 94 125 162 178 170 140 116 111 116 128 123 118 109 94 81 73 65 64 62 61 61 73
65 71 64 77 77 79 89 92 105 112 119 116 95 94 89 107 88 70 46 56 62 77 99 136 146 127 108 104 104 101 101 105 95 85 73 65 57 63 64 70 72 75 78
67 75 83 85 91 97 107 122 124 124 120 121 106 111 91 105 109 90 58 43 31 50 83 110 104 89 84 78 77 82 83 85 79 66 59 56 58 65 68 71 72 66 64
86 86 87 88 92 99 105 108 116 114 120 133 138 140 140 127 131 114 94 76 69 71 86 88 86 79 73 66 61 65 68 62 59 59 61 63 69 76 79 84 85 85 81
72 76 78 80 90 104 111 117 128 118 109 118 122 125 138 153 149 147 126 126 103 99 95 82 72 69 64 55 50 45 54 66 62 51 57 65 66 65 68 71 72 70 65
46 31 28 33 45 64 80 88 96 102 102 99 94 90 84 136 192 153 164 138 119 145 107 80 66 42 27 30 29 21 35 63 48 50 50 52 57 60 65 68 70 67 62
34 38 44 54 66 74 77 85 101 104 85 75 75 85 83 128 157 166 174 148 133 138 112 76 46 27 23 16 14 25 58 53 51 46 52 53 55 56 58 57 58 60 53

GFSGL_con_3kmhel_117.txt.gz
Helicity
38 36 39 41 42 41 35 42 35 38 29 25 41 37 33 42 50 50 38 42 42 54 61 58 48 56 54 60 60 54 51 51 3 21 36 40 31 45 46 35 29 21 20
11 32 39 45 45 45 55 62 63 64 57 51 35 34 27 31 34 42 40 38 29 26 34 48 26 44 42 48 43 42 47 53 35 3 26 24 26 22 11 5 9 13 12
26 22 40 44 51 50 77 88 89 82 73 67 60 41 34 31 37 29 26 29 30 23 29 27 26 33 27 32 45 47 38 42 44 25 13 30 23 22 21 17 18 24 23
61 72 59 66 67 72 68 82 88 97 102 93 75 70 49 34 36 33 41 38 42 44 26 33 37 33 24 30 38 40 38 32 42 43 30 23 21 27 15 16 20 28 41
101 85 94 96 110 90 112 108 83 112 102 130 124 100 88 75 63 69 60 55 52 48 48 46 77 142 119 125 95 63 53 43 45 47 46 24 26 26 24 22 12 19 34
78 103 125 141 163 148 148 116 105 107 105 115 89 96 76 65 71 64 54 56 60 66 57 64 84 84 104 117 96 84 57 36 42 53 55 51 42 33 34 28 26 31 37
180 152 110 179 202 215 186 109 79 115 109 98 57 88 113 86 80 48 53 70 79 87 86 70 86 92 95 91 72 68 56 53 55 60 63 63 55 61 34 29 45 37 54
110 156 86 181 218 82 110 103 66 91 69 88 97 96 39 98 51 54 64 77 99 115 114 117 122 109 122 104 81 86 80 70 60 77 106 103 86 59 37 53 65 60 76
149 126 140 94 124 104 109 80 77 63 60 79 53 20 18 27 75 92 62 72 73 111 139 141 121 119 103 92 73 66 75 95 125 173 147 107 118 166 149 59 82 63 69
119 102 101 99 115 93 83 68 83 92 102 145 111 62 73 54 117 100 73 47 61 66 79 103 128 92 69 104 75 83 75 77 81 93 103 120 127 111 142 115 70 68 82
146 137 111 94 151 84 65 69 109 155 167 120 79 101 110 105 116 124 95 50 65 50 51 44 49 82 76 83 92 89 100 111 128 105 105 106 103 99 92 98 120 106 81
150 155 191 132 111 15 68 100 83 70 82 78 41 91 113 120 130 130 114 122 83 71 71 70 76 87 89 101 101 128 126 100 105 113 120 118 118 107 99 113 129 131 139
184 157 188 159 140 110 74 82 65 65 119 82 79 92 111 113 109 112 116 112 103 66 79 90 106 115 129 163 178 140 99 117 117 135 114 110 122 114 86 85 88 97 116
100 91 101 145 193 134 75 93 148 126 121 118 104 89 98 108 109 113 101 84 87 79 79 86 109 143 181 181 162 158 152 141 138 126 127 123 109 103 118 121 117 97 100
93 102 124 123 108 114 127 135 157 127 106 98 121 124 115 102 93 100 105 101 101 105 87 83 93 107 138 149 174 138 143 146 145 142 126 130 131 126 137 134 134 125 117
106 111 110 88 74 63 74 100 99 100 96 137 146 123 97 119 117 113 109 101 88 69 76 78 90 90 99 124 141 155 139 148 146 122 123 129 137 155 139 156 149 146 129
89 82 77 87 92 88 85 95 102 85 75 77 84 93 103 88 69 73 73 78 79 73 62 73 83 93 115 131 133 136 139 158 148 144 160 160 155 161 142 157 147 134 136
68 69 73 69 58 63 70 73 64 68 76 71 60 60 71 70 52 62 64 57 60 65 70 77 90 120 145 160 163 159 160 153 155 159 158 158 161 162 161 154 135 128 119
44 52 54 56 61 62 57 60 70 81 84 83 78 79 79 85 86 84 76 52 55 61 78 97 122 149 179 192 181 166 152 146 141 137 144 149 153 144 141 127 135 143 101
68 70 68 72 72 65 62 65 75 79 84 91 94 100 114 122 101 88 73 67 66 73 91 108 144 186 206 198 171 145 135 117 118 121 127 125 123 114 112 102 93 86 88
64 66 61 49 53 57 65 74 87 96 98 104 111 116 122 99 101 96 88 64 47 54 73 95 133 167 174 153 129 114 108 113 115 121 119 114 106 101 95 96 90 86 87
67 76 80 88 97 95 97 92 89 89 91 94 98 107 119 120 115 105 96 92 83 69 80 92 114 124 123 117 111 102 103 103 106 104 100 97 94 92 89 88 87 80 74
77 75 76 81 88 94 87 92 94 92 89 90 89 95 106 109 119 125 109 114 120 103 94 92 103 112 114 104 98 95 92 90 91 92 93 88 82 79 74 77 78 75 80
71 73 75 69 65 54 57 62 71 83 87 90 97 102 102 107 106 95 111 158 144 127 120 88 90 87 94 92 94 84 84 89 88 81 75 79 79 83 71 73 77 93 91
56 54 52 55 57 63 60 72 85 90 89 98 109 111 101 93 89 83 120 195 76 85 116 99 98 78 69 60 62 56 102 96 61 87 64 68 74 76 79 78 81 77 76
57 59 60 62 66 64 69 74 75 71 75 110 119 104 92 80 73 76 94 155 182 161 204 128 80 66 61 52 38 69 106 68 57 35 53 61 66 65 67 66 68 68 70

GFSGL_con_3kmhel_120.txt.gz
Helicity
15 30 40 38 38 33 23 16 17 20 20 30 34 28 26 22 25 24 27 36 38 37 39 49 27 39 31 42 40 37 33 23 7 9 37 53 32 32 18 22 15 22 92
28 32 33 34 36 34 32 30 34 42 38 34 38 45 44 41 36 24 23 13 32 29 30 35 28 25 25 19 8 15 10 19 9 9 7 13 30 14 19 12 13 6 32
17 17 27 27 33 32 41 50 51 51 51 48 49 48 44 34 38 33 34 42 23 19 18 28 25 27 9 18 25 16 14 20 36 11 2 -3 33 19 24 28 20 30 18
37 24 16 15 25 34 44 51 58 65 62 58 60 63 60 60 58 50 30 32 32 23 17 26 26 21 25 27 30 37 44 36 26 14 29 29 26 49 18 23 23 33 25
56 33 25 34 52 60 54 57 57 62 70 68 70 73 79 81 109 120 95 73 57 45 41 45 41 65 100 85 77 78 66 33 45 39 37 19 19 8 35 28 24 29 73
74 63 41 43 66 80 74 72 75 87 90 73 92 99 97 135 162 139 119 83 62 57 53 50 65 61 85 89 93 115 113 62 42 48 49 47 24 37 29 28 29 37 96
98 94 78 70 62 86 111 117 131 136 123 120 117 135 148 127 145 116 94 75 75 60 64 79 65 81 81 85 120 120 109 97 76 55 63 48 56 81 60 51 62 61 86
91 101 73 103 155 126 206 215 231 188 123 108 116 192 153 123 142 174 145 85 57 89 100 98 104 103 121 103 85 85 95 123 85 70 91 97 78 69 51 54 68 68 76
82 60 76 80 95 166 177 212 147 141 116 137 138 130 132 138 152 147 114 43 57 62 78 91 95 106 115 130 70 53 62 55 107 157 138 102 89 115 111 56 68 65 103
95 35 47 67 94 96 124 94 174 161 168 140 133 120 58 50 48 37 37 9 18 36 38 54 99 88 61 61 54 48 37 54 62 75 76 57 51 90 110 114 86 72 82
161 125 96 78 44 76 126 150 177 231 216 180 150 165 179 84 55 71 87 56 53 41 43 26 54 76 67 64 74 60 65 83 98 71 53 57 68 71 86 102 116 118 114
229 171 105 88 56 58 90 131 102 65 47 67 204 143 109 73 108 102 119 125 95 58 70 81 71 79 80 79 65 107 100 83 75 75 83 87 92 96 87 98 121 136 148
165 160 202 186 128 115 122 64 -0 16 -4 59 107 92 38 27 48 60 98 97 93 85 100 91 81 68 71 101 131 109 76 118 145 132 118 115 111 127 85 84 96 95 111
147 125 118 144 131 126 113 105 106 51 58 105 58 38 49 52 61 96 78 77 69 48 52 69 106 125 164 163 113 116 145 147 156 143 140 101 96 80 92 85 83 79 87
85 86 79 79 94 115 114 103 57 61 99 98 77 108 83 85 85 98 72 60 85 101 85 78 68 83 84 103 126 147 172 153 165 172 128 111 94 104 126 109 117 118 110
52 50 46 41 56 62 83 96 102 44 44 59 72 74 88 113 116 93 89 94 94 96 72 80 67 69 69 77 87 110 117 128 125 109 121 116 103 108 112 118 131 163 157
37 25 23 39 45 43 42 41 41 32 26 48 65 79 91 82 68 68 67 64 58 67 64 57 61 69 80 88 83 107 107 133 115 123 108 108 131 143 122 131 147 156 153
55 45 52 52 61 68 70 74 79 75 68 66 59 79 94 88 84 84 79 75 73 71 66 69 70 70 80 88 116 143 169 139 140 132 125 131 122 121 127 148 150 146 127
37 47 48 55 67 59 54 56 63 68 77 83 78 68 94 96 91 86 77 79 94 96 89 83 86 97 112 133 161 188 166 153 146 121 124 125 130 127 148 146 170 180 143
43 53 39 46 50 46 54 58 65 62 65 79 80 84 115 119 92 92 87 88 89 88 88 92 98 113 137 162 176 166 148 144 124 114 126 132 139 143 144 136 135 115 118
42 47 61 36 48 61 63 62 72 75 81 93 96 121 178 103 82 88 84 81 74 77 82 83 92 98 121 129 143 139 119 100 103 112 125 117 125 115 115 116 112 107 117
44 51 57 64 73 71 80 76 71 71 70 69 62 83 113 60 78 85 88 89 86 94 109 110 95 87 101 123 128 105 95 96 102 101 102 106 98 102 102 102 106 105 103
48 51 58 56 55 57 34 42 52 59 60 66 68 73 72 66 73 78 85 86 89 105 127 114 103 101 129 115 98 89 84 86 96 92 92 91 89 88 87 86 85 82 82
68 69 70 66 71 50 67 66 55 66 64 65 75 77 68 66 81 87 94 92 93 96 109 111 123 137 118 86 77 68 73 92 96 87 82 84 81 98 76 82 77 102 87
50 60 62 65 66 75 74 75 83 83 77 71 74 69 65 79 102 106 90 91 87 80 98 182 247 197 83 78 71 69 211 202 115 127 69 79 80 80 69 73 85 79 80
64 64 68 73 79 79 81 84 78 55 49 55 63 68 87 116 107 83 74 74 64 57 79 124 155 159 203 222 123 140 130 128 94 90 72 69 67 62 63 67 79 77 84

GFSGL_con_3kmhel_123.txt.gz
Helicity
36 46 36 18 19 35 19 33 19 30 29 21 20 23 23 24 23 32 14 35 44 37 28 54 67 39 44 47 54 57 4 0 -43 -21 68 62 10 18 27 12 13 87 162
52 69 61 57 49 44 36 25 47 17 33 33 21 20 31 35 42 50 36 19 47 26 24 38 35 35 48 41 40 46 72 37 59 15 21 -25 47 41 37 26 17 22 105
47 55 52 51 51 44 39 35 37 34 41 31 33 32 33 39 34 30 42 40 45 35 31 39 33 32 38 33 33 39 34 82 57 52 18 -10 42 54 61 36 24 23 141
57 39 46 45 41 38 38 42 37 49 44 38 47 43 50 47 50 50 41 47 52 44 48 44 38 24 36 38 32 43 49 72 85 29 48 35 -5 31 26 38 31 -48 82
75 52 44 42 34 36 47 39 51 47 47 50 50 48 49 52 67 72 73 60 58 59 65 57 49 64 109 74 65 53 73 67 69 38 57 47 30 28 27 25 15 43 70
126 96 72 63 69 57 47 49 54 54 61 65 75 82 81 79 197 194 149 105 91 81 96 95 73 71 70 96 114 127 120 60 50 51 44 67 70 47 48 42 44 54 58
120 92 116 89 57 59 54 74 78 83 101 96 101 130 142 190 206 195 166 145 114 92 78 70 64 82 90 87 106 93 104 108 94 78 74 84 72 72 63 45 56 46 68
107 97 108 117 87 97 97 72 101 131 144 142 154 216 230 259 201 177 148 143 123 137 171 142 130 161 172 156 104 88 100 99 109 97 106 86 77 86 84 61 54 46 64
192 161 139 127 109 94 115 99 135 148 164 198 262 272 264 209 224 214 150 143 130 110 102 110 110 93 110 112 91 49 61 43 66 111 92 63 63 95 102 85 104 70 89
202 136 112 133 112 63 67 72 81 126 182 261 308 277 250 147 205 185 135 108 157 88 24 21 64 76 68 91 69 51 48 25 28 59 56 50 52 90 95 104 94 103 95
63 90 105 118 71 84 54 136 183 138 162 223 247 227 260 233 127 121 111 86 65 39 13 -17 42 46 36 30 39 62 71 95 66 41 48 50 68 70 88 103 126 117 127
115 54 82 91 75 55 22 30 42 101 118 145 132 161 177 211 225 142 116 113 57 24 35 76 73 52 39 29 34 58 72 77 63 51 54 77 90 77 101 89 102 120 126
235 207 173 145 113 138 97 107 63 50 33 10 -2 38 58 65 26 21 21 15 8 21 64 46 62 55 34 54 94 92 101 97 110 145 153 202 163 148 105 67 71 79 80
160 139 128 158 158 103 81 85 47 52 32 7 33 52 41 71 1 -32 -4 6 15 38 54 38 49 45 75 126 77 83 105 136 154 148 196 215 128 84 86 87 70 63 71
56 54 50 69 82 99 114 83 60 62 29 36 37 40 46 26 0 34 51 53 77 79 62 46 42 52 58 76 88 112 106 100 114 137 152 137 112 109 111 118 96 92 78
30 32 23 23 27 33 39 75 76 57 58 89 85 74 71 68 92 113 101 93 80 80 73 85 89 78 73 67 65 65 69 97 90 101 115 93 88 84 99 69 89 99 108
41 30 17 10 9 3 2 28 29 17 28 27 33 43 67 75 71 64 62 53 45 66 65 74 80 90 101 118 88 82 96 88 143 111 111 102 102 114 139 112 106 128 128
23 0 22 31 39 44 51 48 40 18 10 17 -1 21 55 67 67 67 70 69 59 70 46 47 61 57 60 59 97 129 196 213 154 151 118 128 130 134 128 131 134 139 151
30 42 35 41 52 36 37 32 49 58 66 74 70 57 70 73 74 71 75 72 80 90 98 97 97 86 90 100 110 112 148 149 117 111 91 113 109 108 110 142 186 186 164
28 40 33 25 27 20 25 35 30 38 32 38 34 47 90 63 64 67 77 61 74 82 96 105 99 101 110 131 177 191 162 132 139 109 101 112 112 119 122 127 119 109 78
22 34 30 12 22 43 51 39 45 49 46 59 63 143 165 80 55 46 46 49 48 51 65 82 96 109 113 108 150 134 106 102 79 85 99 100 112 97 105 127 116 102 122
18 31 39 42 47 46 64 52 45 48 49 50 44 108 96 48 47 64 63 61 58 59 59 64 72 71 61 83 118 93 80 87 95 104 85 91 92 75 99 90 89 88 87
37 35 48 46 39 39 16 25 51 57 66 73 71 69 80 78 83 74 64 55 56 63 66 95 119 77 71 104 132 125 95 95 85 108 82 72 76 71 75 74 79 82 77
44 53 60 69 64 42 82 66 64 81 72 69 76 72 66 75 76 65 57 50 59 96 97 85 54 55 110 78 121 149 105 97 110 105 84 81 73 93 71 78 77 88 98
66 74 68 71 68 73 72 82 90 90 74 50 42 55 63 72 54 57 90 104 83 65 73 90 41 115 -10 86 161 299 334 320 262 132 83 69 83 116 60 67 73 79 66
73 71 76 75 76 76 77 75 79 73 62 47 50 74 108 143 142 120 101 80 87 58 27 65 93 157 173 139 129 369 336 318 280 224 122 55 70 59 58 64 93 74 75

GFSGL_con_3kmhel_129.txt.gz
Helicity
131 104 102 79 63 73 100 74 66 64 60 61 52 47 34 31 32 41 27 28 17 13 33 28 28 33 26 42 54 54 54 81 86 77 71 71 62 68 99 111 76 101 121
165 129 124 75 35 41 87 76 58 47 49 43 40 37 33 34 45 43 31 29 26 28 22 29 24 33 42 44 52 70 89 86 66 31 37 56 45 23 46 60 95 67 43
199 171 124 95 65 38 60 61 69 59 52 57 57 47 38 32 31 33 35 38 32 32 31 26 29 39 25 41 33 30 56 58 53 38 10 30 38 43 45 51 115 107 30
184 164 149 118 87 75 86 87 87 91 77 59 53 56 47 45 46 52 42 51 56 54 49 44 39 43 30 36 45 47 59 66 65 45 37 32 48 53 40 54 62 61 70
202 143 146 141 135 112 100 103 112 88 66 53 59 61 50 99 100 93 90 73 66 61 59 66 80 84 85 82 81 81 86 83 75 65 55 52 56 61 52 45 61 82 94
336 131 197 153 141 126 105 107 101 91 72 83 86 103 163 144 122 104 98 105 96 75 73 96 97 110 111 96 80 92 100 83 75 82 81 66 64 69 62 68 64 70 49
83 82 224 191 132 108 94 100 86 77 85 82 82 133 159 162 150 127 118 104 106 134 138 144 164 158 125 82 88 94 101 119 115 90 89 88 82 73 78 85 96 88 72
49 220 275 218 153 140 143 108 88 85 74 84 116 178 198 199 188 148 130 131 143 151 163 190 192 160 158 128 106 88 95 127 122 103 86 76 79 66 60 52 54 43 80
114 118 482 221 196 195 150 147 146 129 150 206 216 233 215 203 266 238 187 193 205 207 213 203 205 159 190 204 142 127 123 134 127 128 125 62 33 41 31 40 61 66 87
205 183 172 276 285 278 264 229 201 183 188 174 202 194 210 210 306 356 293 269 240 186 158 145 194 221 180 168 135 108 96 62 28 -2 -4 -0 -2 47 85 53 55 73 92
278 348 376 385 369 294 349 326 293 226 186 190 198 191 188 139 172 232 253 216 165 160 131 68 36 42 22 15 12 7 11 4 -2 -4 10 34 64 123 73 51 52 46 76
99 200 213 245 168 150 225 158 159 85 101 119 88 120 108 122 138 163 149 188 122 96 75 14 -23 9 -24 1 -1 55 23 -15 -4 4 5 5 79 160 103 82 39 23 52
20 80 65 75 126 20 16 88 45 -12 87 89 65 45 68 63 61 43 19 -50 12 26 -2 -43 -0 27 36 42 45 53 54 61 73 83 92 115 148 153 130 108 85 65 71
115 90 34 -38 -42 -28 13 -12 4 39 2 -8 2 4 -21 -2 -15 -39 9 46 14 18 -2 -0 14 37 29 39 40 31 35 61 82 86 103 117 125 124 113 76 49 55 60
117 120 72 45 51 78 56 39 18 12 9 17 18 3 3 -6 -10 -3 11 16 16 24 45 52 51 46 64 73 65 58 62 71 88 91 103 94 90 90 89 85 76 67 75
41 19 10 1 11 17 25 41 62 41 50 44 39 23 18 22 29 47 50 58 58 62 69 74 70 69 67 68 69 60 64 61 57 64 77 78 73 79 79 80 81 89 90
26 -11 -19 -11 -13 -7 2 5 3 10 13 17 25 23 10 26 31 41 47 48 51 68 79 90 108 131 119 131 136 117 107 74 81 91 72 67 73 77 81 85 79 77 88
11 5 -17 -11 -16 -15 -5 -11 -10 -5 -4 -6 -12 -1 6 16 14 18 29 39 54 60 68 88 96 85 92 87 79 79 77 84 98 100 106 90 71 63 77 84 100 101 115
16 -10 -10 -7 -17 -17 -23 -34 -31 -35 -18 -2 -12 -16 -10 -9 -6 3 27 51 67 76 75 83 80 83 87 84 78 78 71 101 125 99 89 83 58 70 96 108 86 98 103
35 40 10 9 -2 -7 -2 21 21 1 -1 17 3 -14 -13 -17 -11 17 32 25 45 51 61 81 71 52 47 53 58 58 45 65 99 111 103 91 90 97 92 81 92 101 96
13 19 20 42 28 36 32 32 18 15 7 -7 -2 -16 -12 16 42 60 53 50 65 74 71 71 93 84 87 85 91 90 95 105 134 109 99 81 71 57 44 39 66 123 120
39 19 40 35 30 38 48 39 37 53 77 41 32 23 33 43 57 76 133 173 169 168 157 147 152 153 164 159 151 150 160 184 132 124 95 87 20 84 71 65 57 86 100
53 31 43 38 42 56 80 82 98 122 140 154 128 102 98 119 199 233 226 208 211 176 135 109 97 85 60 65 103 122 144 131 112 163 200 168 83 145 167 155 139 106 97
58 57 65 52 73 94 116 143 152 161 148 158 160 186 199 187 177 175 160 131 139 119 85 70 63 55 17 53 80 99 110 97 135 156 224 57 121 259 259 235 240 175 79
53 74 51 60 105 104 165 179 153 125 96 86 98 113 140 146 126 98 95 88 55 71 90 85 37 38 66 85 72 85 70 126 128 171 176 230 315 224 211 186 148 69 120
104 104 87 94 105 118 129 138 116 90 82 71 86 92 97 117 107 82 55 61 74 72 71 73 41 56 54 33 27 49 107 164 217 263 271 279 312 382 326 225 314 253 208

GFSGL_con_3kmhel_132.txt.gz
Helicity
147 150 91 125 106 75 79 56 34 84 54 31 44 36 35 35 37 42 41 47 45 31 31 45 23 21 0 19 59 75 85 91 88 88 92 95 75 86 98 121 125 113 107
184 164 150 120 175 154 101 78 98 87 78 66 65 48 44 41 35 40 34 47 32 17 26 34 17 29 19 33 53 66 62 58 49 47 87 92 67 80 89 85 93 105 129
217 199 169 170 168 169 158 101 84 67 60 62 62 54 47 43 45 38 42 41 43 36 38 50 39 49 40 49 54 55 51 60 70 68 57 74 66 83 86 91 76 87 89
253 225 195 166 164 177 166 122 97 81 70 65 67 56 53 55 52 41 35 30 44 48 46 50 46 51 50 57 62 58 71 81 90 86 73 65 61 71 80 84 69 86 83
327 280 230 121 104 139 143 136 119 117 88 95 88 65 68 87 79 62 55 49 65 65 65 56 49 58 80 72 75 73 97 108 106 98 78 69 71 80 80 72 62 82 92
345 440 294 192 79 89 102 118 131 116 85 95 84 77 106 122 94 78 87 105 112 94 75 80 89 120 111 109 113 89 98 99 100 104 91 80 75 77 77 80 92 98 72
247 252 159 92 16 22 115 131 129 133 124 107 133 149 167 167 179 153 114 106 114 102 111 123 155 156 143 127 128 124 121 129 115 92 94 97 112 92 85 95 112 105 94
207 210 212 81 3 18 113 150 156 164 143 173 165 192 210 192 172 145 96 105 123 142 139 148 165 179 191 136 126 117 126 126 106 105 115 123 112 104 91 97 86 78 81
184 169 223 220 -50 54 148 188 200 198 232 219 221 240 204 171 189 152 124 132 163 183 195 221 212 221 230 213 160 179 145 122 110 126 133 146 143 105 59 13 33 47 58
148 164 110 191 45 211 267 301 331 282 295 299 281 204 143 145 228 237 197 187 221 248 243 197 187 142 129 136 177 212 201 164 116 71 29 11 -14 18 39 50 27 53 55
98 63 134 174 202 211 242 247 268 274 317 314 270 204 176 137 188 274 251 201 213 192 161 118 85 93 70 32 43 75 68 25 20 16 28 27 32 47 52 42 42 45 52
386 425 459 361 314 236 297 265 249 267 319 288 231 241 294 207 196 248 204 187 130 136 122 48 -23 -1 0 -12 5 17 27 25 48 58 60 63 66 60 64 92 88 70 37
37 80 177 231 352 568 506 412 308 298 279 175 244 198 211 167 151 105 75 14 58 73 55 8 -28 2 25 39 59 45 46 47 56 70 78 85 76 74 77 80 68 44 24
10 -19 -19 4 147 98 69 111 46 30 48 36 56 72 88 68 91 50 33 40 67 71 73 69 19 25 37 45 46 60 60 56 65 63 60 62 67 85 86 69 57 44 51
-27 -70 -87 -22 -68 -27 46 9 -10 6 -13 5 4 -7 -1 6 6 8 16 15 16 25 5 27 51 60 74 70 87 83 87 96 96 87 86 91 88 82 68 63 62 58 54
30 28 21 28 20 3 36 89 113 75 62 6 0 -5 -8 4 13 24 19 25 29 44 57 86 93 79 68 72 70 73 63 57 51 54 59 63 71 77 79 75 70 70 75
45 24 10 20 -8 9 11 -18 36 64 65 60 50 24 15 10 24 30 39 49 60 54 71 73 67 80 77 86 92 85 91 92 78 89 82 74 70 68 72 65 76 78 84
-16 -32 -38 -54 -47 -34 -31 -17 -9 -4 2 5 26 18 18 16 16 27 42 44 54 59 60 67 70 71 70 64 66 64 62 61 71 71 70 65 76 73 73 64 61 65 79
-7 -18 -17 -18 -19 -13 -1 0 4 6 3 -9 -12 -6 0 -7 -6 0 11 38 42 37 49 64 69 67 64 62 52 48 42 19 22 50 67 66 50 52 50 51 60 63 71
15 27 30 23 35 31 6 2 6 6 -2 -3 -7 -17 3 11 36 46 51 52 54 43 39 50 58 60 65 62 51 45 52 63 60 78 83 90 88 62 76 88 70 47 64
55 49 36 8 -1 0 -16 -25 -28 9 -1 2 -18 -36 0 49 45 42 49 53 75 110 104 96 99 106 105 98 99 107 110 120 120 109 94 102 116 97 115 60 57 24 36
35 51 37 32 30 43 43 38 50 43 41 39 36 52 90 78 129 157 158 162 153 144 119 115 114 108 106 110 113 130 122 116 114 104 100 112 107 129 118 52 90 74 63
66 47 41 51 55 89 154 174 196 204 192 169 153 168 192 202 198 191 190 173 161 141 102 91 90 93 79 90 99 94 87 81 84 94 110 155 168 127 112 123 130 123 136
55 36 60 78 94 128 164 167 155 160 165 180 205 208 199 191 184 173 153 147 143 144 112 96 75 72 69 75 63 70 77 69 77 80 90 128 149 137 118 120 120 159 86
63 70 77 92 125 139 134 120 110 103 94 91 111 132 143 142 136 123 97 75 91 109 92 56 44 48 62 75 66 63 70 99 92 140 159 183 187 172 149 166 210 177 143
78 92 104 144 151 134 120 99 77 65 58 70 89 97 105 104 95 100 90 86 84 74 64 51 40 40 50 54 36 39 75 141 189 212 196 173 163 147 78 102 104 192 237

GFSGL_con_3kmhel_138.txt.gz
Helicity
65 145 179 132 74 19 21 20 16 20 42 50 51 49 38 41 60 63 46 44 50 44 47 42 39 49 46 54 75 75 77 106 105 71 73 59 69 66 77 79 65 63 68
-29 74 125 153 110 76 33 21 37 13 42 39 52 45 67 71 71 63 54 71 68 51 30 54 30 46 51 59 66 61 63 85 104 73 69 63 68 90 93 92 80 76 72
176 139 183 112 49 46 55 62 50 63 49 56 49 52 69 77 81 72 76 70 65 64 65 62 40 53 57 61 56 53 60 65 95 105 83 87 81 94 103 105 94 85 76
240 147 104 120 111 50 69 78 74 81 78 74 88 93 103 90 78 73 72 72 64 61 70 67 55 73 45 54 62 59 63 64 74 88 97 100 102 108 103 96 82 78 78
190 126 150 201 117 105 121 123 102 90 92 85 94 104 99 91 87 82 76 69 66 53 58 70 66 65 78 83 79 69 71 79 94 116 124 126 108 101 99 101 79 71 65
194 177 137 164 197 117 142 119 119 113 123 134 89 85 103 100 86 71 88 83 76 76 94 101 118 129 108 104 98 83 76 90 102 122 125 107 97 109 112 109 94 82 77
97 108 123 140 124 121 117 141 100 128 138 137 129 112 100 130 128 120 106 110 97 108 112 119 131 135 123 96 93 104 139 175 175 126 124 118 121 137 114 122 121 103 101
86 89 114 159 164 157 192 101 76 134 166 141 119 127 162 165 157 172 135 134 148 173 179 169 148 127 129 94 91 103 135 164 189 165 136 137 153 164 143 132 137 130 145
66 68 100 107 139 139 150 177 107 132 151 148 179 191 192 195 177 154 159 191 199 193 180 174 157 149 168 148 108 117 144 164 159 190 131 161 142 185 187 129 120 72 82
19 19 19 42 119 140 97 163 89 181 142 172 232 231 239 210 174 154 188 193 178 158 146 177 221 174 195 236 186 150 121 95 116 108 64 86 82 40 55 34 24 44 25
9 12 52 60 134 146 109 196 155 199 212 249 317 322 324 250 235 160 135 157 163 194 186 178 171 231 238 238 207 176 72 32 25 30 37 40 52 55 53 53 73 71 64
7 14 51 122 195 188 175 195 242 314 273 324 425 462 408 355 290 289 265 206 207 209 112 80 165 239 47 -1 -11 6 11 9 33 45 61 64 56 71 90 76 98 104 80
9 31 121 253 255 226 203 201 237 296 368 380 466 458 406 361 363 384 392 388 354 261 86 28 -9 -23 -15 22 42 34 40 62 73 71 67 62 80 74 88 94 91 94 88
45 73 1 134 307 359 309 293 276 360 396 486 504 392 308 303 332 408 529 481 311 318 159 -28 24 30 47 46 51 69 75 71 61 55 55 62 67 84 99 104 111 117 110
-43 19 84 112 109 168 323 327 298 358 375 411 670 326 409 391 406 139 -9 -25 -29 -105 -29 44 73 86 106 95 79 71 74 72 70 71 85 92 104 110 108 100 82 75 87
8 -65 -63 13 125 53 67 215 202 183 110 114 96 73 113 14 -15 -22 -32 -55 -29 -11 54 66 83 99 106 87 72 64 78 84 79 77 81 86 93 94 89 77 68 74 80
85 26 22 -46 -57 -24 15 35 110 161 161 157 78 57 30 22 31 45 58 87 83 90 110 101 70 49 46 58 73 78 62 59 51 67 75 83 79 80 80 75 71 70 60
11 30 2 8 1 30 31 12 41 61 100 126 131 79 59 47 46 66 74 110 117 98 58 49 46 40 39 52 52 50 47 43 45 49 56 60 71 78 88 93 96 77 61
45 26 1 18 3 23 9 21 36 58 60 30 34 65 61 80 92 113 77 55 46 53 49 50 45 47 46 44 46 43 39 44 52 58 61 64 76 76 79 92 97 90 79
28 23 -2 0 8 7 7 17 28 47 47 34 38 24 15 15 20 24 32 33 43 52 56 62 59 63 67 58 48 45 47 56 62 63 64 78 90 83 85 100 104 96 90
11 10 16 3 3 3 3 11 28 39 24 8 -3 0 3 3 15 27 37 48 59 63 65 67 63 59 48 41 41 45 51 57 65 72 80 81 82 82 88 98 114 133 116
27 27 28 28 16 9 5 0 14 16 13 14 18 25 37 54 60 68 69 69 67 68 65 65 63 57 40 38 45 46 50 57 61 66 75 80 91 108 113 146 205 193 152
39 41 45 42 34 35 31 17 16 18 33 40 48 54 64 85 80 82 80 71 70 70 57 56 56 57 53 54 48 46 52 53 49 58 71 88 115 145 172 195 213 172 116
41 45 40 34 39 48 55 59 58 71 85 86 90 94 106 101 96 92 81 71 70 77 73 65 62 66 65 68 61 53 46 44 47 63 78 97 131 151 175 179 144 100 66
48 51 51 51 57 69 86 85 84 85 91 94 97 107 117 118 108 95 85 76 74 70 64 61 60 63 70 72 62 55 52 60 74 79 103 125 150 157 138 110 81 63 61
37 50 59 67 78 79 87 94 91 93 97 93 98 104 106 100 92 86 78 74 70 65 61 58 51 52 58 60 62 71 74 92 98 110 117 109 103 101 102 94 75 73 81